<?xml version="1.0" encoding="UTF-8" standalone="no" ?>
<gpx xmlns="http://www.topografix.com/GPX/1/1" xmlns:xsi="http://www.w3.org/2001/XMLSchema-instance" xsi:schemaLocation="http://www.topografix.com/GPX/1/1 http://www.topografix.com/GPX/1/1/gpx.xsd" version="1.1" creator="VisuGPX - https://www.visugpx.com">
  <metadata>
    <name>30-AVR-17_Rando Heyrieux</name>
    <desc><![CDATA[randonnée autour d'Heyrieux - Organisé par l'association HCM]]></desc>
  </metadata>
  <trk>
    <name><![CDATA[30-AVR-17 14:12:57 Rando Heyrieux]]></name>
    <trkseg>
      <trkpt lat="45.63112" lon="5.05565">
        <ele>275</ele>
        <time>2017-04-30T07:51:03Z</time>
      </trkpt>
      <trkpt lat="45.63115" lon="5.05561">
        <ele>275</ele>
        <time>2017-04-30T07:51:10Z</time>
      </trkpt>
      <trkpt lat="45.63115" lon="5.05561">
        <ele>275</ele>
        <time>2017-04-30T07:51:11Z</time>
      </trkpt>
      <trkpt lat="45.6312" lon="5.05543">
        <ele>275</ele>
        <time>2017-04-30T07:51:28Z</time>
      </trkpt>
      <trkpt lat="45.63117" lon="5.05526">
        <ele>275</ele>
        <time>2017-04-30T07:51:42Z</time>
      </trkpt>
      <trkpt lat="45.63117" lon="5.05522">
        <ele>274.9921875</ele>
        <time>2017-04-30T07:51:46Z</time>
      </trkpt>
      <trkpt lat="45.63124" lon="5.05504">
        <ele>274.8984375</ele>
        <time>2017-04-30T07:51:59Z</time>
      </trkpt>
      <trkpt lat="45.63133" lon="5.05487">
        <ele>274.6953125</ele>
        <time>2017-04-30T07:52:14Z</time>
      </trkpt>
      <trkpt lat="45.63139" lon="5.05472">
        <ele>274.47265625</ele>
        <time>2017-04-30T07:52:28Z</time>
      </trkpt>
      <trkpt lat="45.63147" lon="5.05464">
        <ele>274.2109375</ele>
        <time>2017-04-30T07:52:42Z</time>
      </trkpt>
      <trkpt lat="45.63152" lon="5.05457">
        <ele>273.9921875</ele>
        <time>2017-04-30T07:52:49Z</time>
      </trkpt>
      <trkpt lat="45.6316" lon="5.05443">
        <ele>273.58984375</ele>
        <time>2017-04-30T07:53:02Z</time>
      </trkpt>
      <trkpt lat="45.63145" lon="5.05445">
        <ele>273.890625</ele>
        <time>2017-04-30T07:53:16Z</time>
      </trkpt>
      <trkpt lat="45.63141" lon="5.05446">
        <ele>273.984375</ele>
        <time>2017-04-30T07:53:20Z</time>
      </trkpt>
      <trkpt lat="45.63128" lon="5.0545">
        <ele>274.30859375</ele>
        <time>2017-04-30T07:53:36Z</time>
      </trkpt>
      <trkpt lat="45.63118" lon="5.05457">
        <ele>274.59375</ele>
        <time>2017-04-30T07:53:45Z</time>
      </trkpt>
      <trkpt lat="45.63107" lon="5.05477">
        <ele>275.00390625</ele>
        <time>2017-04-30T07:53:59Z</time>
      </trkpt>
      <trkpt lat="45.63098" lon="5.05491">
        <ele>275.0703125</ele>
        <time>2017-04-30T07:54:12Z</time>
      </trkpt>
      <trkpt lat="45.63085" lon="5.05484">
        <ele>275.109375</ele>
        <time>2017-04-30T07:54:25Z</time>
      </trkpt>
      <trkpt lat="45.63069" lon="5.05479">
        <ele>275.109375</ele>
        <time>2017-04-30T07:54:42Z</time>
      </trkpt>
      <trkpt lat="45.63055" lon="5.05474">
        <ele>275.06640625</ele>
        <time>2017-04-30T07:54:55Z</time>
      </trkpt>
      <trkpt lat="45.63043" lon="5.05471">
        <ele>275.203125</ele>
        <time>2017-04-30T07:55:06Z</time>
      </trkpt>
      <trkpt lat="45.63031" lon="5.05467">
        <ele>275.34765625</ele>
        <time>2017-04-30T07:55:19Z</time>
      </trkpt>
      <trkpt lat="45.63019" lon="5.05465">
        <ele>275.52734375</ele>
        <time>2017-04-30T07:55:30Z</time>
      </trkpt>
      <trkpt lat="45.63016" lon="5.05464">
        <ele>275.5625</ele>
        <time>2017-04-30T07:55:33Z</time>
      </trkpt>
      <trkpt lat="45.63013" lon="5.05464">
        <ele>275.609375</ele>
        <time>2017-04-30T07:55:36Z</time>
      </trkpt>
      <trkpt lat="45.63001" lon="5.05461">
        <ele>275.7734375</ele>
        <time>2017-04-30T07:55:47Z</time>
      </trkpt>
      <trkpt lat="45.6299" lon="5.05457">
        <ele>275.90625</ele>
        <time>2017-04-30T07:55:58Z</time>
      </trkpt>
      <trkpt lat="45.62978" lon="5.05453">
        <ele>276.0546875</ele>
        <time>2017-04-30T07:56:10Z</time>
      </trkpt>
      <trkpt lat="45.62966" lon="5.0545">
        <ele>276.21484375</ele>
        <time>2017-04-30T07:56:23Z</time>
      </trkpt>
      <trkpt lat="45.62952" lon="5.05444">
        <ele>276.34765625</ele>
        <time>2017-04-30T07:56:37Z</time>
      </trkpt>
      <trkpt lat="45.62951" lon="5.05452">
        <ele>276.52734375</ele>
        <time>2017-04-30T07:56:44Z</time>
      </trkpt>
      <trkpt lat="45.62949" lon="5.05457">
        <ele>276.65234375</ele>
        <time>2017-04-30T07:56:48Z</time>
      </trkpt>
      <trkpt lat="45.62948" lon="5.0546">
        <ele>276.71875</ele>
        <time>2017-04-30T07:56:50Z</time>
      </trkpt>
      <trkpt lat="45.62947" lon="5.05466">
        <ele>276.84375</ele>
        <time>2017-04-30T07:56:53Z</time>
      </trkpt>
      <trkpt lat="45.62946" lon="5.05472">
        <ele>276.97265625</ele>
        <time>2017-04-30T07:56:56Z</time>
      </trkpt>
      <trkpt lat="45.62944" lon="5.05485">
        <ele>277.21484375</ele>
        <time>2017-04-30T07:57:03Z</time>
      </trkpt>
      <trkpt lat="45.62942" lon="5.05508">
        <ele>277.71484375</ele>
        <time>2017-04-30T07:57:18Z</time>
      </trkpt>
      <trkpt lat="45.62941" lon="5.05527">
        <ele>278.06640625</ele>
        <time>2017-04-30T07:57:30Z</time>
      </trkpt>
      <trkpt lat="45.6294" lon="5.05531">
        <ele>278.109375</ele>
        <time>2017-04-30T07:57:33Z</time>
      </trkpt>
      <trkpt lat="45.62939" lon="5.0555">
        <ele>278.1953125</ele>
        <time>2017-04-30T07:57:45Z</time>
      </trkpt>
      <trkpt lat="45.62937" lon="5.05566">
        <ele>278.31640625</ele>
        <time>2017-04-30T07:57:56Z</time>
      </trkpt>
      <trkpt lat="45.62936" lon="5.05582">
        <ele>278.34765625</ele>
        <time>2017-04-30T07:58:06Z</time>
      </trkpt>
      <trkpt lat="45.62934" lon="5.05598">
        <ele>278.4140625</ele>
        <time>2017-04-30T07:58:18Z</time>
      </trkpt>
      <trkpt lat="45.62931" lon="5.05604">
        <ele>278.61328125</ele>
        <time>2017-04-30T07:58:31Z</time>
      </trkpt>
      <trkpt lat="45.62925" lon="5.05618">
        <ele>278.90625</ele>
        <time>2017-04-30T07:58:42Z</time>
      </trkpt>
      <trkpt lat="45.62923" lon="5.05636">
        <ele>279.0546875</ele>
        <time>2017-04-30T07:58:52Z</time>
      </trkpt>
      <trkpt lat="45.62919" lon="5.05658">
        <ele>279.46484375</ele>
        <time>2017-04-30T07:59:06Z</time>
      </trkpt>
      <trkpt lat="45.62918" lon="5.05666">
        <ele>279.578125</ele>
        <time>2017-04-30T07:59:11Z</time>
      </trkpt>
      <trkpt lat="45.62917" lon="5.0567">
        <ele>279.671875</ele>
        <time>2017-04-30T07:59:14Z</time>
      </trkpt>
      <trkpt lat="45.62914" lon="5.05692">
        <ele>280.0234375</ele>
        <time>2017-04-30T07:59:27Z</time>
      </trkpt>
      <trkpt lat="45.62911" lon="5.05709">
        <ele>280.11328125</ele>
        <time>2017-04-30T07:59:40Z</time>
      </trkpt>
      <trkpt lat="45.62909" lon="5.05726">
        <ele>280.1796875</ele>
        <time>2017-04-30T07:59:52Z</time>
      </trkpt>
      <trkpt lat="45.62909" lon="5.05728">
        <ele>280.1875</ele>
        <time>2017-04-30T07:59:53Z</time>
      </trkpt>
      <trkpt lat="45.62903" lon="5.05736">
        <ele>280.39453125</ele>
        <time>2017-04-30T08:00:01Z</time>
      </trkpt>
      <trkpt lat="45.62902" lon="5.05737">
        <ele>280.45703125</ele>
        <time>2017-04-30T08:00:03Z</time>
      </trkpt>
      <trkpt lat="45.62899" lon="5.05737">
        <ele>280.55859375</ele>
        <time>2017-04-30T08:00:06Z</time>
      </trkpt>
      <trkpt lat="45.62883" lon="5.05742">
        <ele>281.5078125</ele>
        <time>2017-04-30T08:00:20Z</time>
      </trkpt>
      <trkpt lat="45.62878" lon="5.05748">
        <ele>282.19921875</ele>
        <time>2017-04-30T08:00:25Z</time>
      </trkpt>
      <trkpt lat="45.62873" lon="5.05759">
        <ele>283.1015625</ele>
        <time>2017-04-30T08:00:33Z</time>
      </trkpt>
      <trkpt lat="45.62869" lon="5.05761">
        <ele>283.734375</ele>
        <time>2017-04-30T08:00:38Z</time>
      </trkpt>
      <trkpt lat="45.62854" lon="5.05753">
        <ele>285.76953125</ele>
        <time>2017-04-30T08:00:52Z</time>
      </trkpt>
      <trkpt lat="45.62841" lon="5.05746">
        <ele>287.53515625</ele>
        <time>2017-04-30T08:01:04Z</time>
      </trkpt>
      <trkpt lat="45.62839" lon="5.05744">
        <ele>287.9140625</ele>
        <time>2017-04-30T08:01:07Z</time>
      </trkpt>
      <trkpt lat="45.62827" lon="5.05737">
        <ele>289.9375</ele>
        <time>2017-04-30T08:01:18Z</time>
      </trkpt>
      <trkpt lat="45.62824" lon="5.05736">
        <ele>290.41015625</ele>
        <time>2017-04-30T08:01:20Z</time>
      </trkpt>
      <trkpt lat="45.62822" lon="5.05734">
        <ele>290.84375</ele>
        <time>2017-04-30T08:01:22Z</time>
      </trkpt>
      <trkpt lat="45.62814" lon="5.05723">
        <ele>292.5703125</ele>
        <time>2017-04-30T08:01:34Z</time>
      </trkpt>
      <trkpt lat="45.62813" lon="5.05718">
        <ele>292.64453125</ele>
        <time>2017-04-30T08:01:38Z</time>
      </trkpt>
      <trkpt lat="45.62815" lon="5.05709">
        <ele>292.2734375</ele>
        <time>2017-04-30T08:01:45Z</time>
      </trkpt>
      <trkpt lat="45.62816" lon="5.05704">
        <ele>291.96484375</ele>
        <time>2017-04-30T08:01:48Z</time>
      </trkpt>
      <trkpt lat="45.62817" lon="5.05694">
        <ele>291.88671875</ele>
        <time>2017-04-30T08:01:54Z</time>
      </trkpt>
      <trkpt lat="45.62817" lon="5.05681">
        <ele>291.953125</ele>
        <time>2017-04-30T08:02:02Z</time>
      </trkpt>
      <trkpt lat="45.62819" lon="5.05668">
        <ele>291.734375</ele>
        <time>2017-04-30T08:02:10Z</time>
      </trkpt>
      <trkpt lat="45.62818" lon="5.05662">
        <ele>291.95703125</ele>
        <time>2017-04-30T08:02:14Z</time>
      </trkpt>
      <trkpt lat="45.62819" lon="5.05646">
        <ele>291.9921875</ele>
        <time>2017-04-30T08:02:25Z</time>
      </trkpt>
      <trkpt lat="45.62819" lon="5.05641">
        <ele>292.16796875</ele>
        <time>2017-04-30T08:02:28Z</time>
      </trkpt>
      <trkpt lat="45.62816" lon="5.05624">
        <ele>292.73046875</ele>
        <time>2017-04-30T08:02:40Z</time>
      </trkpt>
      <trkpt lat="45.62812" lon="5.05607">
        <ele>293.37109375</ele>
        <time>2017-04-30T08:02:51Z</time>
      </trkpt>
      <trkpt lat="45.62812" lon="5.05604">
        <ele>293.50390625</ele>
        <time>2017-04-30T08:02:54Z</time>
      </trkpt>
      <trkpt lat="45.6281" lon="5.05599">
        <ele>293.71484375</ele>
        <time>2017-04-30T08:02:57Z</time>
      </trkpt>
      <trkpt lat="45.62807" lon="5.05583">
        <ele>294.3046875</ele>
        <time>2017-04-30T08:03:08Z</time>
      </trkpt>
      <trkpt lat="45.62806" lon="5.05579">
        <ele>294.51171875</ele>
        <time>2017-04-30T08:03:12Z</time>
      </trkpt>
      <trkpt lat="45.62805" lon="5.05567">
        <ele>294.8828125</ele>
        <time>2017-04-30T08:03:22Z</time>
      </trkpt>
      <trkpt lat="45.62803" lon="5.05547">
        <ele>295.68359375</ele>
        <time>2017-04-30T08:03:36Z</time>
      </trkpt>
      <trkpt lat="45.62802" lon="5.05545">
        <ele>295.82421875</ele>
        <time>2017-04-30T08:03:38Z</time>
      </trkpt>
      <trkpt lat="45.62804" lon="5.05542">
        <ele>295.62109375</ele>
        <time>2017-04-30T08:03:40Z</time>
      </trkpt>
      <trkpt lat="45.62807" lon="5.05529">
        <ele>295.19140625</ele>
        <time>2017-04-30T08:03:51Z</time>
      </trkpt>
      <trkpt lat="45.62813" lon="5.05515">
        <ele>294.2734375</ele>
        <time>2017-04-30T08:04:02Z</time>
      </trkpt>
      <trkpt lat="45.62815" lon="5.05512">
        <ele>294.11328125</ele>
        <time>2017-04-30T08:04:05Z</time>
      </trkpt>
      <trkpt lat="45.62821" lon="5.05489">
        <ele>292.98828125</ele>
        <time>2017-04-30T08:04:20Z</time>
      </trkpt>
      <trkpt lat="45.62822" lon="5.05487">
        <ele>292.94921875</ele>
        <time>2017-04-30T08:04:22Z</time>
      </trkpt>
      <trkpt lat="45.62822" lon="5.05472">
        <ele>292.8828125</ele>
        <time>2017-04-30T08:04:31Z</time>
      </trkpt>
      <trkpt lat="45.6282" lon="5.05458">
        <ele>293.62109375</ele>
        <time>2017-04-30T08:04:41Z</time>
      </trkpt>
      <trkpt lat="45.62814" lon="5.05436">
        <ele>295.55078125</ele>
        <time>2017-04-30T08:04:53Z</time>
      </trkpt>
      <trkpt lat="45.62811" lon="5.05421">
        <ele>296.55078125</ele>
        <time>2017-04-30T08:05:04Z</time>
      </trkpt>
      <trkpt lat="45.62811" lon="5.05419">
        <ele>296.625</ele>
        <time>2017-04-30T08:05:05Z</time>
      </trkpt>
      <trkpt lat="45.62809" lon="5.05415">
        <ele>297.0625</ele>
        <time>2017-04-30T08:05:08Z</time>
      </trkpt>
      <trkpt lat="45.62809" lon="5.05412">
        <ele>297.140625</ele>
        <time>2017-04-30T08:05:10Z</time>
      </trkpt>
      <trkpt lat="45.62808" lon="5.05408">
        <ele>297.3359375</ele>
        <time>2017-04-30T08:05:13Z</time>
      </trkpt>
      <trkpt lat="45.62808" lon="5.05402">
        <ele>297.4765625</ele>
        <time>2017-04-30T08:05:17Z</time>
      </trkpt>
      <trkpt lat="45.62807" lon="5.05387">
        <ele>297.74609375</ele>
        <time>2017-04-30T08:05:27Z</time>
      </trkpt>
      <trkpt lat="45.62806" lon="5.05367">
        <ele>298.28515625</ele>
        <time>2017-04-30T08:05:39Z</time>
      </trkpt>
      <trkpt lat="45.62804" lon="5.05347">
        <ele>298.8671875</ele>
        <time>2017-04-30T08:05:51Z</time>
      </trkpt>
      <trkpt lat="45.62803" lon="5.0534">
        <ele>298.9921875</ele>
        <time>2017-04-30T08:05:56Z</time>
      </trkpt>
      <trkpt lat="45.62799" lon="5.05318">
        <ele>300.01953125</ele>
        <time>2017-04-30T08:06:11Z</time>
      </trkpt>
      <trkpt lat="45.62795" lon="5.05301">
        <ele>301.06640625</ele>
        <time>2017-04-30T08:06:23Z</time>
      </trkpt>
      <trkpt lat="45.62791" lon="5.05296">
        <ele>302.2109375</ele>
        <time>2017-04-30T08:06:31Z</time>
      </trkpt>
      <trkpt lat="45.62782" lon="5.05284">
        <ele>304.328125</ele>
        <time>2017-04-30T08:06:43Z</time>
      </trkpt>
      <trkpt lat="45.62774" lon="5.05279">
        <ele>306.328125</ele>
        <time>2017-04-30T08:06:55Z</time>
      </trkpt>
      <trkpt lat="45.62767" lon="5.05271">
        <ele>308.203125</ele>
        <time>2017-04-30T08:07:06Z</time>
      </trkpt>
      <trkpt lat="45.62766" lon="5.05271">
        <ele>308.453125</ele>
        <time>2017-04-30T08:07:07Z</time>
      </trkpt>
      <trkpt lat="45.62757" lon="5.05265">
        <ele>310.7890625</ele>
        <time>2017-04-30T08:07:20Z</time>
      </trkpt>
      <trkpt lat="45.62754" lon="5.05264">
        <ele>311.58203125</ele>
        <time>2017-04-30T08:07:24Z</time>
      </trkpt>
      <trkpt lat="45.62744" lon="5.05269">
        <ele>314.13671875</ele>
        <time>2017-04-30T08:07:37Z</time>
      </trkpt>
      <trkpt lat="45.62739" lon="5.05268">
        <ele>315.4296875</ele>
        <time>2017-04-30T08:07:42Z</time>
      </trkpt>
      <trkpt lat="45.62729" lon="5.05264">
        <ele>317.94921875</ele>
        <time>2017-04-30T08:07:52Z</time>
      </trkpt>
      <trkpt lat="45.62719" lon="5.05258">
        <ele>320.234375</ele>
        <time>2017-04-30T08:08:05Z</time>
      </trkpt>
      <trkpt lat="45.62711" lon="5.05259">
        <ele>320.70703125</ele>
        <time>2017-04-30T08:08:16Z</time>
      </trkpt>
      <trkpt lat="45.62703" lon="5.05265">
        <ele>321.21484375</ele>
        <time>2017-04-30T08:08:25Z</time>
      </trkpt>
      <trkpt lat="45.62697" lon="5.05272">
        <ele>321.6953125</ele>
        <time>2017-04-30T08:08:37Z</time>
      </trkpt>
      <trkpt lat="45.62695" lon="5.0528">
        <ele>321.921875</ele>
        <time>2017-04-30T08:08:43Z</time>
      </trkpt>
      <trkpt lat="45.62692" lon="5.05282">
        <ele>322.1328125</ele>
        <time>2017-04-30T08:08:47Z</time>
      </trkpt>
      <trkpt lat="45.62682" lon="5.0529">
        <ele>322.80078125</ele>
        <time>2017-04-30T08:08:58Z</time>
      </trkpt>
      <trkpt lat="45.62682" lon="5.0529">
        <ele>322.79296875</ele>
        <time>2017-04-30T08:09:02Z</time>
      </trkpt>
      <trkpt lat="45.62682" lon="5.05278">
        <ele>322.58984375</ele>
        <time>2017-04-30T08:09:16Z</time>
      </trkpt>
      <trkpt lat="45.62682" lon="5.05265">
        <ele>322.37109375</ele>
        <time>2017-04-30T08:09:28Z</time>
      </trkpt>
      <trkpt lat="45.62682" lon="5.05242">
        <ele>321.83984375</ele>
        <time>2017-04-30T08:09:42Z</time>
      </trkpt>
      <trkpt lat="45.62683" lon="5.05235">
        <ele>321.52734375</ele>
        <time>2017-04-30T08:09:47Z</time>
      </trkpt>
      <trkpt lat="45.62685" lon="5.05225">
        <ele>321.078125</ele>
        <time>2017-04-30T08:09:53Z</time>
      </trkpt>
      <trkpt lat="45.62685" lon="5.05222">
        <ele>320.953125</ele>
        <time>2017-04-30T08:09:55Z</time>
      </trkpt>
      <trkpt lat="45.62686" lon="5.05214">
        <ele>320.62890625</ele>
        <time>2017-04-30T08:10:00Z</time>
      </trkpt>
      <trkpt lat="45.62686" lon="5.05192">
        <ele>319.81640625</ele>
        <time>2017-04-30T08:10:14Z</time>
      </trkpt>
      <trkpt lat="45.62687" lon="5.05176">
        <ele>319.77734375</ele>
        <time>2017-04-30T08:10:25Z</time>
      </trkpt>
      <trkpt lat="45.62686" lon="5.0517">
        <ele>319.85546875</ele>
        <time>2017-04-30T08:10:30Z</time>
      </trkpt>
      <trkpt lat="45.62685" lon="5.05166">
        <ele>319.8671875</ele>
        <time>2017-04-30T08:10:32Z</time>
      </trkpt>
      <trkpt lat="45.62685" lon="5.0516">
        <ele>319.90234375</ele>
        <time>2017-04-30T08:10:36Z</time>
      </trkpt>
      <trkpt lat="45.62684" lon="5.05154">
        <ele>319.93359375</ele>
        <time>2017-04-30T08:10:41Z</time>
      </trkpt>
      <trkpt lat="45.62682" lon="5.05148">
        <ele>320.04296875</ele>
        <time>2017-04-30T08:10:45Z</time>
      </trkpt>
      <trkpt lat="45.62682" lon="5.05145">
        <ele>320.06640625</ele>
        <time>2017-04-30T08:10:47Z</time>
      </trkpt>
      <trkpt lat="45.62682" lon="5.0514">
        <ele>320.0625</ele>
        <time>2017-04-30T08:10:50Z</time>
      </trkpt>
      <trkpt lat="45.62681" lon="5.05131">
        <ele>320.12890625</ele>
        <time>2017-04-30T08:10:57Z</time>
      </trkpt>
      <trkpt lat="45.62678" lon="5.05113">
        <ele>320.2578125</ele>
        <time>2017-04-30T08:11:08Z</time>
      </trkpt>
      <trkpt lat="45.62679" lon="5.05109">
        <ele>320.2265625</ele>
        <time>2017-04-30T08:11:11Z</time>
      </trkpt>
      <trkpt lat="45.62678" lon="5.05102">
        <ele>320.25390625</ele>
        <time>2017-04-30T08:11:16Z</time>
      </trkpt>
      <trkpt lat="45.62676" lon="5.05085">
        <ele>320.3671875</ele>
        <time>2017-04-30T08:11:27Z</time>
      </trkpt>
      <trkpt lat="45.62675" lon="5.05067">
        <ele>320.35546875</ele>
        <time>2017-04-30T08:11:39Z</time>
      </trkpt>
      <trkpt lat="45.62674" lon="5.05053">
        <ele>320.3984375</ele>
        <time>2017-04-30T08:11:48Z</time>
      </trkpt>
      <trkpt lat="45.62673" lon="5.05035">
        <ele>320.43359375</ele>
        <time>2017-04-30T08:12:01Z</time>
      </trkpt>
      <trkpt lat="45.62672" lon="5.05016">
        <ele>320.30859375</ele>
        <time>2017-04-30T08:12:13Z</time>
      </trkpt>
      <trkpt lat="45.62671" lon="5.05">
        <ele>320.03125</ele>
        <time>2017-04-30T08:12:24Z</time>
      </trkpt>
      <trkpt lat="45.62671" lon="5.04996">
        <ele>319.9765625</ele>
        <time>2017-04-30T08:12:26Z</time>
      </trkpt>
      <trkpt lat="45.62672" lon="5.04989">
        <ele>319.8125</ele>
        <time>2017-04-30T08:12:31Z</time>
      </trkpt>
      <trkpt lat="45.6267" lon="5.04979">
        <ele>319.75390625</ele>
        <time>2017-04-30T08:12:38Z</time>
      </trkpt>
      <trkpt lat="45.62671" lon="5.04967">
        <ele>319.484375</ele>
        <time>2017-04-30T08:12:45Z</time>
      </trkpt>
      <trkpt lat="45.62672" lon="5.0495">
        <ele>319.1171875</ele>
        <time>2017-04-30T08:12:57Z</time>
      </trkpt>
      <trkpt lat="45.62671" lon="5.04948">
        <ele>319.11328125</ele>
        <time>2017-04-30T08:12:59Z</time>
      </trkpt>
      <trkpt lat="45.62672" lon="5.04927">
        <ele>318.66015625</ele>
        <time>2017-04-30T08:13:11Z</time>
      </trkpt>
      <trkpt lat="45.62672" lon="5.04915">
        <ele>318.421875</ele>
        <time>2017-04-30T08:13:18Z</time>
      </trkpt>
      <trkpt lat="45.62674" lon="5.04902">
        <ele>317.68359375</ele>
        <time>2017-04-30T08:13:25Z</time>
      </trkpt>
      <trkpt lat="45.62673" lon="5.04895">
        <ele>317.37109375</ele>
        <time>2017-04-30T08:13:29Z</time>
      </trkpt>
      <trkpt lat="45.62673" lon="5.0489">
        <ele>317.1484375</ele>
        <time>2017-04-30T08:13:32Z</time>
      </trkpt>
      <trkpt lat="45.62673" lon="5.0488">
        <ele>316.640625</ele>
        <time>2017-04-30T08:13:38Z</time>
      </trkpt>
      <trkpt lat="45.62672" lon="5.04865">
        <ele>315.87890625</ele>
        <time>2017-04-30T08:13:47Z</time>
      </trkpt>
      <trkpt lat="45.62673" lon="5.04858">
        <ele>315.5</ele>
        <time>2017-04-30T08:13:51Z</time>
      </trkpt>
      <trkpt lat="45.62672" lon="5.04841">
        <ele>314.7578125</ele>
        <time>2017-04-30T08:14:02Z</time>
      </trkpt>
      <trkpt lat="45.62673" lon="5.04835">
        <ele>314.46875</ele>
        <time>2017-04-30T08:14:07Z</time>
      </trkpt>
      <trkpt lat="45.62674" lon="5.04828">
        <ele>314.078125</ele>
        <time>2017-04-30T08:14:12Z</time>
      </trkpt>
      <trkpt lat="45.62674" lon="5.04824">
        <ele>313.9296875</ele>
        <time>2017-04-30T08:14:14Z</time>
      </trkpt>
      <trkpt lat="45.62675" lon="5.04811">
        <ele>313.3125</ele>
        <time>2017-04-30T08:14:22Z</time>
      </trkpt>
      <trkpt lat="45.62676" lon="5.04801">
        <ele>312.97265625</ele>
        <time>2017-04-30T08:14:27Z</time>
      </trkpt>
      <trkpt lat="45.62677" lon="5.04795">
        <ele>312.921875</ele>
        <time>2017-04-30T08:14:30Z</time>
      </trkpt>
      <trkpt lat="45.6268" lon="5.04772">
        <ele>312.75</ele>
        <time>2017-04-30T08:14:43Z</time>
      </trkpt>
      <trkpt lat="45.6268" lon="5.0477">
        <ele>312.73828125</ele>
        <time>2017-04-30T08:14:44Z</time>
      </trkpt>
      <trkpt lat="45.62682" lon="5.04757">
        <ele>312.6796875</ele>
        <time>2017-04-30T08:14:52Z</time>
      </trkpt>
      <trkpt lat="45.62682" lon="5.04738">
        <ele>312.84765625</ele>
        <time>2017-04-30T08:15:03Z</time>
      </trkpt>
      <trkpt lat="45.62683" lon="5.04726">
        <ele>313.2109375</ele>
        <time>2017-04-30T08:15:11Z</time>
      </trkpt>
      <trkpt lat="45.62683" lon="5.0472">
        <ele>313.34765625</ele>
        <time>2017-04-30T08:15:15Z</time>
      </trkpt>
      <trkpt lat="45.62685" lon="5.04703">
        <ele>313.8671875</ele>
        <time>2017-04-30T08:15:27Z</time>
      </trkpt>
      <trkpt lat="45.62686" lon="5.04701">
        <ele>313.9296875</ele>
        <time>2017-04-30T08:15:28Z</time>
      </trkpt>
      <trkpt lat="45.62686" lon="5.04697">
        <ele>314.03125</ele>
        <time>2017-04-30T08:15:30Z</time>
      </trkpt>
      <trkpt lat="45.62688" lon="5.04687">
        <ele>314.55859375</ele>
        <time>2017-04-30T08:15:37Z</time>
      </trkpt>
      <trkpt lat="45.6269" lon="5.04671">
        <ele>315.546875</ele>
        <time>2017-04-30T08:15:48Z</time>
      </trkpt>
      <trkpt lat="45.6269" lon="5.04667">
        <ele>315.77734375</ele>
        <time>2017-04-30T08:15:51Z</time>
      </trkpt>
      <trkpt lat="45.62691" lon="5.04652">
        <ele>316.625</ele>
        <time>2017-04-30T08:16:02Z</time>
      </trkpt>
      <trkpt lat="45.62691" lon="5.04648">
        <ele>316.8515625</ele>
        <time>2017-04-30T08:16:05Z</time>
      </trkpt>
      <trkpt lat="45.62694" lon="5.04634">
        <ele>317.8125</ele>
        <time>2017-04-30T08:16:16Z</time>
      </trkpt>
      <trkpt lat="45.62694" lon="5.04633">
        <ele>317.91796875</ele>
        <time>2017-04-30T08:16:17Z</time>
      </trkpt>
      <trkpt lat="45.62693" lon="5.0463">
        <ele>318.1328125</ele>
        <time>2017-04-30T08:16:19Z</time>
      </trkpt>
      <trkpt lat="45.62694" lon="5.04612">
        <ele>319.64453125</ele>
        <time>2017-04-30T08:16:33Z</time>
      </trkpt>
      <trkpt lat="45.62694" lon="5.0461">
        <ele>319.8359375</ele>
        <time>2017-04-30T08:16:35Z</time>
      </trkpt>
      <trkpt lat="45.62696" lon="5.04598">
        <ele>320.94921875</ele>
        <time>2017-04-30T08:16:42Z</time>
      </trkpt>
      <trkpt lat="45.62699" lon="5.04582">
        <ele>322.44921875</ele>
        <time>2017-04-30T08:16:55Z</time>
      </trkpt>
      <trkpt lat="45.62702" lon="5.04567">
        <ele>323.484375</ele>
        <time>2017-04-30T08:17:08Z</time>
      </trkpt>
      <trkpt lat="45.62704" lon="5.04547">
        <ele>324.71875</ele>
        <time>2017-04-30T08:17:22Z</time>
      </trkpt>
      <trkpt lat="45.62708" lon="5.04533">
        <ele>325.7734375</ele>
        <time>2017-04-30T08:17:33Z</time>
      </trkpt>
      <trkpt lat="45.6271" lon="5.04518">
        <ele>326.71484375</ele>
        <time>2017-04-30T08:17:43Z</time>
      </trkpt>
      <trkpt lat="45.62714" lon="5.04503">
        <ele>327.765625</ele>
        <time>2017-04-30T08:17:53Z</time>
      </trkpt>
      <trkpt lat="45.62715" lon="5.04499">
        <ele>328.078125</ele>
        <time>2017-04-30T08:17:56Z</time>
      </trkpt>
      <trkpt lat="45.62718" lon="5.04484">
        <ele>329.140625</ele>
        <time>2017-04-30T08:18:07Z</time>
      </trkpt>
      <trkpt lat="45.62718" lon="5.04481">
        <ele>329.296875</ele>
        <time>2017-04-30T08:18:09Z</time>
      </trkpt>
      <trkpt lat="45.6272" lon="5.04474">
        <ele>329.796875</ele>
        <time>2017-04-30T08:18:14Z</time>
      </trkpt>
      <trkpt lat="45.62723" lon="5.04458">
        <ele>330.265625</ele>
        <time>2017-04-30T08:18:27Z</time>
      </trkpt>
      <trkpt lat="45.62727" lon="5.0444">
        <ele>330.671875</ele>
        <time>2017-04-30T08:18:40Z</time>
      </trkpt>
      <trkpt lat="45.6273" lon="5.04432">
        <ele>330.87109375</ele>
        <time>2017-04-30T08:18:45Z</time>
      </trkpt>
      <trkpt lat="45.62731" lon="5.04427">
        <ele>330.98046875</ele>
        <time>2017-04-30T08:18:48Z</time>
      </trkpt>
      <trkpt lat="45.62734" lon="5.04415">
        <ele>331.2578125</ele>
        <time>2017-04-30T08:18:55Z</time>
      </trkpt>
      <trkpt lat="45.62737" lon="5.04406">
        <ele>331.30859375</ele>
        <time>2017-04-30T08:19:01Z</time>
      </trkpt>
      <trkpt lat="45.62742" lon="5.04385">
        <ele>331.3984375</ele>
        <time>2017-04-30T08:19:14Z</time>
      </trkpt>
      <trkpt lat="45.62742" lon="5.04384">
        <ele>331.3984375</ele>
        <time>2017-04-30T08:19:15Z</time>
      </trkpt>
      <trkpt lat="45.62747" lon="5.04366">
        <ele>331.48046875</ele>
        <time>2017-04-30T08:19:26Z</time>
      </trkpt>
      <trkpt lat="45.6275" lon="5.04352">
        <ele>331.546875</ele>
        <time>2017-04-30T08:19:36Z</time>
      </trkpt>
      <trkpt lat="45.62753" lon="5.04341">
        <ele>331.59765625</ele>
        <time>2017-04-30T08:19:43Z</time>
      </trkpt>
      <trkpt lat="45.62756" lon="5.04333">
        <ele>331.640625</ele>
        <time>2017-04-30T08:19:48Z</time>
      </trkpt>
      <trkpt lat="45.62763" lon="5.0432">
        <ele>331.76953125</ele>
        <time>2017-04-30T08:20:00Z</time>
      </trkpt>
      <trkpt lat="45.62767" lon="5.0432">
        <ele>331.83984375</ele>
        <time>2017-04-30T08:20:03Z</time>
      </trkpt>
      <trkpt lat="45.62771" lon="5.04322">
        <ele>331.9140625</ele>
        <time>2017-04-30T08:20:06Z</time>
      </trkpt>
      <trkpt lat="45.62785" lon="5.0433">
        <ele>332.18359375</ele>
        <time>2017-04-30T08:20:19Z</time>
      </trkpt>
      <trkpt lat="45.62787" lon="5.04332">
        <ele>332.203125</ele>
        <time>2017-04-30T08:20:21Z</time>
      </trkpt>
      <trkpt lat="45.62791" lon="5.04334">
        <ele>332.24609375</ele>
        <time>2017-04-30T08:20:24Z</time>
      </trkpt>
      <trkpt lat="45.62799" lon="5.04338">
        <ele>332.3359375</ele>
        <time>2017-04-30T08:20:32Z</time>
      </trkpt>
      <trkpt lat="45.62819" lon="5.04345">
        <ele>332.40625</ele>
        <time>2017-04-30T08:20:45Z</time>
      </trkpt>
      <trkpt lat="45.62828" lon="5.04347">
        <ele>332.4296875</ele>
        <time>2017-04-30T08:20:55Z</time>
      </trkpt>
      <trkpt lat="45.62834" lon="5.04348">
        <ele>332.43359375</ele>
        <time>2017-04-30T08:21:02Z</time>
      </trkpt>
      <trkpt lat="45.62842" lon="5.04339">
        <ele>332.90625</ele>
        <time>2017-04-30T08:21:11Z</time>
      </trkpt>
      <trkpt lat="45.62847" lon="5.04331">
        <ele>333.3203125</ele>
        <time>2017-04-30T08:21:17Z</time>
      </trkpt>
      <trkpt lat="45.62852" lon="5.04315">
        <ele>334.20703125</ele>
        <time>2017-04-30T08:21:28Z</time>
      </trkpt>
      <trkpt lat="45.6286" lon="5.04295">
        <ele>335.11328125</ele>
        <time>2017-04-30T08:21:42Z</time>
      </trkpt>
      <trkpt lat="45.62868" lon="5.04273">
        <ele>335.6796875</ele>
        <time>2017-04-30T08:21:56Z</time>
      </trkpt>
      <trkpt lat="45.62873" lon="5.04262">
        <ele>336.0859375</ele>
        <time>2017-04-30T08:22:09Z</time>
      </trkpt>
      <trkpt lat="45.62879" lon="5.04251">
        <ele>336.55078125</ele>
        <time>2017-04-30T08:22:28Z</time>
      </trkpt>
      <trkpt lat="45.6288" lon="5.04248">
        <ele>336.6484375</ele>
        <time>2017-04-30T08:22:30Z</time>
      </trkpt>
      <trkpt lat="45.62881" lon="5.04245">
        <ele>336.8046875</ele>
        <time>2017-04-30T08:22:32Z</time>
      </trkpt>
      <trkpt lat="45.62883" lon="5.04227">
        <ele>337.5703125</ele>
        <time>2017-04-30T08:22:44Z</time>
      </trkpt>
      <trkpt lat="45.62891" lon="5.04211">
        <ele>338.56640625</ele>
        <time>2017-04-30T08:22:55Z</time>
      </trkpt>
      <trkpt lat="45.62902" lon="5.04196">
        <ele>339.72265625</ele>
        <time>2017-04-30T08:23:08Z</time>
      </trkpt>
      <trkpt lat="45.62912" lon="5.04179">
        <ele>340.84375</ele>
        <time>2017-04-30T08:23:20Z</time>
      </trkpt>
      <trkpt lat="45.6292" lon="5.04165">
        <ele>341.81640625</ele>
        <time>2017-04-30T08:23:31Z</time>
      </trkpt>
      <trkpt lat="45.62921" lon="5.04162">
        <ele>341.9375</ele>
        <time>2017-04-30T08:23:33Z</time>
      </trkpt>
      <trkpt lat="45.62923" lon="5.04151">
        <ele>342.4921875</ele>
        <time>2017-04-30T08:23:41Z</time>
      </trkpt>
      <trkpt lat="45.62929" lon="5.04135">
        <ele>343.34765625</ele>
        <time>2017-04-30T08:23:53Z</time>
      </trkpt>
      <trkpt lat="45.62935" lon="5.04119">
        <ele>343.89453125</ele>
        <time>2017-04-30T08:24:04Z</time>
      </trkpt>
      <trkpt lat="45.62944" lon="5.04102">
        <ele>344.6953125</ele>
        <time>2017-04-30T08:24:16Z</time>
      </trkpt>
      <trkpt lat="45.62951" lon="5.04086">
        <ele>345.25</ele>
        <time>2017-04-30T08:24:28Z</time>
      </trkpt>
      <trkpt lat="45.62954" lon="5.04081">
        <ele>345.4453125</ele>
        <time>2017-04-30T08:24:31Z</time>
      </trkpt>
      <trkpt lat="45.62955" lon="5.04079">
        <ele>345.53125</ele>
        <time>2017-04-30T08:24:33Z</time>
      </trkpt>
      <trkpt lat="45.62965" lon="5.0406">
        <ele>346.23046875</ele>
        <time>2017-04-30T08:24:47Z</time>
      </trkpt>
      <trkpt lat="45.62975" lon="5.04044">
        <ele>346.87109375</ele>
        <time>2017-04-30T08:24:59Z</time>
      </trkpt>
      <trkpt lat="45.62986" lon="5.04025">
        <ele>347.55859375</ele>
        <time>2017-04-30T08:25:13Z</time>
      </trkpt>
      <trkpt lat="45.62996" lon="5.04004">
        <ele>347.5390625</ele>
        <time>2017-04-30T08:25:27Z</time>
      </trkpt>
      <trkpt lat="45.63001" lon="5.03991">
        <ele>347.2265625</ele>
        <time>2017-04-30T08:25:36Z</time>
      </trkpt>
      <trkpt lat="45.63004" lon="5.03985">
        <ele>347.015625</ele>
        <time>2017-04-30T08:25:40Z</time>
      </trkpt>
      <trkpt lat="45.6301" lon="5.03967">
        <ele>346.484375</ele>
        <time>2017-04-30T08:25:53Z</time>
      </trkpt>
      <trkpt lat="45.63014" lon="5.03958">
        <ele>346.1953125</ele>
        <time>2017-04-30T08:25:59Z</time>
      </trkpt>
      <trkpt lat="45.63019" lon="5.03945">
        <ele>345.76171875</ele>
        <time>2017-04-30T08:26:07Z</time>
      </trkpt>
      <trkpt lat="45.6302" lon="5.03926">
        <ele>345.390625</ele>
        <time>2017-04-30T08:26:18Z</time>
      </trkpt>
      <trkpt lat="45.63017" lon="5.03919">
        <ele>345.37109375</ele>
        <time>2017-04-30T08:26:23Z</time>
      </trkpt>
      <trkpt lat="45.63012" lon="5.03913">
        <ele>345.3203125</ele>
        <time>2017-04-30T08:26:29Z</time>
      </trkpt>
      <trkpt lat="45.63003" lon="5.03898">
        <ele>344.63671875</ele>
        <time>2017-04-30T08:26:43Z</time>
      </trkpt>
      <trkpt lat="45.62994" lon="5.03887">
        <ele>343.85546875</ele>
        <time>2017-04-30T08:26:52Z</time>
      </trkpt>
      <trkpt lat="45.62981" lon="5.03872">
        <ele>342.45703125</ele>
        <time>2017-04-30T08:27:05Z</time>
      </trkpt>
      <trkpt lat="45.62973" lon="5.03863">
        <ele>341.73828125</ele>
        <time>2017-04-30T08:27:12Z</time>
      </trkpt>
      <trkpt lat="45.62958" lon="5.03849">
        <ele>340.52734375</ele>
        <time>2017-04-30T08:27:25Z</time>
      </trkpt>
      <trkpt lat="45.62943" lon="5.03845">
        <ele>339.93359375</ele>
        <time>2017-04-30T08:27:38Z</time>
      </trkpt>
      <trkpt lat="45.62938" lon="5.03841">
        <ele>339.37890625</ele>
        <time>2017-04-30T08:27:42Z</time>
      </trkpt>
      <trkpt lat="45.62935" lon="5.03841">
        <ele>339.11328125</ele>
        <time>2017-04-30T08:27:45Z</time>
      </trkpt>
      <trkpt lat="45.6293" lon="5.03839">
        <ele>338.5546875</ele>
        <time>2017-04-30T08:27:49Z</time>
      </trkpt>
      <trkpt lat="45.62917" lon="5.03835">
        <ele>337.4140625</ele>
        <time>2017-04-30T08:28:02Z</time>
      </trkpt>
      <trkpt lat="45.62915" lon="5.03831">
        <ele>337.01171875</ele>
        <time>2017-04-30T08:28:06Z</time>
      </trkpt>
      <trkpt lat="45.62915" lon="5.03825">
        <ele>336.67578125</ele>
        <time>2017-04-30T08:28:09Z</time>
      </trkpt>
      <trkpt lat="45.62919" lon="5.03812">
        <ele>336.21484375</ele>
        <time>2017-04-30T08:28:19Z</time>
      </trkpt>
      <trkpt lat="45.62928" lon="5.03796">
        <ele>335.84765625</ele>
        <time>2017-04-30T08:28:31Z</time>
      </trkpt>
      <trkpt lat="45.62937" lon="5.03782">
        <ele>335.57421875</ele>
        <time>2017-04-30T08:28:42Z</time>
      </trkpt>
      <trkpt lat="45.6294" lon="5.03777">
        <ele>335.44140625</ele>
        <time>2017-04-30T08:28:47Z</time>
      </trkpt>
      <trkpt lat="45.62941" lon="5.03772">
        <ele>335.234375</ele>
        <time>2017-04-30T08:28:51Z</time>
      </trkpt>
      <trkpt lat="45.62945" lon="5.03763">
        <ele>334.83203125</ele>
        <time>2017-04-30T08:28:58Z</time>
      </trkpt>
      <trkpt lat="45.6295" lon="5.03752">
        <ele>334.31640625</ele>
        <time>2017-04-30T08:29:08Z</time>
      </trkpt>
      <trkpt lat="45.62952" lon="5.03747">
        <ele>334.0703125</ele>
        <time>2017-04-30T08:29:12Z</time>
      </trkpt>
      <trkpt lat="45.62963" lon="5.03732">
        <ele>333.36328125</ele>
        <time>2017-04-30T08:29:21Z</time>
      </trkpt>
      <trkpt lat="45.62967" lon="5.03724">
        <ele>332.9140625</ele>
        <time>2017-04-30T08:29:26Z</time>
      </trkpt>
      <trkpt lat="45.62972" lon="5.03715">
        <ele>332.42578125</ele>
        <time>2017-04-30T08:29:32Z</time>
      </trkpt>
      <trkpt lat="45.62976" lon="5.03709">
        <ele>332</ele>
        <time>2017-04-30T08:29:37Z</time>
      </trkpt>
      <trkpt lat="45.62983" lon="5.03691">
        <ele>330.8359375</ele>
        <time>2017-04-30T08:29:50Z</time>
      </trkpt>
      <trkpt lat="45.62992" lon="5.03675">
        <ele>329.6953125</ele>
        <time>2017-04-30T08:30:02Z</time>
      </trkpt>
      <trkpt lat="45.63" lon="5.03657">
        <ele>328.26953125</ele>
        <time>2017-04-30T08:30:14Z</time>
      </trkpt>
      <trkpt lat="45.63008" lon="5.03637">
        <ele>326.3828125</ele>
        <time>2017-04-30T08:30:27Z</time>
      </trkpt>
      <trkpt lat="45.63013" lon="5.03634">
        <ele>325.81640625</ele>
        <time>2017-04-30T08:30:39Z</time>
      </trkpt>
      <trkpt lat="45.63024" lon="5.03643">
        <ele>325.96484375</ele>
        <time>2017-04-30T08:30:54Z</time>
      </trkpt>
      <trkpt lat="45.63035" lon="5.03651">
        <ele>325.97265625</ele>
        <time>2017-04-30T08:31:06Z</time>
      </trkpt>
      <trkpt lat="45.63045" lon="5.03657">
        <ele>325.85546875</ele>
        <time>2017-04-30T08:31:16Z</time>
      </trkpt>
      <trkpt lat="45.63054" lon="5.03665">
        <ele>325.921875</ele>
        <time>2017-04-30T08:31:27Z</time>
      </trkpt>
      <trkpt lat="45.63066" lon="5.03673">
        <ele>325.40234375</ele>
        <time>2017-04-30T08:31:40Z</time>
      </trkpt>
      <trkpt lat="45.63074" lon="5.03687">
        <ele>325.6640625</ele>
        <time>2017-04-30T08:31:55Z</time>
      </trkpt>
      <trkpt lat="45.63088" lon="5.03705">
        <ele>325.85546875</ele>
        <time>2017-04-30T08:32:08Z</time>
      </trkpt>
      <trkpt lat="45.63094" lon="5.03722">
        <ele>326.734375</ele>
        <time>2017-04-30T08:32:22Z</time>
      </trkpt>
      <trkpt lat="45.63106" lon="5.03734">
        <ele>326.91015625</ele>
        <time>2017-04-30T08:32:36Z</time>
      </trkpt>
      <trkpt lat="45.63109" lon="5.03736">
        <ele>326.88671875</ele>
        <time>2017-04-30T08:32:39Z</time>
      </trkpt>
      <trkpt lat="45.63118" lon="5.03749">
        <ele>327.37109375</ele>
        <time>2017-04-30T08:32:51Z</time>
      </trkpt>
      <trkpt lat="45.63127" lon="5.03761">
        <ele>327.55078125</ele>
        <time>2017-04-30T08:33:02Z</time>
      </trkpt>
      <trkpt lat="45.63138" lon="5.03772">
        <ele>327.5546875</ele>
        <time>2017-04-30T08:33:15Z</time>
      </trkpt>
      <trkpt lat="45.63145" lon="5.03781">
        <ele>327.6875</ele>
        <time>2017-04-30T08:33:28Z</time>
      </trkpt>
      <trkpt lat="45.63149" lon="5.03789">
        <ele>328.0234375</ele>
        <time>2017-04-30T08:33:35Z</time>
      </trkpt>
      <trkpt lat="45.63158" lon="5.03797">
        <ele>327.98828125</ele>
        <time>2017-04-30T08:33:47Z</time>
      </trkpt>
      <trkpt lat="45.63161" lon="5.03801">
        <ele>328.05859375</ele>
        <time>2017-04-30T08:33:51Z</time>
      </trkpt>
      <trkpt lat="45.63163" lon="5.03809">
        <ele>328.25</ele>
        <time>2017-04-30T08:34:07Z</time>
      </trkpt>
      <trkpt lat="45.63173" lon="5.03819">
        <ele>327.21875</ele>
        <time>2017-04-30T08:34:23Z</time>
      </trkpt>
      <trkpt lat="45.63184" lon="5.0383">
        <ele>326.22265625</ele>
        <time>2017-04-30T08:34:37Z</time>
      </trkpt>
      <trkpt lat="45.63191" lon="5.03844">
        <ele>325.87109375</ele>
        <time>2017-04-30T08:34:51Z</time>
      </trkpt>
      <trkpt lat="45.63203" lon="5.0386">
        <ele>325.140625</ele>
        <time>2017-04-30T08:35:04Z</time>
      </trkpt>
      <trkpt lat="45.63213" lon="5.0387">
        <ele>324.4375</ele>
        <time>2017-04-30T08:35:15Z</time>
      </trkpt>
      <trkpt lat="45.63224" lon="5.03873">
        <ele>323.3828125</ele>
        <time>2017-04-30T08:35:25Z</time>
      </trkpt>
      <trkpt lat="45.63234" lon="5.03873">
        <ele>322.55859375</ele>
        <time>2017-04-30T08:35:36Z</time>
      </trkpt>
      <trkpt lat="45.63244" lon="5.03875">
        <ele>321.75390625</ele>
        <time>2017-04-30T08:35:45Z</time>
      </trkpt>
      <trkpt lat="45.6326" lon="5.03875">
        <ele>320.453125</ele>
        <time>2017-04-30T08:35:58Z</time>
      </trkpt>
      <trkpt lat="45.63261" lon="5.03874">
        <ele>320.38671875</ele>
        <time>2017-04-30T08:36:00Z</time>
      </trkpt>
      <trkpt lat="45.63274" lon="5.03865">
        <ele>319.8046875</ele>
        <time>2017-04-30T08:36:13Z</time>
      </trkpt>
      <trkpt lat="45.63282" lon="5.03854">
        <ele>319.2265625</ele>
        <time>2017-04-30T08:36:24Z</time>
      </trkpt>
      <trkpt lat="45.63288" lon="5.03838">
        <ele>318.5</ele>
        <time>2017-04-30T08:36:37Z</time>
      </trkpt>
      <trkpt lat="45.63294" lon="5.03823">
        <ele>318.3359375</ele>
        <time>2017-04-30T08:36:50Z</time>
      </trkpt>
      <trkpt lat="45.63301" lon="5.03808">
        <ele>318.74609375</ele>
        <time>2017-04-30T08:37:04Z</time>
      </trkpt>
      <trkpt lat="45.63308" lon="5.03799">
        <ele>319.13671875</ele>
        <time>2017-04-30T08:37:16Z</time>
      </trkpt>
      <trkpt lat="45.6332" lon="5.03791">
        <ele>319.78515625</ele>
        <time>2017-04-30T08:37:30Z</time>
      </trkpt>
      <trkpt lat="45.63332" lon="5.03786">
        <ele>320.640625</ele>
        <time>2017-04-30T08:37:44Z</time>
      </trkpt>
      <trkpt lat="45.6334" lon="5.03779">
        <ele>320.5</ele>
        <time>2017-04-30T08:37:56Z</time>
      </trkpt>
      <trkpt lat="45.63347" lon="5.03775">
        <ele>320.515625</ele>
        <time>2017-04-30T08:38:08Z</time>
      </trkpt>
      <trkpt lat="45.6336" lon="5.03768">
        <ele>320.8203125</ele>
        <time>2017-04-30T08:38:22Z</time>
      </trkpt>
      <trkpt lat="45.63366" lon="5.03763">
        <ele>321.15234375</ele>
        <time>2017-04-30T08:38:32Z</time>
      </trkpt>
      <trkpt lat="45.63373" lon="5.03759">
        <ele>321.59765625</ele>
        <time>2017-04-30T08:38:43Z</time>
      </trkpt>
      <trkpt lat="45.63392" lon="5.03751">
        <ele>322.0546875</ele>
        <time>2017-04-30T08:38:58Z</time>
      </trkpt>
      <trkpt lat="45.63395" lon="5.03749">
        <ele>321.87890625</ele>
        <time>2017-04-30T08:39:04Z</time>
      </trkpt>
      <trkpt lat="45.63406" lon="5.03739">
        <ele>320.43359375</ele>
        <time>2017-04-30T08:39:17Z</time>
      </trkpt>
      <trkpt lat="45.63419" lon="5.03729">
        <ele>318.97265625</ele>
        <time>2017-04-30T08:39:31Z</time>
      </trkpt>
      <trkpt lat="45.63428" lon="5.03722">
        <ele>318.171875</ele>
        <time>2017-04-30T08:39:42Z</time>
      </trkpt>
      <trkpt lat="45.63435" lon="5.03711">
        <ele>317.86328125</ele>
        <time>2017-04-30T08:39:56Z</time>
      </trkpt>
      <trkpt lat="45.63444" lon="5.03699">
        <ele>317.47265625</ele>
        <time>2017-04-30T08:40:08Z</time>
      </trkpt>
      <trkpt lat="45.63456" lon="5.03687">
        <ele>316.046875</ele>
        <time>2017-04-30T08:40:22Z</time>
      </trkpt>
      <trkpt lat="45.63466" lon="5.03678">
        <ele>314.7265625</ele>
        <time>2017-04-30T08:40:33Z</time>
      </trkpt>
      <trkpt lat="45.63476" lon="5.0367">
        <ele>313.7265625</ele>
        <time>2017-04-30T08:40:47Z</time>
      </trkpt>
      <trkpt lat="45.63488" lon="5.03656">
        <ele>313.01953125</ele>
        <time>2017-04-30T08:41:02Z</time>
      </trkpt>
      <trkpt lat="45.63497" lon="5.03649">
        <ele>312.796875</ele>
        <time>2017-04-30T08:41:14Z</time>
      </trkpt>
      <trkpt lat="45.63509" lon="5.03637">
        <ele>311.8671875</ele>
        <time>2017-04-30T08:41:27Z</time>
      </trkpt>
      <trkpt lat="45.63519" lon="5.0363">
        <ele>310.2109375</ele>
        <time>2017-04-30T08:41:39Z</time>
      </trkpt>
      <trkpt lat="45.63531" lon="5.03627">
        <ele>308.9296875</ele>
        <time>2017-04-30T08:41:50Z</time>
      </trkpt>
      <trkpt lat="45.6354" lon="5.03621">
        <ele>307.66796875</ele>
        <time>2017-04-30T08:42:02Z</time>
      </trkpt>
      <trkpt lat="45.6355" lon="5.03615">
        <ele>306.54296875</ele>
        <time>2017-04-30T08:42:15Z</time>
      </trkpt>
      <trkpt lat="45.63558" lon="5.0361">
        <ele>305.1640625</ele>
        <time>2017-04-30T08:42:27Z</time>
      </trkpt>
      <trkpt lat="45.63569" lon="5.03599">
        <ele>302.98046875</ele>
        <time>2017-04-30T08:42:40Z</time>
      </trkpt>
      <trkpt lat="45.6358" lon="5.03593">
        <ele>301.2578125</ele>
        <time>2017-04-30T08:42:54Z</time>
      </trkpt>
      <trkpt lat="45.63593" lon="5.03593">
        <ele>299.578125</ele>
        <time>2017-04-30T08:43:08Z</time>
      </trkpt>
      <trkpt lat="45.63605" lon="5.03592">
        <ele>298.05859375</ele>
        <time>2017-04-30T08:43:24Z</time>
      </trkpt>
      <trkpt lat="45.63613" lon="5.03585">
        <ele>296.80859375</ele>
        <time>2017-04-30T08:43:34Z</time>
      </trkpt>
      <trkpt lat="45.63614" lon="5.03584">
        <ele>296.65625</ele>
        <time>2017-04-30T08:43:35Z</time>
      </trkpt>
      <trkpt lat="45.63623" lon="5.03575">
        <ele>294.16796875</ele>
        <time>2017-04-30T08:43:49Z</time>
      </trkpt>
      <trkpt lat="45.63625" lon="5.03573">
        <ele>293.56640625</ele>
        <time>2017-04-30T08:43:52Z</time>
      </trkpt>
      <trkpt lat="45.63632" lon="5.03564">
        <ele>291.66796875</ele>
        <time>2017-04-30T08:44:03Z</time>
      </trkpt>
      <trkpt lat="45.6364" lon="5.03558">
        <ele>289.8125</ele>
        <time>2017-04-30T08:44:15Z</time>
      </trkpt>
      <trkpt lat="45.63653" lon="5.03553">
        <ele>287.25390625</ele>
        <time>2017-04-30T08:44:30Z</time>
      </trkpt>
      <trkpt lat="45.63667" lon="5.03546">
        <ele>284.76171875</ele>
        <time>2017-04-30T08:44:45Z</time>
      </trkpt>
      <trkpt lat="45.63679" lon="5.03539">
        <ele>282.57421875</ele>
        <time>2017-04-30T08:44:58Z</time>
      </trkpt>
      <trkpt lat="45.63681" lon="5.03538">
        <ele>282.19921875</ele>
        <time>2017-04-30T08:45:00Z</time>
      </trkpt>
      <trkpt lat="45.63692" lon="5.03531">
        <ele>280.37109375</ele>
        <time>2017-04-30T08:45:11Z</time>
      </trkpt>
      <trkpt lat="45.63707" lon="5.03518">
        <ele>277.41796875</ele>
        <time>2017-04-30T08:45:23Z</time>
      </trkpt>
      <trkpt lat="45.63721" lon="5.03512">
        <ele>275.078125</ele>
        <time>2017-04-30T08:45:36Z</time>
      </trkpt>
      <trkpt lat="45.63724" lon="5.03509">
        <ele>274.59375</ele>
        <time>2017-04-30T08:45:40Z</time>
      </trkpt>
      <trkpt lat="45.63724" lon="5.03506">
        <ele>274.39453125</ele>
        <time>2017-04-30T08:45:42Z</time>
      </trkpt>
      <trkpt lat="45.63734" lon="5.035">
        <ele>273.0859375</ele>
        <time>2017-04-30T08:45:53Z</time>
      </trkpt>
      <trkpt lat="45.63749" lon="5.035">
        <ele>271.58984375</ele>
        <time>2017-04-30T08:46:06Z</time>
      </trkpt>
      <trkpt lat="45.63757" lon="5.03505">
        <ele>270.875</ele>
        <time>2017-04-30T08:46:18Z</time>
      </trkpt>
      <trkpt lat="45.6376" lon="5.03504">
        <ele>270.49609375</ele>
        <time>2017-04-30T08:46:22Z</time>
      </trkpt>
      <trkpt lat="45.63762" lon="5.03497">
        <ele>270.28125</ele>
        <time>2017-04-30T08:46:26Z</time>
      </trkpt>
      <trkpt lat="45.63762" lon="5.03493">
        <ele>270.2265625</ele>
        <time>2017-04-30T08:46:28Z</time>
      </trkpt>
      <trkpt lat="45.63764" lon="5.03473">
        <ele>269.78515625</ele>
        <time>2017-04-30T08:46:41Z</time>
      </trkpt>
      <trkpt lat="45.63766" lon="5.03453">
        <ele>269.55078125</ele>
        <time>2017-04-30T08:46:53Z</time>
      </trkpt>
      <trkpt lat="45.63769" lon="5.03435">
        <ele>269.28125</ele>
        <time>2017-04-30T08:47:05Z</time>
      </trkpt>
      <trkpt lat="45.63769" lon="5.03422">
        <ele>269.234375</ele>
        <time>2017-04-30T08:47:14Z</time>
      </trkpt>
      <trkpt lat="45.63771" lon="5.03407">
        <ele>269.44140625</ele>
        <time>2017-04-30T08:47:23Z</time>
      </trkpt>
      <trkpt lat="45.63773" lon="5.034">
        <ele>269.61328125</ele>
        <time>2017-04-30T08:47:27Z</time>
      </trkpt>
      <trkpt lat="45.63772" lon="5.0339">
        <ele>269.98828125</ele>
        <time>2017-04-30T08:47:34Z</time>
      </trkpt>
      <trkpt lat="45.63768" lon="5.03371">
        <ele>270.7578125</ele>
        <time>2017-04-30T08:47:47Z</time>
      </trkpt>
      <trkpt lat="45.63768" lon="5.03368">
        <ele>270.8515625</ele>
        <time>2017-04-30T08:47:49Z</time>
      </trkpt>
      <trkpt lat="45.63768" lon="5.03359">
        <ele>271.2265625</ele>
        <time>2017-04-30T08:47:56Z</time>
      </trkpt>
      <trkpt lat="45.63765" lon="5.03341">
        <ele>272.609375</ele>
        <time>2017-04-30T08:48:09Z</time>
      </trkpt>
      <trkpt lat="45.63765" lon="5.03325">
        <ele>273.796875</ele>
        <time>2017-04-30T08:48:20Z</time>
      </trkpt>
      <trkpt lat="45.63761" lon="5.03307">
        <ele>275.3203125</ele>
        <time>2017-04-30T08:48:34Z</time>
      </trkpt>
      <trkpt lat="45.63758" lon="5.03295">
        <ele>276.3671875</ele>
        <time>2017-04-30T08:48:42Z</time>
      </trkpt>
      <trkpt lat="45.63747" lon="5.03285">
        <ele>277.73046875</ele>
        <time>2017-04-30T08:48:54Z</time>
      </trkpt>
      <trkpt lat="45.63745" lon="5.03284">
        <ele>278.00390625</ele>
        <time>2017-04-30T08:48:57Z</time>
      </trkpt>
      <trkpt lat="45.6374" lon="5.03281">
        <ele>278.5078125</ele>
        <time>2017-04-30T08:49:01Z</time>
      </trkpt>
      <trkpt lat="45.63729" lon="5.03273">
        <ele>279.85546875</ele>
        <time>2017-04-30T08:49:14Z</time>
      </trkpt>
      <trkpt lat="45.63726" lon="5.03272">
        <ele>280.1796875</ele>
        <time>2017-04-30T08:49:18Z</time>
      </trkpt>
      <trkpt lat="45.63717" lon="5.0326">
        <ele>281.84375</ele>
        <time>2017-04-30T08:49:32Z</time>
      </trkpt>
      <trkpt lat="45.63709" lon="5.03247">
        <ele>283.19140625</ele>
        <time>2017-04-30T08:49:45Z</time>
      </trkpt>
      <trkpt lat="45.63702" lon="5.03236">
        <ele>284.65625</ele>
        <time>2017-04-30T08:49:57Z</time>
      </trkpt>
      <trkpt lat="45.63695" lon="5.03224">
        <ele>286.17578125</ele>
        <time>2017-04-30T08:50:13Z</time>
      </trkpt>
      <trkpt lat="45.63681" lon="5.03212">
        <ele>287.6953125</ele>
        <time>2017-04-30T08:50:30Z</time>
      </trkpt>
      <trkpt lat="45.6367" lon="5.03203">
        <ele>288.75390625</ele>
        <time>2017-04-30T08:50:43Z</time>
      </trkpt>
      <trkpt lat="45.6366" lon="5.03197">
        <ele>289.24609375</ele>
        <time>2017-04-30T08:50:56Z</time>
      </trkpt>
      <trkpt lat="45.63658" lon="5.03196">
        <ele>289.27734375</ele>
        <time>2017-04-30T08:50:58Z</time>
      </trkpt>
      <trkpt lat="45.63646" lon="5.03186">
        <ele>289.6640625</ele>
        <time>2017-04-30T08:51:13Z</time>
      </trkpt>
      <trkpt lat="45.63635" lon="5.03181">
        <ele>289.47265625</ele>
        <time>2017-04-30T08:51:25Z</time>
      </trkpt>
      <trkpt lat="45.63626" lon="5.03166">
        <ele>290.375</ele>
        <time>2017-04-30T08:51:40Z</time>
      </trkpt>
      <trkpt lat="45.6362" lon="5.03148">
        <ele>291.62109375</ele>
        <time>2017-04-30T08:51:53Z</time>
      </trkpt>
      <trkpt lat="45.63614" lon="5.03134">
        <ele>292.3125</ele>
        <time>2017-04-30T08:52:04Z</time>
      </trkpt>
      <trkpt lat="45.63609" lon="5.03119">
        <ele>293.45703125</ele>
        <time>2017-04-30T08:52:17Z</time>
      </trkpt>
      <trkpt lat="45.63602" lon="5.03101">
        <ele>295.42578125</ele>
        <time>2017-04-30T08:52:31Z</time>
      </trkpt>
      <trkpt lat="45.63596" lon="5.03088">
        <ele>296.70703125</ele>
        <time>2017-04-30T08:52:42Z</time>
      </trkpt>
      <trkpt lat="45.63596" lon="5.03083">
        <ele>297.23828125</ele>
        <time>2017-04-30T08:52:45Z</time>
      </trkpt>
      <trkpt lat="45.63593" lon="5.03071">
        <ele>298.53125</ele>
        <time>2017-04-30T08:52:55Z</time>
      </trkpt>
      <trkpt lat="45.63592" lon="5.03069">
        <ele>298.84765625</ele>
        <time>2017-04-30T08:52:57Z</time>
      </trkpt>
      <trkpt lat="45.63588" lon="5.03052">
        <ele>300.53515625</ele>
        <time>2017-04-30T08:53:10Z</time>
      </trkpt>
      <trkpt lat="45.63587" lon="5.03035">
        <ele>302.37109375</ele>
        <time>2017-04-30T08:53:21Z</time>
      </trkpt>
      <trkpt lat="45.63583" lon="5.03015">
        <ele>304.0078125</ele>
        <time>2017-04-30T08:53:35Z</time>
      </trkpt>
      <trkpt lat="45.63583" lon="5.02991">
        <ele>306.37109375</ele>
        <time>2017-04-30T08:53:51Z</time>
      </trkpt>
      <trkpt lat="45.63589" lon="5.02971">
        <ele>309.15625</ele>
        <time>2017-04-30T08:54:06Z</time>
      </trkpt>
      <trkpt lat="45.63592" lon="5.02955">
        <ele>310.94921875</ele>
        <time>2017-04-30T08:54:20Z</time>
      </trkpt>
      <trkpt lat="45.63593" lon="5.02937">
        <ele>312.65625</ele>
        <time>2017-04-30T08:54:33Z</time>
      </trkpt>
      <trkpt lat="45.63591" lon="5.02924">
        <ele>313.48828125</ele>
        <time>2017-04-30T08:54:44Z</time>
      </trkpt>
      <trkpt lat="45.63588" lon="5.02905">
        <ele>314.6328125</ele>
        <time>2017-04-30T08:54:57Z</time>
      </trkpt>
      <trkpt lat="45.63585" lon="5.02886">
        <ele>315.8125</ele>
        <time>2017-04-30T08:55:11Z</time>
      </trkpt>
      <trkpt lat="45.63586" lon="5.0287">
        <ele>317.26171875</ele>
        <time>2017-04-30T08:55:24Z</time>
      </trkpt>
      <trkpt lat="45.63588" lon="5.02855">
        <ele>318.5625</ele>
        <time>2017-04-30T08:55:35Z</time>
      </trkpt>
      <trkpt lat="45.63587" lon="5.0284">
        <ele>319.79296875</ele>
        <time>2017-04-30T08:55:46Z</time>
      </trkpt>
      <trkpt lat="45.63587" lon="5.02837">
        <ele>320.01953125</ele>
        <time>2017-04-30T08:55:48Z</time>
      </trkpt>
      <trkpt lat="45.63581" lon="5.02819">
        <ele>321.27734375</ele>
        <time>2017-04-30T08:56:01Z</time>
      </trkpt>
      <trkpt lat="45.6357" lon="5.02803">
        <ele>322.359375</ele>
        <time>2017-04-30T08:56:15Z</time>
      </trkpt>
      <trkpt lat="45.63556" lon="5.02791">
        <ele>322.53515625</ele>
        <time>2017-04-30T08:56:29Z</time>
      </trkpt>
      <trkpt lat="45.63555" lon="5.02789">
        <ele>322.58984375</ele>
        <time>2017-04-30T08:56:31Z</time>
      </trkpt>
      <trkpt lat="45.63542" lon="5.02777">
        <ele>322.69921875</ele>
        <time>2017-04-30T08:56:45Z</time>
      </trkpt>
      <trkpt lat="45.63527" lon="5.02765">
        <ele>323.0390625</ele>
        <time>2017-04-30T08:57:02Z</time>
      </trkpt>
      <trkpt lat="45.63512" lon="5.02754">
        <ele>323.6171875</ele>
        <time>2017-04-30T08:57:16Z</time>
      </trkpt>
      <trkpt lat="45.63505" lon="5.02747">
        <ele>324.015625</ele>
        <time>2017-04-30T08:57:24Z</time>
      </trkpt>
      <trkpt lat="45.63499" lon="5.02742">
        <ele>324.1171875</ele>
        <time>2017-04-30T08:57:30Z</time>
      </trkpt>
      <trkpt lat="45.63486" lon="5.02731">
        <ele>324.51171875</ele>
        <time>2017-04-30T08:57:42Z</time>
      </trkpt>
      <trkpt lat="45.63472" lon="5.0272">
        <ele>325.21875</ele>
        <time>2017-04-30T08:57:55Z</time>
      </trkpt>
      <trkpt lat="45.63466" lon="5.0271">
        <ele>325.8984375</ele>
        <time>2017-04-30T08:58:04Z</time>
      </trkpt>
      <trkpt lat="45.63461" lon="5.02699">
        <ele>326.71875</ele>
        <time>2017-04-30T08:58:12Z</time>
      </trkpt>
      <trkpt lat="45.63459" lon="5.02696">
        <ele>326.9609375</ele>
        <time>2017-04-30T08:58:14Z</time>
      </trkpt>
      <trkpt lat="45.63451" lon="5.02683">
        <ele>327.46875</ele>
        <time>2017-04-30T08:58:23Z</time>
      </trkpt>
      <trkpt lat="45.63444" lon="5.02665">
        <ele>327.8515625</ele>
        <time>2017-04-30T08:58:37Z</time>
      </trkpt>
      <trkpt lat="45.63436" lon="5.02649">
        <ele>328.25</ele>
        <time>2017-04-30T08:58:49Z</time>
      </trkpt>
      <trkpt lat="45.63427" lon="5.02631">
        <ele>328.828125</ele>
        <time>2017-04-30T08:59:02Z</time>
      </trkpt>
      <trkpt lat="45.63423" lon="5.02625">
        <ele>329.07421875</ele>
        <time>2017-04-30T08:59:07Z</time>
      </trkpt>
      <trkpt lat="45.63418" lon="5.02612">
        <ele>329.484375</ele>
        <time>2017-04-30T08:59:18Z</time>
      </trkpt>
      <trkpt lat="45.63418" lon="5.02611">
        <ele>329.5</ele>
        <time>2017-04-30T08:59:19Z</time>
      </trkpt>
      <trkpt lat="45.6342" lon="5.02587">
        <ele>329.5703125</ele>
        <time>2017-04-30T08:59:34Z</time>
      </trkpt>
      <trkpt lat="45.63422" lon="5.02564">
        <ele>329.64453125</ele>
        <time>2017-04-30T08:59:48Z</time>
      </trkpt>
      <trkpt lat="45.63422" lon="5.02563">
        <ele>329.6640625</ele>
        <time>2017-04-30T08:59:49Z</time>
      </trkpt>
      <trkpt lat="45.63421" lon="5.02557">
        <ele>329.80859375</ele>
        <time>2017-04-30T08:59:53Z</time>
      </trkpt>
      <trkpt lat="45.63417" lon="5.02543">
        <ele>330.16796875</ele>
        <time>2017-04-30T09:00:04Z</time>
      </trkpt>
      <trkpt lat="45.63416" lon="5.02538">
        <ele>330.26953125</ele>
        <time>2017-04-30T09:00:07Z</time>
      </trkpt>
      <trkpt lat="45.63416" lon="5.02535">
        <ele>330.30859375</ele>
        <time>2017-04-30T09:00:10Z</time>
      </trkpt>
      <trkpt lat="45.63409" lon="5.02517">
        <ele>331.16796875</ele>
        <time>2017-04-30T09:00:23Z</time>
      </trkpt>
      <trkpt lat="45.63408" lon="5.02516">
        <ele>331.2421875</ele>
        <time>2017-04-30T09:00:24Z</time>
      </trkpt>
      <trkpt lat="45.63401" lon="5.02499">
        <ele>332.1171875</ele>
        <time>2017-04-30T09:00:37Z</time>
      </trkpt>
      <trkpt lat="45.63399" lon="5.02492">
        <ele>332.39453125</ele>
        <time>2017-04-30T09:00:43Z</time>
      </trkpt>
      <trkpt lat="45.63397" lon="5.02485">
        <ele>332.6328125</ele>
        <time>2017-04-30T09:00:48Z</time>
      </trkpt>
      <trkpt lat="45.63393" lon="5.0247">
        <ele>333.0625</ele>
        <time>2017-04-30T09:00:59Z</time>
      </trkpt>
      <trkpt lat="45.63388" lon="5.02455">
        <ele>333.60546875</ele>
        <time>2017-04-30T09:01:11Z</time>
      </trkpt>
      <trkpt lat="45.63389" lon="5.02451">
        <ele>333.7578125</ele>
        <time>2017-04-30T09:01:27Z</time>
      </trkpt>
      <trkpt lat="45.63386" lon="5.02436">
        <ele>334.28515625</ele>
        <time>2017-04-30T09:01:41Z</time>
      </trkpt>
      <trkpt lat="45.63386" lon="5.02431">
        <ele>334.484375</ele>
        <time>2017-04-30T09:01:44Z</time>
      </trkpt>
      <trkpt lat="45.63383" lon="5.02415">
        <ele>335.08984375</ele>
        <time>2017-04-30T09:01:54Z</time>
      </trkpt>
      <trkpt lat="45.63383" lon="5.02401">
        <ele>335.609375</ele>
        <time>2017-04-30T09:02:03Z</time>
      </trkpt>
      <trkpt lat="45.63383" lon="5.02396">
        <ele>335.8203125</ele>
        <time>2017-04-30T09:02:06Z</time>
      </trkpt>
      <trkpt lat="45.63384" lon="5.02386">
        <ele>336.15234375</ele>
        <time>2017-04-30T09:02:12Z</time>
      </trkpt>
      <trkpt lat="45.63384" lon="5.02383">
        <ele>336.26171875</ele>
        <time>2017-04-30T09:02:14Z</time>
      </trkpt>
      <trkpt lat="45.63384" lon="5.02367">
        <ele>336.84765625</ele>
        <time>2017-04-30T09:02:25Z</time>
      </trkpt>
      <trkpt lat="45.63384" lon="5.02365">
        <ele>336.9140625</ele>
        <time>2017-04-30T09:02:26Z</time>
      </trkpt>
      <trkpt lat="45.63384" lon="5.02361">
        <ele>337.078125</ele>
        <time>2017-04-30T09:02:29Z</time>
      </trkpt>
      <trkpt lat="45.63384" lon="5.02355">
        <ele>337.39453125</ele>
        <time>2017-04-30T09:02:33Z</time>
      </trkpt>
      <trkpt lat="45.63384" lon="5.02346">
        <ele>337.88671875</ele>
        <time>2017-04-30T09:02:39Z</time>
      </trkpt>
      <trkpt lat="45.6338" lon="5.02328">
        <ele>338.9140625</ele>
        <time>2017-04-30T09:02:52Z</time>
      </trkpt>
      <trkpt lat="45.6338" lon="5.02321">
        <ele>339.28515625</ele>
        <time>2017-04-30T09:02:57Z</time>
      </trkpt>
      <trkpt lat="45.6338" lon="5.02315">
        <ele>339.57421875</ele>
        <time>2017-04-30T09:03:01Z</time>
      </trkpt>
      <trkpt lat="45.6338" lon="5.02313">
        <ele>339.69140625</ele>
        <time>2017-04-30T09:03:03Z</time>
      </trkpt>
      <trkpt lat="45.6338" lon="5.02311">
        <ele>339.81640625</ele>
        <time>2017-04-30T09:03:05Z</time>
      </trkpt>
      <trkpt lat="45.63382" lon="5.02297">
        <ele>340.5078125</ele>
        <time>2017-04-30T09:03:15Z</time>
      </trkpt>
      <trkpt lat="45.63383" lon="5.02294">
        <ele>340.65625</ele>
        <time>2017-04-30T09:03:17Z</time>
      </trkpt>
      <trkpt lat="45.63386" lon="5.02282">
        <ele>341.2578125</ele>
        <time>2017-04-30T09:03:25Z</time>
      </trkpt>
      <trkpt lat="45.63387" lon="5.02279">
        <ele>341.375</ele>
        <time>2017-04-30T09:03:27Z</time>
      </trkpt>
      <trkpt lat="45.63389" lon="5.02261">
        <ele>342.2890625</ele>
        <time>2017-04-30T09:03:40Z</time>
      </trkpt>
      <trkpt lat="45.63391" lon="5.0225">
        <ele>342.78515625</ele>
        <time>2017-04-30T09:03:48Z</time>
      </trkpt>
      <trkpt lat="45.63394" lon="5.0224">
        <ele>343.12890625</ele>
        <time>2017-04-30T09:03:55Z</time>
      </trkpt>
      <trkpt lat="45.63395" lon="5.02237">
        <ele>343.21875</ele>
        <time>2017-04-30T09:03:57Z</time>
      </trkpt>
      <trkpt lat="45.634" lon="5.02213">
        <ele>344.1328125</ele>
        <time>2017-04-30T09:04:11Z</time>
      </trkpt>
      <trkpt lat="45.63401" lon="5.0221">
        <ele>344.265625</ele>
        <time>2017-04-30T09:04:13Z</time>
      </trkpt>
      <trkpt lat="45.63402" lon="5.02203">
        <ele>344.5859375</ele>
        <time>2017-04-30T09:04:17Z</time>
      </trkpt>
      <trkpt lat="45.63409" lon="5.02182">
        <ele>345.17578125</ele>
        <time>2017-04-30T09:04:29Z</time>
      </trkpt>
      <trkpt lat="45.63411" lon="5.02171">
        <ele>345.3671875</ele>
        <time>2017-04-30T09:04:37Z</time>
      </trkpt>
      <trkpt lat="45.63416" lon="5.02151">
        <ele>345.8359375</ele>
        <time>2017-04-30T09:04:50Z</time>
      </trkpt>
      <trkpt lat="45.63421" lon="5.02132">
        <ele>346.265625</ele>
        <time>2017-04-30T09:05:03Z</time>
      </trkpt>
      <trkpt lat="45.63426" lon="5.02111">
        <ele>346.65234375</ele>
        <time>2017-04-30T09:05:16Z</time>
      </trkpt>
      <trkpt lat="45.63428" lon="5.02098">
        <ele>346.88671875</ele>
        <time>2017-04-30T09:05:24Z</time>
      </trkpt>
      <trkpt lat="45.63429" lon="5.02092">
        <ele>347.015625</ele>
        <time>2017-04-30T09:05:28Z</time>
      </trkpt>
      <trkpt lat="45.63431" lon="5.02073">
        <ele>347.5390625</ele>
        <time>2017-04-30T09:05:39Z</time>
      </trkpt>
      <trkpt lat="45.63433" lon="5.02056">
        <ele>348.1640625</ele>
        <time>2017-04-30T09:05:51Z</time>
      </trkpt>
      <trkpt lat="45.63432" lon="5.02041">
        <ele>348.57421875</ele>
        <time>2017-04-30T09:06:03Z</time>
      </trkpt>
      <trkpt lat="45.63431" lon="5.0204">
        <ele>348.45703125</ele>
        <time>2017-04-30T09:06:08Z</time>
      </trkpt>
      <trkpt lat="45.63432" lon="5.02038">
        <ele>348.63671875</ele>
        <time>2017-04-30T09:06:14Z</time>
      </trkpt>
      <trkpt lat="45.63432" lon="5.02035">
        <ele>348.7265625</ele>
        <time>2017-04-30T09:06:16Z</time>
      </trkpt>
      <trkpt lat="45.63432" lon="5.02033">
        <ele>348.7890625</ele>
        <time>2017-04-30T09:06:18Z</time>
      </trkpt>
      <trkpt lat="45.6343" lon="5.02016">
        <ele>348.94140625</ele>
        <time>2017-04-30T09:06:31Z</time>
      </trkpt>
      <trkpt lat="45.63425" lon="5.02017">
        <ele>348.46484375</ele>
        <time>2017-04-30T09:06:45Z</time>
      </trkpt>
      <trkpt lat="45.63425" lon="5.02018">
        <ele>348.46875</ele>
        <time>2017-04-30T09:07:06Z</time>
      </trkpt>
      <trkpt lat="45.63415" lon="5.02012">
        <ele>347.49609375</ele>
        <time>2017-04-30T09:07:21Z</time>
      </trkpt>
      <trkpt lat="45.63399" lon="5.02009">
        <ele>345.97265625</ele>
        <time>2017-04-30T09:07:36Z</time>
      </trkpt>
      <trkpt lat="45.63388" lon="5.02007">
        <ele>344.9296875</ele>
        <time>2017-04-30T09:07:45Z</time>
      </trkpt>
      <trkpt lat="45.63384" lon="5.02007">
        <ele>344.4609375</ele>
        <time>2017-04-30T09:07:48Z</time>
      </trkpt>
      <trkpt lat="45.63367" lon="5.02007">
        <ele>342.22265625</ele>
        <time>2017-04-30T09:08:01Z</time>
      </trkpt>
      <trkpt lat="45.6335" lon="5.02004">
        <ele>340.1875</ele>
        <time>2017-04-30T09:08:15Z</time>
      </trkpt>
      <trkpt lat="45.63335" lon="5.02002">
        <ele>338.359375</ele>
        <time>2017-04-30T09:08:28Z</time>
      </trkpt>
      <trkpt lat="45.63321" lon="5.02">
        <ele>336.50390625</ele>
        <time>2017-04-30T09:08:40Z</time>
      </trkpt>
      <trkpt lat="45.63315" lon="5.02">
        <ele>335.6796875</ele>
        <time>2017-04-30T09:08:45Z</time>
      </trkpt>
      <trkpt lat="45.633" lon="5.01999">
        <ele>333.6875</ele>
        <time>2017-04-30T09:08:57Z</time>
      </trkpt>
      <trkpt lat="45.63281" lon="5.01997">
        <ele>331.06640625</ele>
        <time>2017-04-30T09:09:12Z</time>
      </trkpt>
      <trkpt lat="45.63267" lon="5.01996">
        <ele>329.31640625</ele>
        <time>2017-04-30T09:09:23Z</time>
      </trkpt>
      <trkpt lat="45.63257" lon="5.01989">
        <ele>328.453125</ele>
        <time>2017-04-30T09:09:32Z</time>
      </trkpt>
      <trkpt lat="45.63245" lon="5.01972">
        <ele>328.13671875</ele>
        <time>2017-04-30T09:09:45Z</time>
      </trkpt>
      <trkpt lat="45.63236" lon="5.01955">
        <ele>327.58203125</ele>
        <time>2017-04-30T09:09:57Z</time>
      </trkpt>
      <trkpt lat="45.63221" lon="5.0194">
        <ele>325.77734375</ele>
        <time>2017-04-30T09:10:11Z</time>
      </trkpt>
      <trkpt lat="45.63208" lon="5.01934">
        <ele>324.3046875</ele>
        <time>2017-04-30T09:10:24Z</time>
      </trkpt>
      <trkpt lat="45.63196" lon="5.01936">
        <ele>322.7890625</ele>
        <time>2017-04-30T09:10:36Z</time>
      </trkpt>
      <trkpt lat="45.63176" lon="5.01949">
        <ele>320.35546875</ele>
        <time>2017-04-30T09:10:54Z</time>
      </trkpt>
      <trkpt lat="45.63159" lon="5.01962">
        <ele>318.5390625</ele>
        <time>2017-04-30T09:11:11Z</time>
      </trkpt>
      <trkpt lat="45.6314" lon="5.0197">
        <ele>316.79296875</ele>
        <time>2017-04-30T09:11:27Z</time>
      </trkpt>
      <trkpt lat="45.63129" lon="5.01971">
        <ele>315.87890625</ele>
        <time>2017-04-30T09:11:46Z</time>
      </trkpt>
      <trkpt lat="45.63116" lon="5.01971">
        <ele>314.68359375</ele>
        <time>2017-04-30T09:12:00Z</time>
      </trkpt>
      <trkpt lat="45.63104" lon="5.01971">
        <ele>313.8359375</ele>
        <time>2017-04-30T09:12:12Z</time>
      </trkpt>
      <trkpt lat="45.63086" lon="5.01971">
        <ele>313.19921875</ele>
        <time>2017-04-30T09:12:27Z</time>
      </trkpt>
      <trkpt lat="45.63071" lon="5.0197">
        <ele>312.6875</ele>
        <time>2017-04-30T09:12:40Z</time>
      </trkpt>
      <trkpt lat="45.63057" lon="5.01964">
        <ele>312.26953125</ele>
        <time>2017-04-30T09:12:53Z</time>
      </trkpt>
      <trkpt lat="45.63045" lon="5.01954">
        <ele>311.9296875</ele>
        <time>2017-04-30T09:13:05Z</time>
      </trkpt>
      <trkpt lat="45.63045" lon="5.01948">
        <ele>312.09765625</ele>
        <time>2017-04-30T09:13:10Z</time>
      </trkpt>
      <trkpt lat="45.63046" lon="5.01938">
        <ele>312.39453125</ele>
        <time>2017-04-30T09:13:16Z</time>
      </trkpt>
      <trkpt lat="45.63046" lon="5.01937">
        <ele>312.4609375</ele>
        <time>2017-04-30T09:13:18Z</time>
      </trkpt>
      <trkpt lat="45.63047" lon="5.01933">
        <ele>312.5703125</ele>
        <time>2017-04-30T09:13:22Z</time>
      </trkpt>
      <trkpt lat="45.63052" lon="5.0192">
        <ele>312.92578125</ele>
        <time>2017-04-30T09:13:33Z</time>
      </trkpt>
      <trkpt lat="45.6306" lon="5.01908">
        <ele>312.27734375</ele>
        <time>2017-04-30T09:13:46Z</time>
      </trkpt>
      <trkpt lat="45.63069" lon="5.01895">
        <ele>311.078125</ele>
        <time>2017-04-30T09:14:00Z</time>
      </trkpt>
      <trkpt lat="45.63074" lon="5.0188">
        <ele>309.74609375</ele>
        <time>2017-04-30T09:14:13Z</time>
      </trkpt>
      <trkpt lat="45.63074" lon="5.01877">
        <ele>309.34375</ele>
        <time>2017-04-30T09:14:16Z</time>
      </trkpt>
      <trkpt lat="45.63061" lon="5.01867">
        <ele>307.875</ele>
        <time>2017-04-30T09:14:30Z</time>
      </trkpt>
      <trkpt lat="45.63054" lon="5.01858">
        <ele>306.65234375</ele>
        <time>2017-04-30T09:14:38Z</time>
      </trkpt>
      <trkpt lat="45.63051" lon="5.01857">
        <ele>306.45703125</ele>
        <time>2017-04-30T09:14:40Z</time>
      </trkpt>
      <trkpt lat="45.63048" lon="5.01854">
        <ele>305.90234375</ele>
        <time>2017-04-30T09:14:43Z</time>
      </trkpt>
      <trkpt lat="45.63038" lon="5.01849">
        <ele>304.640625</ele>
        <time>2017-04-30T09:14:51Z</time>
      </trkpt>
      <trkpt lat="45.63035" lon="5.01847">
        <ele>304.2578125</ele>
        <time>2017-04-30T09:14:54Z</time>
      </trkpt>
      <trkpt lat="45.63027" lon="5.01845">
        <ele>303.4296875</ele>
        <time>2017-04-30T09:15:07Z</time>
      </trkpt>
      <trkpt lat="45.63021" lon="5.01844">
        <ele>302.77734375</ele>
        <time>2017-04-30T09:15:27Z</time>
      </trkpt>
      <trkpt lat="45.63018" lon="5.01838">
        <ele>301.640625</ele>
        <time>2017-04-30T09:15:32Z</time>
      </trkpt>
      <trkpt lat="45.63016" lon="5.01835">
        <ele>300.9609375</ele>
        <time>2017-04-30T09:15:35Z</time>
      </trkpt>
      <trkpt lat="45.63011" lon="5.01826">
        <ele>298.6640625</ele>
        <time>2017-04-30T09:15:43Z</time>
      </trkpt>
      <trkpt lat="45.63007" lon="5.01819">
        <ele>296.8828125</ele>
        <time>2017-04-30T09:15:48Z</time>
      </trkpt>
      <trkpt lat="45.63" lon="5.01807">
        <ele>293.7109375</ele>
        <time>2017-04-30T09:16:01Z</time>
      </trkpt>
      <trkpt lat="45.62998" lon="5.01803">
        <ele>293.1953125</ele>
        <time>2017-04-30T09:16:05Z</time>
      </trkpt>
      <trkpt lat="45.62995" lon="5.018">
        <ele>293.12890625</ele>
        <time>2017-04-30T09:16:08Z</time>
      </trkpt>
      <trkpt lat="45.62982" lon="5.01787">
        <ele>292.86328125</ele>
        <time>2017-04-30T09:16:23Z</time>
      </trkpt>
      <trkpt lat="45.62977" lon="5.01773">
        <ele>293.48828125</ele>
        <time>2017-04-30T09:16:34Z</time>
      </trkpt>
      <trkpt lat="45.62973" lon="5.01769">
        <ele>293.49609375</ele>
        <time>2017-04-30T09:16:39Z</time>
      </trkpt>
      <trkpt lat="45.62956" lon="5.01769">
        <ele>292.109375</ele>
        <time>2017-04-30T09:16:56Z</time>
      </trkpt>
      <trkpt lat="45.62944" lon="5.01775">
        <ele>290.4453125</ele>
        <time>2017-04-30T09:17:11Z</time>
      </trkpt>
      <trkpt lat="45.62922" lon="5.01784">
        <ele>287.765625</ele>
        <time>2017-04-30T09:17:27Z</time>
      </trkpt>
      <trkpt lat="45.62902" lon="5.01791">
        <ele>285.2578125</ele>
        <time>2017-04-30T09:17:43Z</time>
      </trkpt>
      <trkpt lat="45.62886" lon="5.01793">
        <ele>283.71875</ele>
        <time>2017-04-30T09:17:59Z</time>
      </trkpt>
      <trkpt lat="45.62873" lon="5.01794">
        <ele>282.65625</ele>
        <time>2017-04-30T09:18:13Z</time>
      </trkpt>
      <trkpt lat="45.62865" lon="5.01795">
        <ele>281.93359375</ele>
        <time>2017-04-30T09:18:20Z</time>
      </trkpt>
      <trkpt lat="45.62847" lon="5.01802">
        <ele>280.1328125</ele>
        <time>2017-04-30T09:18:33Z</time>
      </trkpt>
      <trkpt lat="45.62826" lon="5.01807">
        <ele>278.74609375</ele>
        <time>2017-04-30T09:18:47Z</time>
      </trkpt>
      <trkpt lat="45.62813" lon="5.0181">
        <ele>277.78515625</ele>
        <time>2017-04-30T09:18:57Z</time>
      </trkpt>
      <trkpt lat="45.62805" lon="5.0181">
        <ele>277.046875</ele>
        <time>2017-04-30T09:19:02Z</time>
      </trkpt>
      <trkpt lat="45.62794" lon="5.01804">
        <ele>275.71875</ele>
        <time>2017-04-30T09:19:12Z</time>
      </trkpt>
      <trkpt lat="45.62779" lon="5.01784">
        <ele>274.08203125</ele>
        <time>2017-04-30T09:19:25Z</time>
      </trkpt>
      <trkpt lat="45.62777" lon="5.01777">
        <ele>273.703125</ele>
        <time>2017-04-30T09:19:29Z</time>
      </trkpt>
      <trkpt lat="45.62777" lon="5.01775">
        <ele>273.58984375</ele>
        <time>2017-04-30T09:19:41Z</time>
      </trkpt>
      <trkpt lat="45.62775" lon="5.01772">
        <ele>273.3984375</ele>
        <time>2017-04-30T09:19:54Z</time>
      </trkpt>
      <trkpt lat="45.62776" lon="5.01775">
        <ele>273.4921875</ele>
        <time>2017-04-30T09:20:16Z</time>
      </trkpt>
      <trkpt lat="45.62776" lon="5.01776">
        <ele>273.5234375</ele>
        <time>2017-04-30T09:20:20Z</time>
      </trkpt>
      <trkpt lat="45.62776" lon="5.01775">
        <ele>273.52734375</ele>
        <time>2017-04-30T09:20:21Z</time>
      </trkpt>
      <trkpt lat="45.62776" lon="5.01769">
        <ele>273.48046875</ele>
        <time>2017-04-30T09:20:27Z</time>
      </trkpt>
      <trkpt lat="45.62777" lon="5.01761">
        <ele>273.49609375</ele>
        <time>2017-04-30T09:20:32Z</time>
      </trkpt>
      <trkpt lat="45.62778" lon="5.01755">
        <ele>273.4375</ele>
        <time>2017-04-30T09:20:37Z</time>
      </trkpt>
      <trkpt lat="45.62782" lon="5.0173">
        <ele>273.73828125</ele>
        <time>2017-04-30T09:20:53Z</time>
      </trkpt>
      <trkpt lat="45.62781" lon="5.01725">
        <ele>273.671875</ele>
        <time>2017-04-30T09:20:56Z</time>
      </trkpt>
      <trkpt lat="45.62781" lon="5.01719">
        <ele>273.48828125</ele>
        <time>2017-04-30T09:21:00Z</time>
      </trkpt>
      <trkpt lat="45.62782" lon="5.01707">
        <ele>273.51953125</ele>
        <time>2017-04-30T09:21:07Z</time>
      </trkpt>
      <trkpt lat="45.62784" lon="5.01698">
        <ele>273.89453125</ele>
        <time>2017-04-30T09:21:13Z</time>
      </trkpt>
      <trkpt lat="45.62786" lon="5.01691">
        <ele>274.34765625</ele>
        <time>2017-04-30T09:21:17Z</time>
      </trkpt>
      <trkpt lat="45.62792" lon="5.01672">
        <ele>275.5</ele>
        <time>2017-04-30T09:21:29Z</time>
      </trkpt>
      <trkpt lat="45.62798" lon="5.01658">
        <ele>276.97265625</ele>
        <time>2017-04-30T09:21:41Z</time>
      </trkpt>
      <trkpt lat="45.62799" lon="5.01655">
        <ele>277.17578125</ele>
        <time>2017-04-30T09:21:43Z</time>
      </trkpt>
      <trkpt lat="45.62803" lon="5.01647">
        <ele>277.921875</ele>
        <time>2017-04-30T09:21:49Z</time>
      </trkpt>
      <trkpt lat="45.62806" lon="5.01634">
        <ele>278.29296875</ele>
        <time>2017-04-30T09:21:58Z</time>
      </trkpt>
      <trkpt lat="45.62813" lon="5.01614">
        <ele>278.40625</ele>
        <time>2017-04-30T09:22:10Z</time>
      </trkpt>
      <trkpt lat="45.62809" lon="5.01598">
        <ele>276.40625</ele>
        <time>2017-04-30T09:22:16Z</time>
      </trkpt>
      <trkpt lat="45.62802" lon="5.01591">
        <ele>274.796875</ele>
        <time>2017-04-30T09:22:21Z</time>
      </trkpt>
      <trkpt lat="45.62793" lon="5.01574">
        <ele>272.51953125</ele>
        <time>2017-04-30T09:22:36Z</time>
      </trkpt>
      <trkpt lat="45.62789" lon="5.01558">
        <ele>271.46484375</ele>
        <time>2017-04-30T09:22:47Z</time>
      </trkpt>
      <trkpt lat="45.62786" lon="5.01538">
        <ele>270.4375</ele>
        <time>2017-04-30T09:22:59Z</time>
      </trkpt>
      <trkpt lat="45.62786" lon="5.01517">
        <ele>269.92578125</ele>
        <time>2017-04-30T09:23:11Z</time>
      </trkpt>
      <trkpt lat="45.62787" lon="5.01514">
        <ele>269.89453125</ele>
        <time>2017-04-30T09:23:13Z</time>
      </trkpt>
      <trkpt lat="45.62785" lon="5.01511">
        <ele>269.625</ele>
        <time>2017-04-30T09:23:15Z</time>
      </trkpt>
      <trkpt lat="45.62779" lon="5.01499">
        <ele>268.765625</ele>
        <time>2017-04-30T09:23:23Z</time>
      </trkpt>
      <trkpt lat="45.62775" lon="5.01484">
        <ele>268.265625</ele>
        <time>2017-04-30T09:23:33Z</time>
      </trkpt>
      <trkpt lat="45.62775" lon="5.01477">
        <ele>268.20703125</ele>
        <time>2017-04-30T09:23:38Z</time>
      </trkpt>
      <trkpt lat="45.62773" lon="5.01461">
        <ele>268.51953125</ele>
        <time>2017-04-30T09:23:48Z</time>
      </trkpt>
      <trkpt lat="45.62773" lon="5.01442">
        <ele>268.98046875</ele>
        <time>2017-04-30T09:24:00Z</time>
      </trkpt>
      <trkpt lat="45.62773" lon="5.01436">
        <ele>269.1328125</ele>
        <time>2017-04-30T09:24:04Z</time>
      </trkpt>
      <trkpt lat="45.62769" lon="5.01418">
        <ele>270.08203125</ele>
        <time>2017-04-30T09:24:16Z</time>
      </trkpt>
      <trkpt lat="45.62763" lon="5.01406">
        <ele>270.97265625</ele>
        <time>2017-04-30T09:24:27Z</time>
      </trkpt>
      <trkpt lat="45.62758" lon="5.01391">
        <ele>271.27734375</ele>
        <time>2017-04-30T09:24:38Z</time>
      </trkpt>
      <trkpt lat="45.62756" lon="5.01385">
        <ele>271.296875</ele>
        <time>2017-04-30T09:24:41Z</time>
      </trkpt>
      <trkpt lat="45.62748" lon="5.01371">
        <ele>271.45703125</ele>
        <time>2017-04-30T09:24:53Z</time>
      </trkpt>
      <trkpt lat="45.62744" lon="5.01358">
        <ele>271.1640625</ele>
        <time>2017-04-30T09:25:04Z</time>
      </trkpt>
      <trkpt lat="45.62737" lon="5.01344">
        <ele>271.07421875</ele>
        <time>2017-04-30T09:25:16Z</time>
      </trkpt>
      <trkpt lat="45.62732" lon="5.01325">
        <ele>270.3515625</ele>
        <time>2017-04-30T09:25:28Z</time>
      </trkpt>
      <trkpt lat="45.62721" lon="5.01319">
        <ele>269.99609375</ele>
        <time>2017-04-30T09:25:42Z</time>
      </trkpt>
      <trkpt lat="45.62702" lon="5.01309">
        <ele>269.6328125</ele>
        <time>2017-04-30T09:25:59Z</time>
      </trkpt>
      <trkpt lat="45.62694" lon="5.01303">
        <ele>269.56640625</ele>
        <time>2017-04-30T09:26:07Z</time>
      </trkpt>
      <trkpt lat="45.62684" lon="5.01291">
        <ele>269.8515625</ele>
        <time>2017-04-30T09:26:15Z</time>
      </trkpt>
      <trkpt lat="45.62671" lon="5.0128">
        <ele>269.68359375</ele>
        <time>2017-04-30T09:26:31Z</time>
      </trkpt>
      <trkpt lat="45.62655" lon="5.01263">
        <ele>269.578125</ele>
        <time>2017-04-30T09:26:46Z</time>
      </trkpt>
      <trkpt lat="45.62642" lon="5.0125">
        <ele>269.4140625</ele>
        <time>2017-04-30T09:27:01Z</time>
      </trkpt>
      <trkpt lat="45.62641" lon="5.01249">
        <ele>269.43359375</ele>
        <time>2017-04-30T09:27:02Z</time>
      </trkpt>
      <trkpt lat="45.62633" lon="5.01237">
        <ele>269.50390625</ele>
        <time>2017-04-30T09:27:12Z</time>
      </trkpt>
      <trkpt lat="45.62624" lon="5.01223">
        <ele>269.28125</ele>
        <time>2017-04-30T09:27:25Z</time>
      </trkpt>
      <trkpt lat="45.62616" lon="5.01214">
        <ele>268.9140625</ele>
        <time>2017-04-30T09:27:38Z</time>
      </trkpt>
      <trkpt lat="45.62606" lon="5.01195">
        <ele>268.1171875</ele>
        <time>2017-04-30T09:27:51Z</time>
      </trkpt>
      <trkpt lat="45.626" lon="5.01187">
        <ele>268.15234375</ele>
        <time>2017-04-30T09:28:02Z</time>
      </trkpt>
      <trkpt lat="45.62599" lon="5.01176">
        <ele>267.97265625</ele>
        <time>2017-04-30T09:28:12Z</time>
      </trkpt>
      <trkpt lat="45.62596" lon="5.01161">
        <ele>267.7265625</ele>
        <time>2017-04-30T09:28:26Z</time>
      </trkpt>
      <trkpt lat="45.62591" lon="5.01154">
        <ele>267.67578125</ele>
        <time>2017-04-30T09:28:39Z</time>
      </trkpt>
      <trkpt lat="45.6259" lon="5.01138">
        <ele>267.3515625</ele>
        <time>2017-04-30T09:28:54Z</time>
      </trkpt>
      <trkpt lat="45.62587" lon="5.01121">
        <ele>267.4609375</ele>
        <time>2017-04-30T09:29:07Z</time>
      </trkpt>
      <trkpt lat="45.62584" lon="5.01114">
        <ele>267.49609375</ele>
        <time>2017-04-30T09:29:13Z</time>
      </trkpt>
      <trkpt lat="45.62574" lon="5.01092">
        <ele>267.40625</ele>
        <time>2017-04-30T09:29:27Z</time>
      </trkpt>
      <trkpt lat="45.62569" lon="5.01079">
        <ele>267.30859375</ele>
        <time>2017-04-30T09:29:37Z</time>
      </trkpt>
      <trkpt lat="45.62561" lon="5.0107">
        <ele>267.171875</ele>
        <time>2017-04-30T09:29:50Z</time>
      </trkpt>
      <trkpt lat="45.62547" lon="5.01063">
        <ele>267.828125</ele>
        <time>2017-04-30T09:30:06Z</time>
      </trkpt>
      <trkpt lat="45.62542" lon="5.0106">
        <ele>268.546875</ele>
        <time>2017-04-30T09:30:10Z</time>
      </trkpt>
      <trkpt lat="45.62525" lon="5.01056">
        <ele>270.796875</ele>
        <time>2017-04-30T09:30:26Z</time>
      </trkpt>
      <trkpt lat="45.62522" lon="5.01059">
        <ele>271.33984375</ele>
        <time>2017-04-30T09:30:30Z</time>
      </trkpt>
      <trkpt lat="45.62512" lon="5.01079">
        <ele>272.94140625</ele>
        <time>2017-04-30T09:30:45Z</time>
      </trkpt>
      <trkpt lat="45.62513" lon="5.01096">
        <ele>273.109375</ele>
        <time>2017-04-30T09:30:59Z</time>
      </trkpt>
      <trkpt lat="45.62511" lon="5.01126">
        <ele>273.828125</ele>
        <time>2017-04-30T09:31:14Z</time>
      </trkpt>
      <trkpt lat="45.62512" lon="5.01131">
        <ele>273.7890625</ele>
        <time>2017-04-30T09:31:16Z</time>
      </trkpt>
      <trkpt lat="45.62509" lon="5.01154">
        <ele>274.453125</ele>
        <time>2017-04-30T09:31:28Z</time>
      </trkpt>
      <trkpt lat="45.62507" lon="5.01169">
        <ele>274.84375</ele>
        <time>2017-04-30T09:31:38Z</time>
      </trkpt>
      <trkpt lat="45.62504" lon="5.01177">
        <ele>275.2421875</ele>
        <time>2017-04-30T09:31:45Z</time>
      </trkpt>
      <trkpt lat="45.62502" lon="5.0118">
        <ele>275.515625</ele>
        <time>2017-04-30T09:31:50Z</time>
      </trkpt>
      <trkpt lat="45.625" lon="5.01183">
        <ele>275.73828125</ele>
        <time>2017-04-30T09:31:53Z</time>
      </trkpt>
      <trkpt lat="45.62493" lon="5.01194">
        <ele>276.66796875</ele>
        <time>2017-04-30T09:32:07Z</time>
      </trkpt>
      <trkpt lat="45.62482" lon="5.01207">
        <ele>278.05859375</ele>
        <time>2017-04-30T09:32:21Z</time>
      </trkpt>
      <trkpt lat="45.62477" lon="5.01213">
        <ele>278.73828125</ele>
        <time>2017-04-30T09:32:29Z</time>
      </trkpt>
      <trkpt lat="45.6246" lon="5.01225">
        <ele>280.5546875</ele>
        <time>2017-04-30T09:32:47Z</time>
      </trkpt>
      <trkpt lat="45.62447" lon="5.0123">
        <ele>281.83984375</ele>
        <time>2017-04-30T09:32:59Z</time>
      </trkpt>
      <trkpt lat="45.62432" lon="5.01233">
        <ele>283.046875</ele>
        <time>2017-04-30T09:33:14Z</time>
      </trkpt>
      <trkpt lat="45.62422" lon="5.01246">
        <ele>283.7890625</ele>
        <time>2017-04-30T09:33:28Z</time>
      </trkpt>
      <trkpt lat="45.62415" lon="5.0126">
        <ele>284.83203125</ele>
        <time>2017-04-30T09:33:42Z</time>
      </trkpt>
      <trkpt lat="45.624" lon="5.01269">
        <ele>286.46484375</ele>
        <time>2017-04-30T09:33:57Z</time>
      </trkpt>
      <trkpt lat="45.62387" lon="5.01282">
        <ele>288.125</ele>
        <time>2017-04-30T09:34:11Z</time>
      </trkpt>
      <trkpt lat="45.62378" lon="5.01291">
        <ele>288.421875</ele>
        <time>2017-04-30T09:34:25Z</time>
      </trkpt>
      <trkpt lat="45.62366" lon="5.01298">
        <ele>288.6796875</ele>
        <time>2017-04-30T09:34:39Z</time>
      </trkpt>
      <trkpt lat="45.62349" lon="5.01307">
        <ele>289.0703125</ele>
        <time>2017-04-30T09:34:54Z</time>
      </trkpt>
      <trkpt lat="45.62331" lon="5.01314">
        <ele>289.44140625</ele>
        <time>2017-04-30T09:35:09Z</time>
      </trkpt>
      <trkpt lat="45.62327" lon="5.01319">
        <ele>289.28125</ele>
        <time>2017-04-30T09:35:22Z</time>
      </trkpt>
      <trkpt lat="45.62319" lon="5.01321">
        <ele>288.78125</ele>
        <time>2017-04-30T09:35:40Z</time>
      </trkpt>
      <trkpt lat="45.62319" lon="5.01321">
        <ele>288.765625</ele>
        <time>2017-04-30T09:35:44Z</time>
      </trkpt>
      <trkpt lat="45.62317" lon="5.01318">
        <ele>288.4296875</ele>
        <time>2017-04-30T09:36:09Z</time>
      </trkpt>
      <trkpt lat="45.62325" lon="5.0132">
        <ele>289.21484375</ele>
        <time>2017-04-30T09:36:25Z</time>
      </trkpt>
      <trkpt lat="45.62329" lon="5.01326">
        <ele>289.8671875</ele>
        <time>2017-04-30T09:36:51Z</time>
      </trkpt>
      <trkpt lat="45.6233" lon="5.01328">
        <ele>290.0859375</ele>
        <time>2017-04-30T09:37:16Z</time>
      </trkpt>
      <trkpt lat="45.62326" lon="5.01326">
        <ele>289.609375</ele>
        <time>2017-04-30T09:37:40Z</time>
      </trkpt>
      <trkpt lat="45.62327" lon="5.01327">
        <ele>289.78515625</ele>
        <time>2017-04-30T09:38:05Z</time>
      </trkpt>
      <trkpt lat="45.62324" lon="5.01325">
        <ele>289.46875</ele>
        <time>2017-04-30T09:38:29Z</time>
      </trkpt>
      <trkpt lat="45.62329" lon="5.01328">
        <ele>290.0625</ele>
        <time>2017-04-30T09:38:54Z</time>
      </trkpt>
      <trkpt lat="45.62337" lon="5.01346">
        <ele>291.16796875</ele>
        <time>2017-04-30T09:39:12Z</time>
      </trkpt>
      <trkpt lat="45.62344" lon="5.01364">
        <ele>292.25</ele>
        <time>2017-04-30T09:39:26Z</time>
      </trkpt>
      <trkpt lat="45.62344" lon="5.01378">
        <ele>293.37109375</ele>
        <time>2017-04-30T09:39:39Z</time>
      </trkpt>
      <trkpt lat="45.62342" lon="5.0139">
        <ele>294.2734375</ele>
        <time>2017-04-30T09:39:52Z</time>
      </trkpt>
      <trkpt lat="45.62338" lon="5.01406">
        <ele>295.39453125</ele>
        <time>2017-04-30T09:40:07Z</time>
      </trkpt>
      <trkpt lat="45.62336" lon="5.01421">
        <ele>296.45703125</ele>
        <time>2017-04-30T09:40:21Z</time>
      </trkpt>
      <trkpt lat="45.62335" lon="5.01442">
        <ele>297.97265625</ele>
        <time>2017-04-30T09:40:35Z</time>
      </trkpt>
      <trkpt lat="45.62336" lon="5.01458">
        <ele>299.19921875</ele>
        <time>2017-04-30T09:40:46Z</time>
      </trkpt>
      <trkpt lat="45.62331" lon="5.01478">
        <ele>300.4765625</ele>
        <time>2017-04-30T09:41:00Z</time>
      </trkpt>
      <trkpt lat="45.62335" lon="5.01497">
        <ele>302.40234375</ele>
        <time>2017-04-30T09:41:12Z</time>
      </trkpt>
      <trkpt lat="45.6234" lon="5.01512">
        <ele>303.9375</ele>
        <time>2017-04-30T09:41:24Z</time>
      </trkpt>
      <trkpt lat="45.62349" lon="5.01531">
        <ele>305.81640625</ele>
        <time>2017-04-30T09:41:41Z</time>
      </trkpt>
      <trkpt lat="45.62355" lon="5.01546">
        <ele>306.84765625</ele>
        <time>2017-04-30T09:41:54Z</time>
      </trkpt>
      <trkpt lat="45.62355" lon="5.01548">
        <ele>306.9375</ele>
        <time>2017-04-30T09:41:55Z</time>
      </trkpt>
      <trkpt lat="45.62365" lon="5.01569">
        <ele>308.45703125</ele>
        <time>2017-04-30T09:42:08Z</time>
      </trkpt>
      <trkpt lat="45.62368" lon="5.01578">
        <ele>309.046875</ele>
        <time>2017-04-30T09:42:13Z</time>
      </trkpt>
      <trkpt lat="45.62373" lon="5.01588">
        <ele>309.625</ele>
        <time>2017-04-30T09:42:20Z</time>
      </trkpt>
      <trkpt lat="45.62381" lon="5.01604">
        <ele>310.25390625</ele>
        <time>2017-04-30T09:42:32Z</time>
      </trkpt>
      <trkpt lat="45.62389" lon="5.01615">
        <ele>310.53515625</ele>
        <time>2017-04-30T09:42:41Z</time>
      </trkpt>
      <trkpt lat="45.62391" lon="5.01628">
        <ele>310.71484375</ele>
        <time>2017-04-30T09:42:50Z</time>
      </trkpt>
      <trkpt lat="45.6239" lon="5.01635">
        <ele>310.86328125</ele>
        <time>2017-04-30T09:42:55Z</time>
      </trkpt>
      <trkpt lat="45.62388" lon="5.01642">
        <ele>311.03515625</ele>
        <time>2017-04-30T09:43:00Z</time>
      </trkpt>
      <trkpt lat="45.62388" lon="5.01646">
        <ele>311.109375</ele>
        <time>2017-04-30T09:43:03Z</time>
      </trkpt>
      <trkpt lat="45.62383" lon="5.01665">
        <ele>311.49609375</ele>
        <time>2017-04-30T09:43:15Z</time>
      </trkpt>
      <trkpt lat="45.62379" lon="5.01679">
        <ele>311.83984375</ele>
        <time>2017-04-30T09:43:25Z</time>
      </trkpt>
      <trkpt lat="45.62375" lon="5.0169">
        <ele>312.125</ele>
        <time>2017-04-30T09:43:32Z</time>
      </trkpt>
      <trkpt lat="45.62373" lon="5.01696">
        <ele>312.26953125</ele>
        <time>2017-04-30T09:43:36Z</time>
      </trkpt>
      <trkpt lat="45.62368" lon="5.01713">
        <ele>312.5703125</ele>
        <time>2017-04-30T09:43:47Z</time>
      </trkpt>
      <trkpt lat="45.62366" lon="5.01727">
        <ele>312.828125</ele>
        <time>2017-04-30T09:43:56Z</time>
      </trkpt>
      <trkpt lat="45.62362" lon="5.0175">
        <ele>313.34375</ele>
        <time>2017-04-30T09:44:09Z</time>
      </trkpt>
      <trkpt lat="45.62361" lon="5.01764">
        <ele>313.91796875</ele>
        <time>2017-04-30T09:44:17Z</time>
      </trkpt>
      <trkpt lat="45.62359" lon="5.01785">
        <ele>314.7421875</ele>
        <time>2017-04-30T09:44:29Z</time>
      </trkpt>
      <trkpt lat="45.62358" lon="5.01796">
        <ele>315.2265625</ele>
        <time>2017-04-30T09:44:36Z</time>
      </trkpt>
      <trkpt lat="45.62357" lon="5.01799">
        <ele>315.37890625</ele>
        <time>2017-04-30T09:44:38Z</time>
      </trkpt>
      <trkpt lat="45.62355" lon="5.01811">
        <ele>315.97265625</ele>
        <time>2017-04-30T09:44:48Z</time>
      </trkpt>
      <trkpt lat="45.62355" lon="5.01812">
        <ele>316.06640625</ele>
        <time>2017-04-30T09:44:49Z</time>
      </trkpt>
      <trkpt lat="45.62355" lon="5.01813">
        <ele>316.15234375</ele>
        <time>2017-04-30T09:44:50Z</time>
      </trkpt>
      <trkpt lat="45.62352" lon="5.01832">
        <ele>317.21484375</ele>
        <time>2017-04-30T09:45:02Z</time>
      </trkpt>
      <trkpt lat="45.62349" lon="5.01844">
        <ele>317.8671875</ele>
        <time>2017-04-30T09:45:10Z</time>
      </trkpt>
      <trkpt lat="45.62348" lon="5.01847">
        <ele>318.0390625</ele>
        <time>2017-04-30T09:45:12Z</time>
      </trkpt>
      <trkpt lat="45.62346" lon="5.01859">
        <ele>318.67578125</ele>
        <time>2017-04-30T09:45:20Z</time>
      </trkpt>
      <trkpt lat="45.62342" lon="5.0188">
        <ele>319.48046875</ele>
        <time>2017-04-30T09:45:32Z</time>
      </trkpt>
      <trkpt lat="45.6234" lon="5.019">
        <ele>320.2265625</ele>
        <time>2017-04-30T09:45:44Z</time>
      </trkpt>
      <trkpt lat="45.6234" lon="5.01912">
        <ele>320.69921875</ele>
        <time>2017-04-30T09:45:51Z</time>
      </trkpt>
      <trkpt lat="45.6234" lon="5.01922">
        <ele>321.02734375</ele>
        <time>2017-04-30T09:45:56Z</time>
      </trkpt>
      <trkpt lat="45.62336" lon="5.01943">
        <ele>321.81640625</ele>
        <time>2017-04-30T09:46:08Z</time>
      </trkpt>
      <trkpt lat="45.62336" lon="5.01961">
        <ele>322.4765625</ele>
        <time>2017-04-30T09:46:18Z</time>
      </trkpt>
      <trkpt lat="45.62333" lon="5.01992">
        <ele>322.95703125</ele>
        <time>2017-04-30T09:46:35Z</time>
      </trkpt>
      <trkpt lat="45.62332" lon="5.02014">
        <ele>322.98828125</ele>
        <time>2017-04-30T09:46:47Z</time>
      </trkpt>
      <trkpt lat="45.62332" lon="5.02027">
        <ele>322.97265625</ele>
        <time>2017-04-30T09:46:54Z</time>
      </trkpt>
      <trkpt lat="45.62332" lon="5.02041">
        <ele>322.96484375</ele>
        <time>2017-04-30T09:47:02Z</time>
      </trkpt>
      <trkpt lat="45.62331" lon="5.02062">
        <ele>322.9921875</ele>
        <time>2017-04-30T09:47:15Z</time>
      </trkpt>
      <trkpt lat="45.62331" lon="5.02063">
        <ele>323</ele>
        <time>2017-04-30T09:47:16Z</time>
      </trkpt>
      <trkpt lat="45.62331" lon="5.02077">
        <ele>323</ele>
        <time>2017-04-30T09:47:23Z</time>
      </trkpt>
      <trkpt lat="45.6233" lon="5.02104">
        <ele>322.61328125</ele>
        <time>2017-04-30T09:47:38Z</time>
      </trkpt>
      <trkpt lat="45.6233" lon="5.0211">
        <ele>322.51953125</ele>
        <time>2017-04-30T09:47:41Z</time>
      </trkpt>
      <trkpt lat="45.62331" lon="5.02126">
        <ele>322.22265625</ele>
        <time>2017-04-30T09:47:49Z</time>
      </trkpt>
      <trkpt lat="45.62332" lon="5.02159">
        <ele>321.578125</ele>
        <time>2017-04-30T09:48:04Z</time>
      </trkpt>
      <trkpt lat="45.62333" lon="5.02191">
        <ele>320.9609375</ele>
        <time>2017-04-30T09:48:18Z</time>
      </trkpt>
      <trkpt lat="45.62334" lon="5.02222">
        <ele>320.8671875</ele>
        <time>2017-04-30T09:48:34Z</time>
      </trkpt>
      <trkpt lat="45.62335" lon="5.02228">
        <ele>320.84375</ele>
        <time>2017-04-30T09:48:38Z</time>
      </trkpt>
      <trkpt lat="45.62335" lon="5.02229">
        <ele>320.8515625</ele>
        <time>2017-04-30T09:48:39Z</time>
      </trkpt>
      <trkpt lat="45.62335" lon="5.02254">
        <ele>320.95703125</ele>
        <time>2017-04-30T09:48:53Z</time>
      </trkpt>
      <trkpt lat="45.62334" lon="5.02268">
        <ele>321.21484375</ele>
        <time>2017-04-30T09:49:04Z</time>
      </trkpt>
      <trkpt lat="45.62335" lon="5.02269">
        <ele>321.22265625</ele>
        <time>2017-04-30T09:49:05Z</time>
      </trkpt>
      <trkpt lat="45.62336" lon="5.02276">
        <ele>321.31640625</ele>
        <time>2017-04-30T09:49:10Z</time>
      </trkpt>
      <trkpt lat="45.62336" lon="5.02301">
        <ele>321.74609375</ele>
        <time>2017-04-30T09:49:26Z</time>
      </trkpt>
      <trkpt lat="45.62336" lon="5.02303">
        <ele>321.796875</ele>
        <time>2017-04-30T09:49:27Z</time>
      </trkpt>
      <trkpt lat="45.62336" lon="5.02308">
        <ele>321.82421875</ele>
        <time>2017-04-30T09:49:30Z</time>
      </trkpt>
      <trkpt lat="45.62336" lon="5.02315">
        <ele>321.82421875</ele>
        <time>2017-04-30T09:49:34Z</time>
      </trkpt>
      <trkpt lat="45.62328" lon="5.02335">
        <ele>322</ele>
        <time>2017-04-30T09:49:46Z</time>
      </trkpt>
      <trkpt lat="45.62321" lon="5.02348">
        <ele>322</ele>
        <time>2017-04-30T09:49:56Z</time>
      </trkpt>
      <trkpt lat="45.6232" lon="5.0235">
        <ele>322</ele>
        <time>2017-04-30T09:49:57Z</time>
      </trkpt>
      <trkpt lat="45.62319" lon="5.02351">
        <ele>322</ele>
        <time>2017-04-30T09:49:58Z</time>
      </trkpt>
      <trkpt lat="45.62315" lon="5.02355">
        <ele>322</ele>
        <time>2017-04-30T09:50:02Z</time>
      </trkpt>
      <trkpt lat="45.6231" lon="5.02347">
        <ele>322</ele>
        <time>2017-04-30T09:50:14Z</time>
      </trkpt>
      <trkpt lat="45.62314" lon="5.02345">
        <ele>322</ele>
        <time>2017-04-30T09:50:28Z</time>
      </trkpt>
      <trkpt lat="45.62315" lon="5.02345">
        <ele>322</ele>
        <time>2017-04-30T09:50:49Z</time>
      </trkpt>
      <trkpt lat="45.62314" lon="5.02344">
        <ele>322</ele>
        <time>2017-04-30T09:51:06Z</time>
      </trkpt>
      <trkpt lat="45.62312" lon="5.02342">
        <ele>322</ele>
        <time>2017-04-30T09:51:16Z</time>
      </trkpt>
      <trkpt lat="45.62312" lon="5.02343">
        <ele>322</ele>
        <time>2017-04-30T09:51:19Z</time>
      </trkpt>
      <trkpt lat="45.6231" lon="5.02345">
        <ele>322</ele>
        <time>2017-04-30T09:51:44Z</time>
      </trkpt>
      <trkpt lat="45.6231" lon="5.02343">
        <ele>322</ele>
        <time>2017-04-30T09:52:18Z</time>
      </trkpt>
      <trkpt lat="45.62309" lon="5.02342">
        <ele>322</ele>
        <time>2017-04-30T09:52:52Z</time>
      </trkpt>
      <trkpt lat="45.6231" lon="5.02342">
        <ele>322</ele>
        <time>2017-04-30T09:53:26Z</time>
      </trkpt>
      <trkpt lat="45.62311" lon="5.02342">
        <ele>322</ele>
        <time>2017-04-30T09:53:58Z</time>
      </trkpt>
      <trkpt lat="45.6231" lon="5.02343">
        <ele>322</ele>
        <time>2017-04-30T09:54:35Z</time>
      </trkpt>
      <trkpt lat="45.6231" lon="5.02342">
        <ele>322</ele>
        <time>2017-04-30T09:55:19Z</time>
      </trkpt>
      <trkpt lat="45.6231" lon="5.02341">
        <ele>322</ele>
        <time>2017-04-30T09:55:56Z</time>
      </trkpt>
      <trkpt lat="45.6231" lon="5.02341">
        <ele>322</ele>
        <time>2017-04-30T09:56:34Z</time>
      </trkpt>
      <trkpt lat="45.62311" lon="5.02343">
        <ele>322</ele>
        <time>2017-04-30T09:57:14Z</time>
      </trkpt>
      <trkpt lat="45.6231" lon="5.02343">
        <ele>322</ele>
        <time>2017-04-30T09:57:54Z</time>
      </trkpt>
      <trkpt lat="45.62312" lon="5.02342">
        <ele>322</ele>
        <time>2017-04-30T09:58:32Z</time>
      </trkpt>
      <trkpt lat="45.62312" lon="5.02343">
        <ele>322</ele>
        <time>2017-04-30T09:59:04Z</time>
      </trkpt>
      <trkpt lat="45.62311" lon="5.02343">
        <ele>322</ele>
        <time>2017-04-30T09:59:32Z</time>
      </trkpt>
      <trkpt lat="45.6231" lon="5.02343">
        <ele>322</ele>
        <time>2017-04-30T09:59:56Z</time>
      </trkpt>
      <trkpt lat="45.6231" lon="5.02342">
        <ele>322</ele>
        <time>2017-04-30T10:00:27Z</time>
      </trkpt>
      <trkpt lat="45.62309" lon="5.02342">
        <ele>322</ele>
        <time>2017-04-30T10:00:58Z</time>
      </trkpt>
      <trkpt lat="45.62309" lon="5.02342">
        <ele>322</ele>
        <time>2017-04-30T10:01:28Z</time>
      </trkpt>
      <trkpt lat="45.6231" lon="5.02342">
        <ele>322</ele>
        <time>2017-04-30T10:01:59Z</time>
      </trkpt>
      <trkpt lat="45.6231" lon="5.02343">
        <ele>322</ele>
        <time>2017-04-30T10:02:29Z</time>
      </trkpt>
      <trkpt lat="45.62311" lon="5.02342">
        <ele>322</ele>
        <time>2017-04-30T10:03:02Z</time>
      </trkpt>
      <trkpt lat="45.6231" lon="5.02342">
        <ele>322</ele>
        <time>2017-04-30T10:03:32Z</time>
      </trkpt>
      <trkpt lat="45.6231" lon="5.02342">
        <ele>322</ele>
        <time>2017-04-30T10:04:02Z</time>
      </trkpt>
      <trkpt lat="45.62309" lon="5.02342">
        <ele>322</ele>
        <time>2017-04-30T10:04:33Z</time>
      </trkpt>
      <trkpt lat="45.62311" lon="5.0234">
        <ele>322</ele>
        <time>2017-04-30T10:05:05Z</time>
      </trkpt>
      <trkpt lat="45.6231" lon="5.02342">
        <ele>322</ele>
        <time>2017-04-30T10:05:45Z</time>
      </trkpt>
      <trkpt lat="45.6231" lon="5.02341">
        <ele>322</ele>
        <time>2017-04-30T10:06:12Z</time>
      </trkpt>
      <trkpt lat="45.62311" lon="5.02344">
        <ele>322</ele>
        <time>2017-04-30T10:06:28Z</time>
      </trkpt>
      <trkpt lat="45.6231" lon="5.02342">
        <ele>322</ele>
        <time>2017-04-30T10:07:03Z</time>
      </trkpt>
      <trkpt lat="45.62311" lon="5.02341">
        <ele>322</ele>
        <time>2017-04-30T10:07:36Z</time>
      </trkpt>
      <trkpt lat="45.6231" lon="5.02342">
        <ele>322</ele>
        <time>2017-04-30T10:08:08Z</time>
      </trkpt>
      <trkpt lat="45.62311" lon="5.02342">
        <ele>322</ele>
        <time>2017-04-30T10:08:38Z</time>
      </trkpt>
      <trkpt lat="45.6231" lon="5.02342">
        <ele>322</ele>
        <time>2017-04-30T10:08:45Z</time>
      </trkpt>
      <trkpt lat="45.6231" lon="5.02342">
        <ele>322</ele>
        <time>2017-04-30T10:08:50Z</time>
      </trkpt>
      <trkpt lat="45.6231" lon="5.02344">
        <ele>322</ele>
        <time>2017-04-30T10:09:21Z</time>
      </trkpt>
      <trkpt lat="45.6231" lon="5.02342">
        <ele>322</ele>
        <time>2017-04-30T10:10:00Z</time>
      </trkpt>
      <trkpt lat="45.6231" lon="5.02344">
        <ele>322</ele>
        <time>2017-04-30T10:10:34Z</time>
      </trkpt>
      <trkpt lat="45.62311" lon="5.02343">
        <ele>322</ele>
        <time>2017-04-30T10:11:07Z</time>
      </trkpt>
      <trkpt lat="45.62311" lon="5.0234">
        <ele>322</ele>
        <time>2017-04-30T10:11:38Z</time>
      </trkpt>
      <trkpt lat="45.6231" lon="5.0234">
        <ele>322</ele>
        <time>2017-04-30T10:12:10Z</time>
      </trkpt>
      <trkpt lat="45.6231" lon="5.02342">
        <ele>322</ele>
        <time>2017-04-30T10:12:42Z</time>
      </trkpt>
      <trkpt lat="45.6231" lon="5.02343">
        <ele>322</ele>
        <time>2017-04-30T10:13:18Z</time>
      </trkpt>
      <trkpt lat="45.6231" lon="5.02345">
        <ele>322</ele>
        <time>2017-04-30T10:13:48Z</time>
      </trkpt>
      <trkpt lat="45.6231" lon="5.02343">
        <ele>322</ele>
        <time>2017-04-30T10:14:21Z</time>
      </trkpt>
      <trkpt lat="45.6231" lon="5.02343">
        <ele>322</ele>
        <time>2017-04-30T10:14:51Z</time>
      </trkpt>
      <trkpt lat="45.6231" lon="5.02342">
        <ele>322</ele>
        <time>2017-04-30T10:15:27Z</time>
      </trkpt>
      <trkpt lat="45.62311" lon="5.02341">
        <ele>322</ele>
        <time>2017-04-30T10:15:57Z</time>
      </trkpt>
      <trkpt lat="45.62311" lon="5.02341">
        <ele>322</ele>
        <time>2017-04-30T10:16:26Z</time>
      </trkpt>
      <trkpt lat="45.62311" lon="5.02341">
        <ele>322</ele>
        <time>2017-04-30T10:16:58Z</time>
      </trkpt>
      <trkpt lat="45.62312" lon="5.02343">
        <ele>322</ele>
        <time>2017-04-30T10:17:31Z</time>
      </trkpt>
      <trkpt lat="45.62312" lon="5.02343">
        <ele>322</ele>
        <time>2017-04-30T10:18:11Z</time>
      </trkpt>
      <trkpt lat="45.62311" lon="5.02342">
        <ele>322</ele>
        <time>2017-04-30T10:18:47Z</time>
      </trkpt>
      <trkpt lat="45.62311" lon="5.02342">
        <ele>322</ele>
        <time>2017-04-30T10:19:24Z</time>
      </trkpt>
      <trkpt lat="45.62309" lon="5.02342">
        <ele>322</ele>
        <time>2017-04-30T10:19:59Z</time>
      </trkpt>
      <trkpt lat="45.6231" lon="5.02341">
        <ele>322</ele>
        <time>2017-04-30T10:20:28Z</time>
      </trkpt>
      <trkpt lat="45.6231" lon="5.02341">
        <ele>322</ele>
        <time>2017-04-30T10:20:51Z</time>
      </trkpt>
      <trkpt lat="45.62312" lon="5.0234">
        <ele>322</ele>
        <time>2017-04-30T10:21:23Z</time>
      </trkpt>
      <trkpt lat="45.6231" lon="5.0234">
        <ele>322</ele>
        <time>2017-04-30T10:22:00Z</time>
      </trkpt>
      <trkpt lat="45.62309" lon="5.0234">
        <ele>322</ele>
        <time>2017-04-30T10:22:29Z</time>
      </trkpt>
      <trkpt lat="45.6231" lon="5.02341">
        <ele>322</ele>
        <time>2017-04-30T10:23:04Z</time>
      </trkpt>
      <trkpt lat="45.6231" lon="5.02339">
        <ele>322</ele>
        <time>2017-04-30T10:23:30Z</time>
      </trkpt>
      <trkpt lat="45.62309" lon="5.02339">
        <ele>322</ele>
        <time>2017-04-30T10:23:54Z</time>
      </trkpt>
      <trkpt lat="45.6231" lon="5.02338">
        <ele>322</ele>
        <time>2017-04-30T10:24:14Z</time>
      </trkpt>
      <trkpt lat="45.62311" lon="5.02338">
        <ele>322</ele>
        <time>2017-04-30T10:24:40Z</time>
      </trkpt>
      <trkpt lat="45.62313" lon="5.0234">
        <ele>322</ele>
        <time>2017-04-30T10:25:01Z</time>
      </trkpt>
      <trkpt lat="45.6231" lon="5.02343">
        <ele>322</ele>
        <time>2017-04-30T10:25:21Z</time>
      </trkpt>
      <trkpt lat="45.62311" lon="5.0235">
        <ele>322</ele>
        <time>2017-04-30T10:25:26Z</time>
      </trkpt>
      <trkpt lat="45.62311" lon="5.02352">
        <ele>322</ele>
        <time>2017-04-30T10:25:27Z</time>
      </trkpt>
      <trkpt lat="45.62314" lon="5.0236">
        <ele>322</ele>
        <time>2017-04-30T10:25:33Z</time>
      </trkpt>
      <trkpt lat="45.62312" lon="5.02369">
        <ele>321.90234375</ele>
        <time>2017-04-30T10:25:44Z</time>
      </trkpt>
      <trkpt lat="45.62306" lon="5.02388">
        <ele>321.734375</ele>
        <time>2017-04-30T10:25:58Z</time>
      </trkpt>
      <trkpt lat="45.62301" lon="5.024">
        <ele>321.671875</ele>
        <time>2017-04-30T10:26:08Z</time>
      </trkpt>
      <trkpt lat="45.62301" lon="5.02402">
        <ele>321.65625</ele>
        <time>2017-04-30T10:26:09Z</time>
      </trkpt>
      <trkpt lat="45.62301" lon="5.02404">
        <ele>321.6484375</ele>
        <time>2017-04-30T10:26:10Z</time>
      </trkpt>
      <trkpt lat="45.623" lon="5.02406">
        <ele>321.64453125</ele>
        <time>2017-04-30T10:26:11Z</time>
      </trkpt>
      <trkpt lat="45.623" lon="5.02407">
        <ele>321.63671875</ele>
        <time>2017-04-30T10:26:12Z</time>
      </trkpt>
      <trkpt lat="45.62299" lon="5.0241">
        <ele>321.6328125</ele>
        <time>2017-04-30T10:26:14Z</time>
      </trkpt>
      <trkpt lat="45.62297" lon="5.02414">
        <ele>321.640625</ele>
        <time>2017-04-30T10:26:17Z</time>
      </trkpt>
      <trkpt lat="45.62296" lon="5.02415">
        <ele>321.640625</ele>
        <time>2017-04-30T10:26:18Z</time>
      </trkpt>
      <trkpt lat="45.62289" lon="5.02431">
        <ele>321.23828125</ele>
        <time>2017-04-30T10:26:29Z</time>
      </trkpt>
      <trkpt lat="45.62283" lon="5.02445">
        <ele>320.84765625</ele>
        <time>2017-04-30T10:26:40Z</time>
      </trkpt>
      <trkpt lat="45.62281" lon="5.02448">
        <ele>320.734375</ele>
        <time>2017-04-30T10:26:43Z</time>
      </trkpt>
      <trkpt lat="45.62281" lon="5.0245">
        <ele>320.68359375</ele>
        <time>2017-04-30T10:26:44Z</time>
      </trkpt>
      <trkpt lat="45.62274" lon="5.02462">
        <ele>320.359375</ele>
        <time>2017-04-30T10:26:53Z</time>
      </trkpt>
      <trkpt lat="45.62273" lon="5.02464">
        <ele>320.30078125</ele>
        <time>2017-04-30T10:26:55Z</time>
      </trkpt>
      <trkpt lat="45.62272" lon="5.02466">
        <ele>320.25390625</ele>
        <time>2017-04-30T10:26:56Z</time>
      </trkpt>
      <trkpt lat="45.62272" lon="5.02467">
        <ele>320.21484375</ele>
        <time>2017-04-30T10:26:57Z</time>
      </trkpt>
      <trkpt lat="45.62266" lon="5.0248">
        <ele>320.0234375</ele>
        <time>2017-04-30T10:27:07Z</time>
      </trkpt>
      <trkpt lat="45.62265" lon="5.02481">
        <ele>320.01953125</ele>
        <time>2017-04-30T10:27:08Z</time>
      </trkpt>
      <trkpt lat="45.62255" lon="5.02499">
        <ele>319.87890625</ele>
        <time>2017-04-30T10:27:20Z</time>
      </trkpt>
      <trkpt lat="45.62251" lon="5.02503">
        <ele>319.8671875</ele>
        <time>2017-04-30T10:27:24Z</time>
      </trkpt>
      <trkpt lat="45.6225" lon="5.02504">
        <ele>319.87109375</ele>
        <time>2017-04-30T10:27:25Z</time>
      </trkpt>
      <trkpt lat="45.62249" lon="5.02506">
        <ele>319.859375</ele>
        <time>2017-04-30T10:27:26Z</time>
      </trkpt>
      <trkpt lat="45.62248" lon="5.02507">
        <ele>319.84765625</ele>
        <time>2017-04-30T10:27:27Z</time>
      </trkpt>
      <trkpt lat="45.62247" lon="5.02509">
        <ele>319.83984375</ele>
        <time>2017-04-30T10:27:28Z</time>
      </trkpt>
      <trkpt lat="45.62246" lon="5.0251">
        <ele>319.8359375</ele>
        <time>2017-04-30T10:27:29Z</time>
      </trkpt>
      <trkpt lat="45.62245" lon="5.02512">
        <ele>319.828125</ele>
        <time>2017-04-30T10:27:30Z</time>
      </trkpt>
      <trkpt lat="45.62239" lon="5.02519">
        <ele>319.81640625</ele>
        <time>2017-04-30T10:27:37Z</time>
      </trkpt>
      <trkpt lat="45.62238" lon="5.02519">
        <ele>319.82421875</ele>
        <time>2017-04-30T10:27:38Z</time>
      </trkpt>
      <trkpt lat="45.62236" lon="5.02521">
        <ele>319.82421875</ele>
        <time>2017-04-30T10:27:40Z</time>
      </trkpt>
      <trkpt lat="45.62236" lon="5.02522">
        <ele>319.8203125</ele>
        <time>2017-04-30T10:27:41Z</time>
      </trkpt>
      <trkpt lat="45.62235" lon="5.02523">
        <ele>319.81640625</ele>
        <time>2017-04-30T10:27:42Z</time>
      </trkpt>
      <trkpt lat="45.62234" lon="5.02524">
        <ele>319.81640625</ele>
        <time>2017-04-30T10:27:43Z</time>
      </trkpt>
      <trkpt lat="45.62233" lon="5.02525">
        <ele>319.8125</ele>
        <time>2017-04-30T10:27:44Z</time>
      </trkpt>
      <trkpt lat="45.62232" lon="5.02526">
        <ele>319.8125</ele>
        <time>2017-04-30T10:27:45Z</time>
      </trkpt>
      <trkpt lat="45.6223" lon="5.02527">
        <ele>319.81640625</ele>
        <time>2017-04-30T10:27:46Z</time>
      </trkpt>
      <trkpt lat="45.62215" lon="5.02541">
        <ele>319.81640625</ele>
        <time>2017-04-30T10:27:59Z</time>
      </trkpt>
      <trkpt lat="45.62201" lon="5.02553">
        <ele>319.71484375</ele>
        <time>2017-04-30T10:28:12Z</time>
      </trkpt>
      <trkpt lat="45.62188" lon="5.02563">
        <ele>319.55078125</ele>
        <time>2017-04-30T10:28:24Z</time>
      </trkpt>
      <trkpt lat="45.62178" lon="5.02569">
        <ele>319.421875</ele>
        <time>2017-04-30T10:28:33Z</time>
      </trkpt>
      <trkpt lat="45.62177" lon="5.0257">
        <ele>319.41015625</ele>
        <time>2017-04-30T10:28:34Z</time>
      </trkpt>
      <trkpt lat="45.62176" lon="5.0257">
        <ele>319.39453125</ele>
        <time>2017-04-30T10:28:35Z</time>
      </trkpt>
      <trkpt lat="45.62175" lon="5.02571">
        <ele>319.39453125</ele>
        <time>2017-04-30T10:28:36Z</time>
      </trkpt>
      <trkpt lat="45.62169" lon="5.02574">
        <ele>319.30078125</ele>
        <time>2017-04-30T10:28:47Z</time>
      </trkpt>
      <trkpt lat="45.62163" lon="5.02574">
        <ele>319.38671875</ele>
        <time>2017-04-30T10:29:04Z</time>
      </trkpt>
      <trkpt lat="45.6215" lon="5.0258">
        <ele>319.89453125</ele>
        <time>2017-04-30T10:29:16Z</time>
      </trkpt>
      <trkpt lat="45.62145" lon="5.02584">
        <ele>320.06640625</ele>
        <time>2017-04-30T10:29:21Z</time>
      </trkpt>
      <trkpt lat="45.62143" lon="5.02585">
        <ele>320.1171875</ele>
        <time>2017-04-30T10:29:22Z</time>
      </trkpt>
      <trkpt lat="45.62142" lon="5.02586">
        <ele>320.171875</ele>
        <time>2017-04-30T10:29:23Z</time>
      </trkpt>
      <trkpt lat="45.62134" lon="5.02593">
        <ele>320.50390625</ele>
        <time>2017-04-30T10:29:31Z</time>
      </trkpt>
      <trkpt lat="45.62132" lon="5.02594">
        <ele>320.5546875</ele>
        <time>2017-04-30T10:29:32Z</time>
      </trkpt>
      <trkpt lat="45.62119" lon="5.02607">
        <ele>321.03125</ele>
        <time>2017-04-30T10:29:45Z</time>
      </trkpt>
      <trkpt lat="45.62109" lon="5.02618">
        <ele>321.36328125</ele>
        <time>2017-04-30T10:29:55Z</time>
      </trkpt>
      <trkpt lat="45.62108" lon="5.02619">
        <ele>321.3828125</ele>
        <time>2017-04-30T10:29:56Z</time>
      </trkpt>
      <trkpt lat="45.62108" lon="5.02621">
        <ele>321.41015625</ele>
        <time>2017-04-30T10:29:57Z</time>
      </trkpt>
      <trkpt lat="45.62107" lon="5.02623">
        <ele>321.4375</ele>
        <time>2017-04-30T10:29:58Z</time>
      </trkpt>
      <trkpt lat="45.62106" lon="5.02624">
        <ele>321.48046875</ele>
        <time>2017-04-30T10:29:59Z</time>
      </trkpt>
      <trkpt lat="45.62104" lon="5.02625">
        <ele>321.54296875</ele>
        <time>2017-04-30T10:30:00Z</time>
      </trkpt>
      <trkpt lat="45.62105" lon="5.02634">
        <ele>321.359375</ele>
        <time>2017-04-30T10:30:07Z</time>
      </trkpt>
      <trkpt lat="45.62107" lon="5.02636">
        <ele>321.171875</ele>
        <time>2017-04-30T10:30:10Z</time>
      </trkpt>
      <trkpt lat="45.62116" lon="5.02639">
        <ele>320.62109375</ele>
        <time>2017-04-30T10:30:19Z</time>
      </trkpt>
      <trkpt lat="45.62117" lon="5.0264">
        <ele>320.5625</ele>
        <time>2017-04-30T10:30:20Z</time>
      </trkpt>
      <trkpt lat="45.62119" lon="5.02641">
        <ele>320.4921875</ele>
        <time>2017-04-30T10:30:21Z</time>
      </trkpt>
      <trkpt lat="45.6212" lon="5.02642">
        <ele>320.4296875</ele>
        <time>2017-04-30T10:30:22Z</time>
      </trkpt>
      <trkpt lat="45.62132" lon="5.02648">
        <ele>319.828125</ele>
        <time>2017-04-30T10:30:34Z</time>
      </trkpt>
      <trkpt lat="45.62146" lon="5.02654">
        <ele>319.23046875</ele>
        <time>2017-04-30T10:30:46Z</time>
      </trkpt>
      <trkpt lat="45.62157" lon="5.0266">
        <ele>318.78515625</ele>
        <time>2017-04-30T10:30:55Z</time>
      </trkpt>
      <trkpt lat="45.62159" lon="5.02661">
        <ele>318.68359375</ele>
        <time>2017-04-30T10:30:57Z</time>
      </trkpt>
      <trkpt lat="45.62167" lon="5.02666">
        <ele>318.35546875</ele>
        <time>2017-04-30T10:31:02Z</time>
      </trkpt>
      <trkpt lat="45.62169" lon="5.02667">
        <ele>318.1328125</ele>
        <time>2017-04-30T10:31:05Z</time>
      </trkpt>
      <trkpt lat="45.62186" lon="5.02676">
        <ele>316.78515625</ele>
        <time>2017-04-30T10:31:18Z</time>
      </trkpt>
      <trkpt lat="45.62204" lon="5.02686">
        <ele>314.9296875</ele>
        <time>2017-04-30T10:31:33Z</time>
      </trkpt>
      <trkpt lat="45.62222" lon="5.02696">
        <ele>312.91796875</ele>
        <time>2017-04-30T10:31:46Z</time>
      </trkpt>
      <trkpt lat="45.62241" lon="5.02704">
        <ele>311.82421875</ele>
        <time>2017-04-30T10:32:01Z</time>
      </trkpt>
      <trkpt lat="45.62265" lon="5.02715">
        <ele>309.54296875</ele>
        <time>2017-04-30T10:32:17Z</time>
      </trkpt>
      <trkpt lat="45.62278" lon="5.02725">
        <ele>307.609375</ele>
        <time>2017-04-30T10:32:28Z</time>
      </trkpt>
      <trkpt lat="45.62291" lon="5.02737">
        <ele>306.01953125</ele>
        <time>2017-04-30T10:32:41Z</time>
      </trkpt>
      <trkpt lat="45.62294" lon="5.0274">
        <ele>305.65234375</ele>
        <time>2017-04-30T10:32:44Z</time>
      </trkpt>
      <trkpt lat="45.62311" lon="5.02752">
        <ele>304.11328125</ele>
        <time>2017-04-30T10:32:58Z</time>
      </trkpt>
      <trkpt lat="45.62323" lon="5.02764">
        <ele>302.82421875</ele>
        <time>2017-04-30T10:33:10Z</time>
      </trkpt>
      <trkpt lat="45.62338" lon="5.02775">
        <ele>301.3828125</ele>
        <time>2017-04-30T10:33:23Z</time>
      </trkpt>
      <trkpt lat="45.62342" lon="5.02778">
        <ele>300.90625</ele>
        <time>2017-04-30T10:33:27Z</time>
      </trkpt>
      <trkpt lat="45.62345" lon="5.02779">
        <ele>300.73828125</ele>
        <time>2017-04-30T10:33:29Z</time>
      </trkpt>
      <trkpt lat="45.62359" lon="5.0279">
        <ele>299.2265625</ele>
        <time>2017-04-30T10:33:42Z</time>
      </trkpt>
      <trkpt lat="45.62375" lon="5.02801">
        <ele>297.671875</ele>
        <time>2017-04-30T10:33:56Z</time>
      </trkpt>
      <trkpt lat="45.6239" lon="5.02813">
        <ele>296.27734375</ele>
        <time>2017-04-30T10:34:09Z</time>
      </trkpt>
      <trkpt lat="45.62392" lon="5.02815">
        <ele>296.01171875</ele>
        <time>2017-04-30T10:34:11Z</time>
      </trkpt>
      <trkpt lat="45.62393" lon="5.02815">
        <ele>295.89453125</ele>
        <time>2017-04-30T10:34:12Z</time>
      </trkpt>
      <trkpt lat="45.62407" lon="5.02826">
        <ele>294.39453125</ele>
        <time>2017-04-30T10:34:27Z</time>
      </trkpt>
      <trkpt lat="45.62421" lon="5.02836">
        <ele>292.9140625</ele>
        <time>2017-04-30T10:34:39Z</time>
      </trkpt>
      <trkpt lat="45.62434" lon="5.02851">
        <ele>291.140625</ele>
        <time>2017-04-30T10:34:54Z</time>
      </trkpt>
      <trkpt lat="45.62441" lon="5.02859">
        <ele>290.16796875</ele>
        <time>2017-04-30T10:35:08Z</time>
      </trkpt>
      <trkpt lat="45.62453" lon="5.02871">
        <ele>289.234375</ele>
        <time>2017-04-30T10:35:20Z</time>
      </trkpt>
      <trkpt lat="45.62462" lon="5.02877">
        <ele>288.65625</ele>
        <time>2017-04-30T10:35:30Z</time>
      </trkpt>
      <trkpt lat="45.62477" lon="5.02889">
        <ele>287.61328125</ele>
        <time>2017-04-30T10:35:42Z</time>
      </trkpt>
      <trkpt lat="45.62491" lon="5.02899">
        <ele>286.66796875</ele>
        <time>2017-04-30T10:35:53Z</time>
      </trkpt>
      <trkpt lat="45.62501" lon="5.02905">
        <ele>285.95703125</ele>
        <time>2017-04-30T10:36:04Z</time>
      </trkpt>
      <trkpt lat="45.62514" lon="5.02908">
        <ele>284.96875</ele>
        <time>2017-04-30T10:36:16Z</time>
      </trkpt>
      <trkpt lat="45.62532" lon="5.02911">
        <ele>283.625</ele>
        <time>2017-04-30T10:36:30Z</time>
      </trkpt>
      <trkpt lat="45.62545" lon="5.02909">
        <ele>282.69921875</ele>
        <time>2017-04-30T10:36:44Z</time>
      </trkpt>
      <trkpt lat="45.62554" lon="5.02907">
        <ele>282.16796875</ele>
        <time>2017-04-30T10:36:59Z</time>
      </trkpt>
      <trkpt lat="45.62554" lon="5.02913">
        <ele>282.06640625</ele>
        <time>2017-04-30T10:37:19Z</time>
      </trkpt>
      <trkpt lat="45.62559" lon="5.02922">
        <ele>282.20703125</ele>
        <time>2017-04-30T10:37:31Z</time>
      </trkpt>
      <trkpt lat="45.62562" lon="5.02926">
        <ele>282.33984375</ele>
        <time>2017-04-30T10:37:35Z</time>
      </trkpt>
      <trkpt lat="45.62573" lon="5.02939">
        <ele>282.7578125</ele>
        <time>2017-04-30T10:37:47Z</time>
      </trkpt>
      <trkpt lat="45.62582" lon="5.0295">
        <ele>283.12109375</ele>
        <time>2017-04-30T10:37:57Z</time>
      </trkpt>
      <trkpt lat="45.62589" lon="5.02955">
        <ele>283.3359375</ele>
        <time>2017-04-30T10:38:05Z</time>
      </trkpt>
      <trkpt lat="45.62598" lon="5.02964">
        <ele>283.6796875</ele>
        <time>2017-04-30T10:38:15Z</time>
      </trkpt>
      <trkpt lat="45.62612" lon="5.02979">
        <ele>284.71484375</ele>
        <time>2017-04-30T10:38:31Z</time>
      </trkpt>
      <trkpt lat="45.62615" lon="5.02982">
        <ele>285.296875</ele>
        <time>2017-04-30T10:38:34Z</time>
      </trkpt>
      <trkpt lat="45.62617" lon="5.02984">
        <ele>285.55859375</ele>
        <time>2017-04-30T10:38:36Z</time>
      </trkpt>
      <trkpt lat="45.62624" lon="5.02995">
        <ele>286.7734375</ele>
        <time>2017-04-30T10:38:48Z</time>
      </trkpt>
      <trkpt lat="45.62632" lon="5.03007">
        <ele>287.99609375</ele>
        <time>2017-04-30T10:39:01Z</time>
      </trkpt>
      <trkpt lat="45.62651" lon="5.03019">
        <ele>289.9140625</ele>
        <time>2017-04-30T10:39:15Z</time>
      </trkpt>
      <trkpt lat="45.62662" lon="5.03021">
        <ele>290.9765625</ele>
        <time>2017-04-30T10:39:27Z</time>
      </trkpt>
      <trkpt lat="45.62667" lon="5.03023">
        <ele>291.59765625</ele>
        <time>2017-04-30T10:39:40Z</time>
      </trkpt>
      <trkpt lat="45.62667" lon="5.03023">
        <ele>291.6015625</ele>
        <time>2017-04-30T10:39:55Z</time>
      </trkpt>
      <trkpt lat="45.62675" lon="5.03027">
        <ele>292.6328125</ele>
        <time>2017-04-30T10:40:12Z</time>
      </trkpt>
      <trkpt lat="45.62684" lon="5.03038">
        <ele>294.30859375</ele>
        <time>2017-04-30T10:40:25Z</time>
      </trkpt>
      <trkpt lat="45.62695" lon="5.03051">
        <ele>295.8828125</ele>
        <time>2017-04-30T10:40:40Z</time>
      </trkpt>
      <trkpt lat="45.62704" lon="5.03062">
        <ele>296.921875</ele>
        <time>2017-04-30T10:40:50Z</time>
      </trkpt>
      <trkpt lat="45.62717" lon="5.03076">
        <ele>297.90625</ele>
        <time>2017-04-30T10:41:04Z</time>
      </trkpt>
      <trkpt lat="45.62726" lon="5.03086">
        <ele>299.46875</ele>
        <time>2017-04-30T10:41:14Z</time>
      </trkpt>
      <trkpt lat="45.62731" lon="5.03095">
        <ele>301.1171875</ele>
        <time>2017-04-30T10:41:21Z</time>
      </trkpt>
      <trkpt lat="45.62738" lon="5.03104">
        <ele>302.88671875</ele>
        <time>2017-04-30T10:41:32Z</time>
      </trkpt>
      <trkpt lat="45.62748" lon="5.03118">
        <ele>304.921875</ele>
        <time>2017-04-30T10:41:45Z</time>
      </trkpt>
      <trkpt lat="45.6275" lon="5.03122">
        <ele>305.390625</ele>
        <time>2017-04-30T10:41:48Z</time>
      </trkpt>
      <trkpt lat="45.62758" lon="5.03134">
        <ele>306.58203125</ele>
        <time>2017-04-30T10:42:00Z</time>
      </trkpt>
      <trkpt lat="45.62759" lon="5.03134">
        <ele>306.671875</ele>
        <time>2017-04-30T10:42:01Z</time>
      </trkpt>
      <trkpt lat="45.62771" lon="5.03144">
        <ele>308.16015625</ele>
        <time>2017-04-30T10:42:16Z</time>
      </trkpt>
      <trkpt lat="45.62782" lon="5.03147">
        <ele>309.66015625</ele>
        <time>2017-04-30T10:42:28Z</time>
      </trkpt>
      <trkpt lat="45.62788" lon="5.03148">
        <ele>310.59375</ele>
        <time>2017-04-30T10:42:35Z</time>
      </trkpt>
      <trkpt lat="45.62796" lon="5.03155">
        <ele>312.203125</ele>
        <time>2017-04-30T10:42:46Z</time>
      </trkpt>
      <trkpt lat="45.62805" lon="5.03158">
        <ele>313.62890625</ele>
        <time>2017-04-30T10:42:58Z</time>
      </trkpt>
      <trkpt lat="45.62807" lon="5.03158">
        <ele>313.88671875</ele>
        <time>2017-04-30T10:43:00Z</time>
      </trkpt>
      <trkpt lat="45.62816" lon="5.03159">
        <ele>315.26171875</ele>
        <time>2017-04-30T10:43:10Z</time>
      </trkpt>
      <trkpt lat="45.62822" lon="5.0316">
        <ele>316.15234375</ele>
        <time>2017-04-30T10:43:21Z</time>
      </trkpt>
      <trkpt lat="45.62819" lon="5.0316">
        <ele>315.74609375</ele>
        <time>2017-04-30T10:43:36Z</time>
      </trkpt>
      <trkpt lat="45.62818" lon="5.03161">
        <ele>315.64453125</ele>
        <time>2017-04-30T10:43:59Z</time>
      </trkpt>
      <trkpt lat="45.62823" lon="5.03164">
        <ele>316.42578125</ele>
        <time>2017-04-30T10:44:10Z</time>
      </trkpt>
      <trkpt lat="45.62832" lon="5.03162">
        <ele>317.4765625</ele>
        <time>2017-04-30T10:44:31Z</time>
      </trkpt>
      <trkpt lat="45.62836" lon="5.03171">
        <ele>317.71875</ele>
        <time>2017-04-30T10:44:50Z</time>
      </trkpt>
      <trkpt lat="45.62843" lon="5.03182">
        <ele>318.05078125</ele>
        <time>2017-04-30T10:45:03Z</time>
      </trkpt>
      <trkpt lat="45.62846" lon="5.03188">
        <ele>318.19140625</ele>
        <time>2017-04-30T10:45:07Z</time>
      </trkpt>
      <trkpt lat="45.62847" lon="5.03189">
        <ele>318.2421875</ele>
        <time>2017-04-30T10:45:09Z</time>
      </trkpt>
      <trkpt lat="45.6285" lon="5.03193">
        <ele>318.328125</ele>
        <time>2017-04-30T10:45:13Z</time>
      </trkpt>
      <trkpt lat="45.62853" lon="5.03197">
        <ele>318.47265625</ele>
        <time>2017-04-30T10:45:17Z</time>
      </trkpt>
      <trkpt lat="45.62854" lon="5.03198">
        <ele>318.515625</ele>
        <time>2017-04-30T10:45:18Z</time>
      </trkpt>
      <trkpt lat="45.6286" lon="5.03207">
        <ele>318.765625</ele>
        <time>2017-04-30T10:45:27Z</time>
      </trkpt>
      <trkpt lat="45.62861" lon="5.03209">
        <ele>318.796875</ele>
        <time>2017-04-30T10:45:28Z</time>
      </trkpt>
      <trkpt lat="45.62862" lon="5.03211">
        <ele>318.828125</ele>
        <time>2017-04-30T10:45:29Z</time>
      </trkpt>
      <trkpt lat="45.62863" lon="5.03213">
        <ele>318.87890625</ele>
        <time>2017-04-30T10:45:31Z</time>
      </trkpt>
      <trkpt lat="45.62864" lon="5.03214">
        <ele>318.89453125</ele>
        <time>2017-04-30T10:45:32Z</time>
      </trkpt>
      <trkpt lat="45.62867" lon="5.03219">
        <ele>318.98046875</ele>
        <time>2017-04-30T10:45:37Z</time>
      </trkpt>
      <trkpt lat="45.62863" lon="5.03237">
        <ele>319.25</ele>
        <time>2017-04-30T10:45:52Z</time>
      </trkpt>
      <trkpt lat="45.62859" lon="5.03245">
        <ele>319.41796875</ele>
        <time>2017-04-30T10:45:58Z</time>
      </trkpt>
      <trkpt lat="45.62852" lon="5.03262">
        <ele>319.71484375</ele>
        <time>2017-04-30T10:46:12Z</time>
      </trkpt>
      <trkpt lat="45.62848" lon="5.03274">
        <ele>319.83203125</ele>
        <time>2017-04-30T10:46:20Z</time>
      </trkpt>
      <trkpt lat="45.62847" lon="5.0329">
        <ele>319.921875</ele>
        <time>2017-04-30T10:46:31Z</time>
      </trkpt>
      <trkpt lat="45.62847" lon="5.03294">
        <ele>319.9453125</ele>
        <time>2017-04-30T10:46:34Z</time>
      </trkpt>
      <trkpt lat="45.62849" lon="5.03303">
        <ele>319.98828125</ele>
        <time>2017-04-30T10:46:40Z</time>
      </trkpt>
      <trkpt lat="45.62851" lon="5.03313">
        <ele>320.1484375</ele>
        <time>2017-04-30T10:46:48Z</time>
      </trkpt>
      <trkpt lat="45.62853" lon="5.03326">
        <ele>320.38671875</ele>
        <time>2017-04-30T10:46:56Z</time>
      </trkpt>
      <trkpt lat="45.62854" lon="5.03329">
        <ele>320.4453125</ele>
        <time>2017-04-30T10:46:58Z</time>
      </trkpt>
      <trkpt lat="45.62855" lon="5.03332">
        <ele>320.5</ele>
        <time>2017-04-30T10:47:00Z</time>
      </trkpt>
      <trkpt lat="45.62855" lon="5.03334">
        <ele>320.5234375</ele>
        <time>2017-04-30T10:47:01Z</time>
      </trkpt>
      <trkpt lat="45.62856" lon="5.03335">
        <ele>320.546875</ele>
        <time>2017-04-30T10:47:02Z</time>
      </trkpt>
      <trkpt lat="45.62861" lon="5.03352">
        <ele>320.85546875</ele>
        <time>2017-04-30T10:47:14Z</time>
      </trkpt>
      <trkpt lat="45.62864" lon="5.03373">
        <ele>321</ele>
        <time>2017-04-30T10:47:28Z</time>
      </trkpt>
      <trkpt lat="45.62867" lon="5.03391">
        <ele>321</ele>
        <time>2017-04-30T10:47:41Z</time>
      </trkpt>
      <trkpt lat="45.62869" lon="5.0341">
        <ele>321</ele>
        <time>2017-04-30T10:47:52Z</time>
      </trkpt>
      <trkpt lat="45.62873" lon="5.03431">
        <ele>321.28515625</ele>
        <time>2017-04-30T10:48:05Z</time>
      </trkpt>
      <trkpt lat="45.62875" lon="5.03448">
        <ele>321.578125</ele>
        <time>2017-04-30T10:48:15Z</time>
      </trkpt>
      <trkpt lat="45.62876" lon="5.0345">
        <ele>321.6171875</ele>
        <time>2017-04-30T10:48:16Z</time>
      </trkpt>
      <trkpt lat="45.62876" lon="5.03452">
        <ele>321.65234375</ele>
        <time>2017-04-30T10:48:17Z</time>
      </trkpt>
      <trkpt lat="45.62876" lon="5.03453">
        <ele>321.68359375</ele>
        <time>2017-04-30T10:48:18Z</time>
      </trkpt>
      <trkpt lat="45.62877" lon="5.03455">
        <ele>321.7109375</ele>
        <time>2017-04-30T10:48:19Z</time>
      </trkpt>
      <trkpt lat="45.62878" lon="5.03473">
        <ele>322.03125</ele>
        <time>2017-04-30T10:48:31Z</time>
      </trkpt>
      <trkpt lat="45.62874" lon="5.03487">
        <ele>322.21875</ele>
        <time>2017-04-30T10:48:42Z</time>
      </trkpt>
      <trkpt lat="45.62871" lon="5.03489">
        <ele>322.2265625</ele>
        <time>2017-04-30T10:48:55Z</time>
      </trkpt>
      <trkpt lat="45.6287" lon="5.03489">
        <ele>322.23046875</ele>
        <time>2017-04-30T10:48:56Z</time>
      </trkpt>
      <trkpt lat="45.62869" lon="5.03491">
        <ele>322.24609375</ele>
        <time>2017-04-30T10:48:57Z</time>
      </trkpt>
      <trkpt lat="45.62865" lon="5.03507">
        <ele>322.39453125</ele>
        <time>2017-04-30T10:49:09Z</time>
      </trkpt>
      <trkpt lat="45.62863" lon="5.03513">
        <ele>322.44140625</ele>
        <time>2017-04-30T10:49:13Z</time>
      </trkpt>
      <trkpt lat="45.62862" lon="5.03517">
        <ele>322.4609375</ele>
        <time>2017-04-30T10:49:16Z</time>
      </trkpt>
      <trkpt lat="45.62861" lon="5.0352">
        <ele>322.4765625</ele>
        <time>2017-04-30T10:49:18Z</time>
      </trkpt>
      <trkpt lat="45.62858" lon="5.03534">
        <ele>322.69140625</ele>
        <time>2017-04-30T10:49:28Z</time>
      </trkpt>
      <trkpt lat="45.62855" lon="5.03547">
        <ele>322.953125</ele>
        <time>2017-04-30T10:49:36Z</time>
      </trkpt>
      <trkpt lat="45.62855" lon="5.03548">
        <ele>322.984375</ele>
        <time>2017-04-30T10:49:37Z</time>
      </trkpt>
      <trkpt lat="45.62853" lon="5.03556">
        <ele>323.14453125</ele>
        <time>2017-04-30T10:49:42Z</time>
      </trkpt>
      <trkpt lat="45.62853" lon="5.03558">
        <ele>323.18359375</ele>
        <time>2017-04-30T10:49:43Z</time>
      </trkpt>
      <trkpt lat="45.62849" lon="5.03577">
        <ele>323.53125</ele>
        <time>2017-04-30T10:49:55Z</time>
      </trkpt>
      <trkpt lat="45.62843" lon="5.03599">
        <ele>323.79296875</ele>
        <time>2017-04-30T10:50:08Z</time>
      </trkpt>
      <trkpt lat="45.62842" lon="5.03602">
        <ele>323.81640625</ele>
        <time>2017-04-30T10:50:10Z</time>
      </trkpt>
      <trkpt lat="45.62842" lon="5.03603">
        <ele>323.8359375</ele>
        <time>2017-04-30T10:50:11Z</time>
      </trkpt>
      <trkpt lat="45.62841" lon="5.03605">
        <ele>323.8515625</ele>
        <time>2017-04-30T10:50:12Z</time>
      </trkpt>
      <trkpt lat="45.6284" lon="5.03608">
        <ele>323.85546875</ele>
        <time>2017-04-30T10:50:14Z</time>
      </trkpt>
      <trkpt lat="45.62839" lon="5.03609">
        <ele>323.859375</ele>
        <time>2017-04-30T10:50:15Z</time>
      </trkpt>
      <trkpt lat="45.62838" lon="5.03611">
        <ele>323.8515625</ele>
        <time>2017-04-30T10:50:16Z</time>
      </trkpt>
      <trkpt lat="45.62835" lon="5.03616">
        <ele>323.8203125</ele>
        <time>2017-04-30T10:50:20Z</time>
      </trkpt>
      <trkpt lat="45.62825" lon="5.03638">
        <ele>323.8828125</ele>
        <time>2017-04-30T10:50:35Z</time>
      </trkpt>
      <trkpt lat="45.62821" lon="5.03645">
        <ele>324.015625</ele>
        <time>2017-04-30T10:50:41Z</time>
      </trkpt>
      <trkpt lat="45.6282" lon="5.03646">
        <ele>324.0390625</ele>
        <time>2017-04-30T10:50:42Z</time>
      </trkpt>
      <trkpt lat="45.6281" lon="5.03663">
        <ele>324.1796875</ele>
        <time>2017-04-30T10:50:55Z</time>
      </trkpt>
      <trkpt lat="45.62804" lon="5.03674">
        <ele>324.16796875</ele>
        <time>2017-04-30T10:51:03Z</time>
      </trkpt>
      <trkpt lat="45.62803" lon="5.03677">
        <ele>324.171875</ele>
        <time>2017-04-30T10:51:05Z</time>
      </trkpt>
      <trkpt lat="45.62796" lon="5.03686">
        <ele>324.0390625</ele>
        <time>2017-04-30T10:51:12Z</time>
      </trkpt>
      <trkpt lat="45.62795" lon="5.03689">
        <ele>323.99609375</ele>
        <time>2017-04-30T10:51:14Z</time>
      </trkpt>
      <trkpt lat="45.62794" lon="5.0369">
        <ele>323.96484375</ele>
        <time>2017-04-30T10:51:15Z</time>
      </trkpt>
      <trkpt lat="45.62782" lon="5.03715">
        <ele>324.140625</ele>
        <time>2017-04-30T10:51:31Z</time>
      </trkpt>
      <trkpt lat="45.62773" lon="5.03733">
        <ele>324.41796875</ele>
        <time>2017-04-30T10:51:43Z</time>
      </trkpt>
      <trkpt lat="45.62763" lon="5.03753">
        <ele>324.8125</ele>
        <time>2017-04-30T10:51:56Z</time>
      </trkpt>
      <trkpt lat="45.62754" lon="5.03771">
        <ele>324.70703125</ele>
        <time>2017-04-30T10:52:09Z</time>
      </trkpt>
      <trkpt lat="45.62753" lon="5.03773">
        <ele>324.69140625</ele>
        <time>2017-04-30T10:52:10Z</time>
      </trkpt>
      <trkpt lat="45.62749" lon="5.03784">
        <ele>324.53515625</ele>
        <time>2017-04-30T10:52:18Z</time>
      </trkpt>
      <trkpt lat="45.62742" lon="5.03798">
        <ele>324.2265625</ele>
        <time>2017-04-30T10:52:28Z</time>
      </trkpt>
      <trkpt lat="45.62742" lon="5.038">
        <ele>324.1875</ele>
        <time>2017-04-30T10:52:29Z</time>
      </trkpt>
      <trkpt lat="45.62741" lon="5.03801">
        <ele>324.14453125</ele>
        <time>2017-04-30T10:52:30Z</time>
      </trkpt>
      <trkpt lat="45.62737" lon="5.0381">
        <ele>323.890625</ele>
        <time>2017-04-30T10:52:36Z</time>
      </trkpt>
      <trkpt lat="45.62737" lon="5.03812">
        <ele>323.83984375</ele>
        <time>2017-04-30T10:52:37Z</time>
      </trkpt>
      <trkpt lat="45.62726" lon="5.03834">
        <ele>322.921875</ele>
        <time>2017-04-30T10:52:52Z</time>
      </trkpt>
      <trkpt lat="45.62721" lon="5.03851">
        <ele>322.25390625</ele>
        <time>2017-04-30T10:53:03Z</time>
      </trkpt>
      <trkpt lat="45.62715" lon="5.03869">
        <ele>322.015625</ele>
        <time>2017-04-30T10:53:15Z</time>
      </trkpt>
      <trkpt lat="45.62706" lon="5.03884">
        <ele>322.08203125</ele>
        <time>2017-04-30T10:53:28Z</time>
      </trkpt>
      <trkpt lat="45.62693" lon="5.03891">
        <ele>321.73828125</ele>
        <time>2017-04-30T10:53:40Z</time>
      </trkpt>
      <trkpt lat="45.62688" lon="5.03894">
        <ele>321.65234375</ele>
        <time>2017-04-30T10:53:44Z</time>
      </trkpt>
      <trkpt lat="45.62673" lon="5.03902">
        <ele>321.40625</ele>
        <time>2017-04-30T10:53:57Z</time>
      </trkpt>
      <trkpt lat="45.62657" lon="5.03906">
        <ele>321.0859375</ele>
        <time>2017-04-30T10:54:09Z</time>
      </trkpt>
      <trkpt lat="45.62652" lon="5.03908">
        <ele>321.0078125</ele>
        <time>2017-04-30T10:54:13Z</time>
      </trkpt>
      <trkpt lat="45.62651" lon="5.03908">
        <ele>320.94921875</ele>
        <time>2017-04-30T10:54:14Z</time>
      </trkpt>
      <trkpt lat="45.6265" lon="5.03908">
        <ele>320.8984375</ele>
        <time>2017-04-30T10:54:15Z</time>
      </trkpt>
      <trkpt lat="45.62638" lon="5.0391">
        <ele>320.578125</ele>
        <time>2017-04-30T10:54:26Z</time>
      </trkpt>
      <trkpt lat="45.62626" lon="5.0391">
        <ele>320.18359375</ele>
        <time>2017-04-30T10:54:36Z</time>
      </trkpt>
      <trkpt lat="45.62613" lon="5.03912">
        <ele>319.83984375</ele>
        <time>2017-04-30T10:54:48Z</time>
      </trkpt>
      <trkpt lat="45.62603" lon="5.03913">
        <ele>319.33984375</ele>
        <time>2017-04-30T10:54:57Z</time>
      </trkpt>
      <trkpt lat="45.62587" lon="5.03918">
        <ele>318.25</ele>
        <time>2017-04-30T10:55:11Z</time>
      </trkpt>
      <trkpt lat="45.62586" lon="5.03919">
        <ele>318.1875</ele>
        <time>2017-04-30T10:55:12Z</time>
      </trkpt>
      <trkpt lat="45.62576" lon="5.03923">
        <ele>317.5</ele>
        <time>2017-04-30T10:55:22Z</time>
      </trkpt>
      <trkpt lat="45.62568" lon="5.03925">
        <ele>316.96484375</ele>
        <time>2017-04-30T10:55:29Z</time>
      </trkpt>
      <trkpt lat="45.62556" lon="5.03927">
        <ele>316.046875</ele>
        <time>2017-04-30T10:55:41Z</time>
      </trkpt>
      <trkpt lat="45.62554" lon="5.03928">
        <ele>315.97265625</ele>
        <time>2017-04-30T10:55:42Z</time>
      </trkpt>
      <trkpt lat="45.62553" lon="5.03928">
        <ele>315.78515625</ele>
        <time>2017-04-30T10:55:43Z</time>
      </trkpt>
      <trkpt lat="45.62538" lon="5.03933">
        <ele>313.0546875</ele>
        <time>2017-04-30T10:55:56Z</time>
      </trkpt>
      <trkpt lat="45.62523" lon="5.0394">
        <ele>310.2421875</ele>
        <time>2017-04-30T10:56:09Z</time>
      </trkpt>
      <trkpt lat="45.62513" lon="5.03946">
        <ele>308.5546875</ele>
        <time>2017-04-30T10:56:18Z</time>
      </trkpt>
      <trkpt lat="45.62505" lon="5.03953">
        <ele>307.2421875</ele>
        <time>2017-04-30T10:56:27Z</time>
      </trkpt>
      <trkpt lat="45.62494" lon="5.03965">
        <ele>305.703125</ele>
        <time>2017-04-30T10:56:39Z</time>
      </trkpt>
      <trkpt lat="45.6249" lon="5.03973">
        <ele>305.19140625</ele>
        <time>2017-04-30T10:56:47Z</time>
      </trkpt>
      <trkpt lat="45.62489" lon="5.03974">
        <ele>305.0546875</ele>
        <time>2017-04-30T10:56:48Z</time>
      </trkpt>
      <trkpt lat="45.62483" lon="5.03986">
        <ele>304.0859375</ele>
        <time>2017-04-30T10:56:57Z</time>
      </trkpt>
      <trkpt lat="45.62479" lon="5.03995">
        <ele>303.45703125</ele>
        <time>2017-04-30T10:57:04Z</time>
      </trkpt>
      <trkpt lat="45.62473" lon="5.04012">
        <ele>302.73046875</ele>
        <time>2017-04-30T10:57:15Z</time>
      </trkpt>
      <trkpt lat="45.62471" lon="5.04018">
        <ele>302.37890625</ele>
        <time>2017-04-30T10:57:19Z</time>
      </trkpt>
      <trkpt lat="45.6247" lon="5.04021">
        <ele>302.2421875</ele>
        <time>2017-04-30T10:57:21Z</time>
      </trkpt>
      <trkpt lat="45.62469" lon="5.04022">
        <ele>302.0546875</ele>
        <time>2017-04-30T10:57:22Z</time>
      </trkpt>
      <trkpt lat="45.62468" lon="5.04024">
        <ele>301.96875</ele>
        <time>2017-04-30T10:57:23Z</time>
      </trkpt>
      <trkpt lat="45.62466" lon="5.04031">
        <ele>301.59375</ele>
        <time>2017-04-30T10:57:28Z</time>
      </trkpt>
      <trkpt lat="45.62458" lon="5.04045">
        <ele>300.2578125</ele>
        <time>2017-04-30T10:57:39Z</time>
      </trkpt>
      <trkpt lat="45.62452" lon="5.04068">
        <ele>299.47265625</ele>
        <time>2017-04-30T10:57:52Z</time>
      </trkpt>
      <trkpt lat="45.62443" lon="5.04089">
        <ele>298.25</ele>
        <time>2017-04-30T10:58:04Z</time>
      </trkpt>
      <trkpt lat="45.62434" lon="5.04104">
        <ele>297.87109375</ele>
        <time>2017-04-30T10:58:17Z</time>
      </trkpt>
      <trkpt lat="45.62433" lon="5.04107">
        <ele>297.875</ele>
        <time>2017-04-30T10:58:19Z</time>
      </trkpt>
      <trkpt lat="45.62429" lon="5.0413">
        <ele>297.9609375</ele>
        <time>2017-04-30T10:58:33Z</time>
      </trkpt>
      <trkpt lat="45.62427" lon="5.04147">
        <ele>298.296875</ele>
        <time>2017-04-30T10:58:45Z</time>
      </trkpt>
      <trkpt lat="45.62424" lon="5.04158">
        <ele>298.59375</ele>
        <time>2017-04-30T10:58:52Z</time>
      </trkpt>
      <trkpt lat="45.62422" lon="5.04165">
        <ele>298.640625</ele>
        <time>2017-04-30T10:58:56Z</time>
      </trkpt>
      <trkpt lat="45.6242" lon="5.04174">
        <ele>298.8046875</ele>
        <time>2017-04-30T10:59:01Z</time>
      </trkpt>
      <trkpt lat="45.6242" lon="5.04176">
        <ele>298.875</ele>
        <time>2017-04-30T10:59:02Z</time>
      </trkpt>
      <trkpt lat="45.62416" lon="5.04192">
        <ele>299.09375</ele>
        <time>2017-04-30T10:59:11Z</time>
      </trkpt>
      <trkpt lat="45.62416" lon="5.04194">
        <ele>299.13671875</ele>
        <time>2017-04-30T10:59:12Z</time>
      </trkpt>
      <trkpt lat="45.62413" lon="5.04217">
        <ele>299.515625</ele>
        <time>2017-04-30T10:59:26Z</time>
      </trkpt>
      <trkpt lat="45.62412" lon="5.0422">
        <ele>299.4375</ele>
        <time>2017-04-30T10:59:29Z</time>
      </trkpt>
      <trkpt lat="45.62408" lon="5.0423">
        <ele>299.1953125</ele>
        <time>2017-04-30T10:59:34Z</time>
      </trkpt>
      <trkpt lat="45.62405" lon="5.04249">
        <ele>299.37890625</ele>
        <time>2017-04-30T10:59:47Z</time>
      </trkpt>
      <trkpt lat="45.62404" lon="5.04255">
        <ele>299.33203125</ele>
        <time>2017-04-30T10:59:51Z</time>
      </trkpt>
      <trkpt lat="45.62403" lon="5.04257">
        <ele>299.328125</ele>
        <time>2017-04-30T10:59:52Z</time>
      </trkpt>
      <trkpt lat="45.62398" lon="5.04281">
        <ele>299.46875</ele>
        <time>2017-04-30T11:00:07Z</time>
      </trkpt>
      <trkpt lat="45.62398" lon="5.04302">
        <ele>300.1484375</ele>
        <time>2017-04-30T11:00:19Z</time>
      </trkpt>
      <trkpt lat="45.62395" lon="5.04326">
        <ele>299.7890625</ele>
        <time>2017-04-30T11:00:30Z</time>
      </trkpt>
      <trkpt lat="45.62393" lon="5.04346">
        <ele>299.625</ele>
        <time>2017-04-30T11:00:41Z</time>
      </trkpt>
      <trkpt lat="45.62392" lon="5.04362">
        <ele>299.47265625</ele>
        <time>2017-04-30T11:00:51Z</time>
      </trkpt>
      <trkpt lat="45.62391" lon="5.04364">
        <ele>299.38671875</ele>
        <time>2017-04-30T11:00:52Z</time>
      </trkpt>
      <trkpt lat="45.62392" lon="5.04382">
        <ele>299.41796875</ele>
        <time>2017-04-30T11:01:02Z</time>
      </trkpt>
      <trkpt lat="45.6239" lon="5.04405">
        <ele>299.22265625</ele>
        <time>2017-04-30T11:01:15Z</time>
      </trkpt>
      <trkpt lat="45.6239" lon="5.04407">
        <ele>299.25390625</ele>
        <time>2017-04-30T11:01:16Z</time>
      </trkpt>
      <trkpt lat="45.62388" lon="5.04425">
        <ele>299.24609375</ele>
        <time>2017-04-30T11:01:27Z</time>
      </trkpt>
      <trkpt lat="45.62387" lon="5.04428">
        <ele>299.24609375</ele>
        <time>2017-04-30T11:01:28Z</time>
      </trkpt>
      <trkpt lat="45.62386" lon="5.0443">
        <ele>299.26171875</ele>
        <time>2017-04-30T11:01:29Z</time>
      </trkpt>
      <trkpt lat="45.62386" lon="5.04432">
        <ele>299.2890625</ele>
        <time>2017-04-30T11:01:30Z</time>
      </trkpt>
      <trkpt lat="45.62384" lon="5.04456">
        <ele>299.69140625</ele>
        <time>2017-04-30T11:01:44Z</time>
      </trkpt>
      <trkpt lat="45.62384" lon="5.04458">
        <ele>299.71484375</ele>
        <time>2017-04-30T11:01:45Z</time>
      </trkpt>
      <trkpt lat="45.62384" lon="5.04465">
        <ele>299.84765625</ele>
        <time>2017-04-30T11:01:49Z</time>
      </trkpt>
      <trkpt lat="45.62381" lon="5.04486">
        <ele>300.46484375</ele>
        <time>2017-04-30T11:02:00Z</time>
      </trkpt>
      <trkpt lat="45.6238" lon="5.04506">
        <ele>301.140625</ele>
        <time>2017-04-30T11:02:11Z</time>
      </trkpt>
      <trkpt lat="45.62379" lon="5.04507">
        <ele>301.19921875</ele>
        <time>2017-04-30T11:02:12Z</time>
      </trkpt>
      <trkpt lat="45.62378" lon="5.04512">
        <ele>301.35546875</ele>
        <time>2017-04-30T11:02:15Z</time>
      </trkpt>
      <trkpt lat="45.62377" lon="5.04523">
        <ele>301.703125</ele>
        <time>2017-04-30T11:02:22Z</time>
      </trkpt>
      <trkpt lat="45.62376" lon="5.04538">
        <ele>302.5703125</ele>
        <time>2017-04-30T11:02:29Z</time>
      </trkpt>
      <trkpt lat="45.62377" lon="5.04541">
        <ele>302.80078125</ele>
        <time>2017-04-30T11:02:31Z</time>
      </trkpt>
      <trkpt lat="45.62378" lon="5.04542">
        <ele>302.921875</ele>
        <time>2017-04-30T11:02:32Z</time>
      </trkpt>
      <trkpt lat="45.62388" lon="5.04551">
        <ele>303.89453125</ele>
        <time>2017-04-30T11:02:43Z</time>
      </trkpt>
      <trkpt lat="45.62406" lon="5.04563">
        <ele>305.33203125</ele>
        <time>2017-04-30T11:02:58Z</time>
      </trkpt>
      <trkpt lat="45.6242" lon="5.04574">
        <ele>306.6953125</ele>
        <time>2017-04-30T11:03:12Z</time>
      </trkpt>
      <trkpt lat="45.62426" lon="5.0458">
        <ele>307.3203125</ele>
        <time>2017-04-30T11:03:18Z</time>
      </trkpt>
      <trkpt lat="45.62433" lon="5.04587">
        <ele>308.06640625</ele>
        <time>2017-04-30T11:03:25Z</time>
      </trkpt>
      <trkpt lat="45.62446" lon="5.04598">
        <ele>309.0625</ele>
        <time>2017-04-30T11:03:37Z</time>
      </trkpt>
      <trkpt lat="45.62451" lon="5.04602">
        <ele>309.08984375</ele>
        <time>2017-04-30T11:03:41Z</time>
      </trkpt>
      <trkpt lat="45.62466" lon="5.04615">
        <ele>309.265625</ele>
        <time>2017-04-30T11:03:54Z</time>
      </trkpt>
      <trkpt lat="45.62473" lon="5.04621">
        <ele>309.3515625</ele>
        <time>2017-04-30T11:04:00Z</time>
      </trkpt>
      <trkpt lat="45.62474" lon="5.04622">
        <ele>309.3671875</ele>
        <time>2017-04-30T11:04:01Z</time>
      </trkpt>
      <trkpt lat="45.62475" lon="5.04624">
        <ele>309.41796875</ele>
        <time>2017-04-30T11:04:03Z</time>
      </trkpt>
      <trkpt lat="45.62481" lon="5.04627">
        <ele>309.34375</ele>
        <time>2017-04-30T11:04:08Z</time>
      </trkpt>
      <trkpt lat="45.62497" lon="5.04639">
        <ele>309.22265625</ele>
        <time>2017-04-30T11:04:22Z</time>
      </trkpt>
      <trkpt lat="45.62504" lon="5.04646">
        <ele>309.50390625</ele>
        <time>2017-04-30T11:04:29Z</time>
      </trkpt>
      <trkpt lat="45.62506" lon="5.04647">
        <ele>309.5</ele>
        <time>2017-04-30T11:04:30Z</time>
      </trkpt>
      <trkpt lat="45.62518" lon="5.04655">
        <ele>309.71484375</ele>
        <time>2017-04-30T11:04:41Z</time>
      </trkpt>
      <trkpt lat="45.62521" lon="5.04657">
        <ele>309.734375</ele>
        <time>2017-04-30T11:04:44Z</time>
      </trkpt>
      <trkpt lat="45.62525" lon="5.0466">
        <ele>309.78515625</ele>
        <time>2017-04-30T11:04:47Z</time>
      </trkpt>
      <trkpt lat="45.62526" lon="5.04661">
        <ele>309.80859375</ele>
        <time>2017-04-30T11:04:48Z</time>
      </trkpt>
      <trkpt lat="45.62531" lon="5.04664">
        <ele>309.79296875</ele>
        <time>2017-04-30T11:04:53Z</time>
      </trkpt>
      <trkpt lat="45.62542" lon="5.04672">
        <ele>309.7109375</ele>
        <time>2017-04-30T11:05:02Z</time>
      </trkpt>
      <trkpt lat="45.62546" lon="5.04673">
        <ele>309.59375</ele>
        <time>2017-04-30T11:05:05Z</time>
      </trkpt>
      <trkpt lat="45.62547" lon="5.04673">
        <ele>309.53515625</ele>
        <time>2017-04-30T11:05:06Z</time>
      </trkpt>
      <trkpt lat="45.62549" lon="5.04673">
        <ele>309.48046875</ele>
        <time>2017-04-30T11:05:07Z</time>
      </trkpt>
      <trkpt lat="45.6255" lon="5.04674">
        <ele>309.45703125</ele>
        <time>2017-04-30T11:05:08Z</time>
      </trkpt>
      <trkpt lat="45.62561" lon="5.04682">
        <ele>309.7109375</ele>
        <time>2017-04-30T11:05:19Z</time>
      </trkpt>
      <trkpt lat="45.62563" lon="5.04687">
        <ele>309.86328125</ele>
        <time>2017-04-30T11:05:23Z</time>
      </trkpt>
      <trkpt lat="45.62564" lon="5.04707">
        <ele>310.66015625</ele>
        <time>2017-04-30T11:05:35Z</time>
      </trkpt>
      <trkpt lat="45.62564" lon="5.04726">
        <ele>311.61328125</ele>
        <time>2017-04-30T11:05:47Z</time>
      </trkpt>
      <trkpt lat="45.62562" lon="5.04749">
        <ele>312.73046875</ele>
        <time>2017-04-30T11:05:59Z</time>
      </trkpt>
      <trkpt lat="45.6256" lon="5.04777">
        <ele>313.87109375</ele>
        <time>2017-04-30T11:06:13Z</time>
      </trkpt>
      <trkpt lat="45.62558" lon="5.04793">
        <ele>314.51953125</ele>
        <time>2017-04-30T11:06:22Z</time>
      </trkpt>
      <trkpt lat="45.62558" lon="5.04795">
        <ele>314.59375</ele>
        <time>2017-04-30T11:06:23Z</time>
      </trkpt>
      <trkpt lat="45.62556" lon="5.04824">
        <ele>315.71875</ele>
        <time>2017-04-30T11:06:39Z</time>
      </trkpt>
      <trkpt lat="45.62554" lon="5.04843">
        <ele>316.42578125</ele>
        <time>2017-04-30T11:06:50Z</time>
      </trkpt>
      <trkpt lat="45.62553" lon="5.04852">
        <ele>316.76953125</ele>
        <time>2017-04-30T11:06:55Z</time>
      </trkpt>
      <trkpt lat="45.62553" lon="5.04854">
        <ele>316.84765625</ele>
        <time>2017-04-30T11:06:56Z</time>
      </trkpt>
      <trkpt lat="45.62553" lon="5.04858">
        <ele>316.97265625</ele>
        <time>2017-04-30T11:06:58Z</time>
      </trkpt>
      <trkpt lat="45.62551" lon="5.0488">
        <ele>317.84375</ele>
        <time>2017-04-30T11:07:12Z</time>
      </trkpt>
      <trkpt lat="45.62551" lon="5.04897">
        <ele>318.4296875</ele>
        <time>2017-04-30T11:07:22Z</time>
      </trkpt>
      <trkpt lat="45.62551" lon="5.04899">
        <ele>318.5078125</ele>
        <time>2017-04-30T11:07:23Z</time>
      </trkpt>
      <trkpt lat="45.62548" lon="5.04919">
        <ele>319.17578125</ele>
        <time>2017-04-30T11:07:34Z</time>
      </trkpt>
      <trkpt lat="45.62548" lon="5.04921">
        <ele>319.2109375</ele>
        <time>2017-04-30T11:07:35Z</time>
      </trkpt>
      <trkpt lat="45.62547" lon="5.04938">
        <ele>319.52734375</ele>
        <time>2017-04-30T11:07:45Z</time>
      </trkpt>
      <trkpt lat="45.62547" lon="5.0494">
        <ele>319.57421875</ele>
        <time>2017-04-30T11:07:46Z</time>
      </trkpt>
      <trkpt lat="45.62545" lon="5.04964">
        <ele>320.04296875</ele>
        <time>2017-04-30T11:08:00Z</time>
      </trkpt>
      <trkpt lat="45.62542" lon="5.04989">
        <ele>320.48828125</ele>
        <time>2017-04-30T11:08:14Z</time>
      </trkpt>
      <trkpt lat="45.62539" lon="5.05022">
        <ele>320.94921875</ele>
        <time>2017-04-30T11:08:30Z</time>
      </trkpt>
      <trkpt lat="45.62536" lon="5.05046">
        <ele>320.8828125</ele>
        <time>2017-04-30T11:08:43Z</time>
      </trkpt>
      <trkpt lat="45.62535" lon="5.05058">
        <ele>320.80859375</ele>
        <time>2017-04-30T11:08:50Z</time>
      </trkpt>
      <trkpt lat="45.62534" lon="5.05068">
        <ele>320.73828125</ele>
        <time>2017-04-30T11:08:56Z</time>
      </trkpt>
      <trkpt lat="45.62535" lon="5.05074">
        <ele>320.7109375</ele>
        <time>2017-04-30T11:08:59Z</time>
      </trkpt>
      <trkpt lat="45.62535" lon="5.05078">
        <ele>320.6875</ele>
        <time>2017-04-30T11:09:02Z</time>
      </trkpt>
      <trkpt lat="45.62535" lon="5.0508">
        <ele>320.671875</ele>
        <time>2017-04-30T11:09:03Z</time>
      </trkpt>
      <trkpt lat="45.62534" lon="5.05082">
        <ele>320.65234375</ele>
        <time>2017-04-30T11:09:04Z</time>
      </trkpt>
      <trkpt lat="45.62534" lon="5.05083">
        <ele>320.63671875</ele>
        <time>2017-04-30T11:09:05Z</time>
      </trkpt>
      <trkpt lat="45.62534" lon="5.05085">
        <ele>320.62109375</ele>
        <time>2017-04-30T11:09:06Z</time>
      </trkpt>
      <trkpt lat="45.62534" lon="5.05087">
        <ele>320.609375</ele>
        <time>2017-04-30T11:09:07Z</time>
      </trkpt>
      <trkpt lat="45.62534" lon="5.05088">
        <ele>320.60546875</ele>
        <time>2017-04-30T11:09:08Z</time>
      </trkpt>
      <trkpt lat="45.62534" lon="5.05098">
        <ele>320.54296875</ele>
        <time>2017-04-30T11:09:14Z</time>
      </trkpt>
      <trkpt lat="45.62534" lon="5.05102">
        <ele>320.515625</ele>
        <time>2017-04-30T11:09:17Z</time>
      </trkpt>
      <trkpt lat="45.62534" lon="5.05103">
        <ele>320.5078125</ele>
        <time>2017-04-30T11:09:18Z</time>
      </trkpt>
      <trkpt lat="45.62534" lon="5.05113">
        <ele>320.4375</ele>
        <time>2017-04-30T11:09:25Z</time>
      </trkpt>
      <trkpt lat="45.62533" lon="5.0513">
        <ele>320.30078125</ele>
        <time>2017-04-30T11:09:35Z</time>
      </trkpt>
      <trkpt lat="45.62532" lon="5.05141">
        <ele>320.19921875</ele>
        <time>2017-04-30T11:09:47Z</time>
      </trkpt>
      <trkpt lat="45.62529" lon="5.05144">
        <ele>320.078125</ele>
        <time>2017-04-30T11:10:12Z</time>
      </trkpt>
      <trkpt lat="45.62529" lon="5.05158">
        <ele>319.9609375</ele>
        <time>2017-04-30T11:10:34Z</time>
      </trkpt>
      <trkpt lat="45.62528" lon="5.05179">
        <ele>319.7578125</ele>
        <time>2017-04-30T11:10:47Z</time>
      </trkpt>
      <trkpt lat="45.62524" lon="5.0521">
        <ele>319.890625</ele>
        <time>2017-04-30T11:11:05Z</time>
      </trkpt>
      <trkpt lat="45.62523" lon="5.05222">
        <ele>320.19140625</ele>
        <time>2017-04-30T11:11:12Z</time>
      </trkpt>
      <trkpt lat="45.62522" lon="5.05239">
        <ele>320.62890625</ele>
        <time>2017-04-30T11:11:22Z</time>
      </trkpt>
      <trkpt lat="45.62519" lon="5.05267">
        <ele>321.09375</ele>
        <time>2017-04-30T11:11:36Z</time>
      </trkpt>
      <trkpt lat="45.62517" lon="5.05292">
        <ele>321.48046875</ele>
        <time>2017-04-30T11:11:51Z</time>
      </trkpt>
      <trkpt lat="45.62515" lon="5.0531">
        <ele>321.70703125</ele>
        <time>2017-04-30T11:12:00Z</time>
      </trkpt>
      <trkpt lat="45.62513" lon="5.05339">
        <ele>322.01171875</ele>
        <time>2017-04-30T11:12:17Z</time>
      </trkpt>
      <trkpt lat="45.62511" lon="5.05362">
        <ele>322.25</ele>
        <time>2017-04-30T11:12:30Z</time>
      </trkpt>
      <trkpt lat="45.62511" lon="5.05367">
        <ele>322.26953125</ele>
        <time>2017-04-30T11:12:34Z</time>
      </trkpt>
      <trkpt lat="45.62511" lon="5.05369">
        <ele>322.2734375</ele>
        <time>2017-04-30T11:12:35Z</time>
      </trkpt>
      <trkpt lat="45.6251" lon="5.05393">
        <ele>322.33984375</ele>
        <time>2017-04-30T11:12:49Z</time>
      </trkpt>
      <trkpt lat="45.62509" lon="5.05396">
        <ele>322.3515625</ele>
        <time>2017-04-30T11:12:51Z</time>
      </trkpt>
      <trkpt lat="45.62509" lon="5.05398">
        <ele>322.3515625</ele>
        <time>2017-04-30T11:12:52Z</time>
      </trkpt>
      <trkpt lat="45.62509" lon="5.05422">
        <ele>322.42578125</ele>
        <time>2017-04-30T11:13:06Z</time>
      </trkpt>
      <trkpt lat="45.6251" lon="5.0545">
        <ele>322.55859375</ele>
        <time>2017-04-30T11:13:21Z</time>
      </trkpt>
      <trkpt lat="45.6251" lon="5.05478">
        <ele>322.7890625</ele>
        <time>2017-04-30T11:13:36Z</time>
      </trkpt>
      <trkpt lat="45.6251" lon="5.05502">
        <ele>323.25</ele>
        <time>2017-04-30T11:13:50Z</time>
      </trkpt>
      <trkpt lat="45.6251" lon="5.05525">
        <ele>323.64453125</ele>
        <time>2017-04-30T11:14:03Z</time>
      </trkpt>
      <trkpt lat="45.6251" lon="5.05536">
        <ele>323.65625</ele>
        <time>2017-04-30T11:14:09Z</time>
      </trkpt>
      <trkpt lat="45.6251" lon="5.05538">
        <ele>323.66015625</ele>
        <time>2017-04-30T11:14:10Z</time>
      </trkpt>
      <trkpt lat="45.6251" lon="5.0554">
        <ele>323.6640625</ele>
        <time>2017-04-30T11:14:11Z</time>
      </trkpt>
      <trkpt lat="45.6251" lon="5.0557">
        <ele>323.6796875</ele>
        <time>2017-04-30T11:14:27Z</time>
      </trkpt>
      <trkpt lat="45.62511" lon="5.05596">
        <ele>323.91796875</ele>
        <time>2017-04-30T11:14:42Z</time>
      </trkpt>
      <trkpt lat="45.6251" lon="5.05621">
        <ele>324.2421875</ele>
        <time>2017-04-30T11:14:57Z</time>
      </trkpt>
      <trkpt lat="45.6251" lon="5.05643">
        <ele>324.42578125</ele>
        <time>2017-04-30T11:15:10Z</time>
      </trkpt>
      <trkpt lat="45.62509" lon="5.05663">
        <ele>324.30078125</ele>
        <time>2017-04-30T11:15:23Z</time>
      </trkpt>
      <trkpt lat="45.62509" lon="5.05683">
        <ele>324.23828125</ele>
        <time>2017-04-30T11:15:37Z</time>
      </trkpt>
      <trkpt lat="45.6251" lon="5.057">
        <ele>324.0703125</ele>
        <time>2017-04-30T11:15:46Z</time>
      </trkpt>
      <trkpt lat="45.6251" lon="5.05702">
        <ele>324.046875</ele>
        <time>2017-04-30T11:15:47Z</time>
      </trkpt>
      <trkpt lat="45.62511" lon="5.05704">
        <ele>324.01953125</ele>
        <time>2017-04-30T11:15:48Z</time>
      </trkpt>
      <trkpt lat="45.6251" lon="5.05705">
        <ele>323.98828125</ele>
        <time>2017-04-30T11:15:49Z</time>
      </trkpt>
      <trkpt lat="45.625" lon="5.05704">
        <ele>323.82421875</ele>
        <time>2017-04-30T11:16:00Z</time>
      </trkpt>
      <trkpt lat="45.62499" lon="5.05703">
        <ele>323.83203125</ele>
        <time>2017-04-30T11:16:01Z</time>
      </trkpt>
      <trkpt lat="45.62487" lon="5.05687">
        <ele>323.6015625</ele>
        <time>2017-04-30T11:16:15Z</time>
      </trkpt>
      <trkpt lat="45.62487" lon="5.05686">
        <ele>323.5703125</ele>
        <time>2017-04-30T11:16:16Z</time>
      </trkpt>
      <trkpt lat="45.62474" lon="5.05666">
        <ele>322.9375</ele>
        <time>2017-04-30T11:16:30Z</time>
      </trkpt>
      <trkpt lat="45.62465" lon="5.05651">
        <ele>322.40234375</ele>
        <time>2017-04-30T11:16:42Z</time>
      </trkpt>
      <trkpt lat="45.62463" lon="5.05646">
        <ele>322.22265625</ele>
        <time>2017-04-30T11:16:46Z</time>
      </trkpt>
      <trkpt lat="45.6246" lon="5.0564">
        <ele>322.0078125</ele>
        <time>2017-04-30T11:16:50Z</time>
      </trkpt>
      <trkpt lat="45.62459" lon="5.05638">
        <ele>321.9453125</ele>
        <time>2017-04-30T11:16:51Z</time>
      </trkpt>
      <trkpt lat="45.62459" lon="5.05637">
        <ele>321.91015625</ele>
        <time>2017-04-30T11:16:52Z</time>
      </trkpt>
      <trkpt lat="45.62459" lon="5.05635">
        <ele>321.84765625</ele>
        <time>2017-04-30T11:16:53Z</time>
      </trkpt>
      <trkpt lat="45.62458" lon="5.05634">
        <ele>321.77734375</ele>
        <time>2017-04-30T11:16:54Z</time>
      </trkpt>
      <trkpt lat="45.62452" lon="5.05618">
        <ele>321.1875</ele>
        <time>2017-04-30T11:17:04Z</time>
      </trkpt>
      <trkpt lat="45.62451" lon="5.05616">
        <ele>321.109375</ele>
        <time>2017-04-30T11:17:05Z</time>
      </trkpt>
      <trkpt lat="45.62449" lon="5.05612">
        <ele>320.92578125</ele>
        <time>2017-04-30T11:17:08Z</time>
      </trkpt>
      <trkpt lat="45.62449" lon="5.0561">
        <ele>320.8671875</ele>
        <time>2017-04-30T11:17:09Z</time>
      </trkpt>
      <trkpt lat="45.62448" lon="5.05609">
        <ele>320.8125</ele>
        <time>2017-04-30T11:17:10Z</time>
      </trkpt>
      <trkpt lat="45.62447" lon="5.05607">
        <ele>320.75390625</ele>
        <time>2017-04-30T11:17:11Z</time>
      </trkpt>
      <trkpt lat="45.62447" lon="5.05606">
        <ele>320.6953125</ele>
        <time>2017-04-30T11:17:12Z</time>
      </trkpt>
      <trkpt lat="45.62442" lon="5.05594">
        <ele>320.23828125</ele>
        <time>2017-04-30T11:17:21Z</time>
      </trkpt>
      <trkpt lat="45.62435" lon="5.05577">
        <ele>319.8671875</ele>
        <time>2017-04-30T11:17:33Z</time>
      </trkpt>
      <trkpt lat="45.62433" lon="5.05572">
        <ele>319.83203125</ele>
        <time>2017-04-30T11:17:36Z</time>
      </trkpt>
      <trkpt lat="45.62432" lon="5.05571">
        <ele>319.81640625</ele>
        <time>2017-04-30T11:17:37Z</time>
      </trkpt>
      <trkpt lat="45.62425" lon="5.05553">
        <ele>319.69140625</ele>
        <time>2017-04-30T11:17:49Z</time>
      </trkpt>
      <trkpt lat="45.62424" lon="5.05551">
        <ele>319.67578125</ele>
        <time>2017-04-30T11:17:50Z</time>
      </trkpt>
      <trkpt lat="45.62419" lon="5.05536">
        <ele>319.57421875</ele>
        <time>2017-04-30T11:18:00Z</time>
      </trkpt>
      <trkpt lat="45.62416" lon="5.05527">
        <ele>319.515625</ele>
        <time>2017-04-30T11:18:06Z</time>
      </trkpt>
      <trkpt lat="45.62415" lon="5.05526">
        <ele>319.5078125</ele>
        <time>2017-04-30T11:18:07Z</time>
      </trkpt>
      <trkpt lat="45.62414" lon="5.05525">
        <ele>319.49609375</ele>
        <time>2017-04-30T11:18:08Z</time>
      </trkpt>
      <trkpt lat="45.62414" lon="5.05523">
        <ele>319.484375</ele>
        <time>2017-04-30T11:18:09Z</time>
      </trkpt>
      <trkpt lat="45.62413" lon="5.05522">
        <ele>319.46875</ele>
        <time>2017-04-30T11:18:10Z</time>
      </trkpt>
      <trkpt lat="45.62412" lon="5.0552">
        <ele>319.4609375</ele>
        <time>2017-04-30T11:18:11Z</time>
      </trkpt>
      <trkpt lat="45.62412" lon="5.05517">
        <ele>319.453125</ele>
        <time>2017-04-30T11:18:12Z</time>
      </trkpt>
      <trkpt lat="45.62411" lon="5.05515">
        <ele>319.44140625</ele>
        <time>2017-04-30T11:18:13Z</time>
      </trkpt>
      <trkpt lat="45.62411" lon="5.05513">
        <ele>319.43359375</ele>
        <time>2017-04-30T11:18:14Z</time>
      </trkpt>
      <trkpt lat="45.62409" lon="5.05507">
        <ele>319.39453125</ele>
        <time>2017-04-30T11:18:19Z</time>
      </trkpt>
      <trkpt lat="45.62405" lon="5.05492">
        <ele>319.328125</ele>
        <time>2017-04-30T11:18:30Z</time>
      </trkpt>
      <trkpt lat="45.624" lon="5.05471">
        <ele>319.2421875</ele>
        <time>2017-04-30T11:18:42Z</time>
      </trkpt>
      <trkpt lat="45.62399" lon="5.05464">
        <ele>319.1328125</ele>
        <time>2017-04-30T11:18:46Z</time>
      </trkpt>
      <trkpt lat="45.62397" lon="5.05457">
        <ele>318.9921875</ele>
        <time>2017-04-30T11:18:50Z</time>
      </trkpt>
      <trkpt lat="45.62396" lon="5.05455">
        <ele>318.94140625</ele>
        <time>2017-04-30T11:18:51Z</time>
      </trkpt>
      <trkpt lat="45.62393" lon="5.05443">
        <ele>318.6875</ele>
        <time>2017-04-30T11:18:58Z</time>
      </trkpt>
      <trkpt lat="45.62393" lon="5.0544">
        <ele>318.625</ele>
        <time>2017-04-30T11:19:00Z</time>
      </trkpt>
      <trkpt lat="45.62392" lon="5.05437">
        <ele>318.55078125</ele>
        <time>2017-04-30T11:19:02Z</time>
      </trkpt>
      <trkpt lat="45.62391" lon="5.05433">
        <ele>318.4765625</ele>
        <time>2017-04-30T11:19:05Z</time>
      </trkpt>
      <trkpt lat="45.62391" lon="5.05432">
        <ele>318.44921875</ele>
        <time>2017-04-30T11:19:06Z</time>
      </trkpt>
      <trkpt lat="45.62388" lon="5.05412">
        <ele>318.01171875</ele>
        <time>2017-04-30T11:19:19Z</time>
      </trkpt>
      <trkpt lat="45.62388" lon="5.05406">
        <ele>317.87109375</ele>
        <time>2017-04-30T11:19:23Z</time>
      </trkpt>
      <trkpt lat="45.62387" lon="5.05404">
        <ele>317.828125</ele>
        <time>2017-04-30T11:19:24Z</time>
      </trkpt>
      <trkpt lat="45.62387" lon="5.05386">
        <ele>317.484375</ele>
        <time>2017-04-30T11:19:35Z</time>
      </trkpt>
      <trkpt lat="45.62387" lon="5.05384">
        <ele>317.45703125</ele>
        <time>2017-04-30T11:19:36Z</time>
      </trkpt>
      <trkpt lat="45.62386" lon="5.05372">
        <ele>317.2578125</ele>
        <time>2017-04-30T11:19:43Z</time>
      </trkpt>
      <trkpt lat="45.62386" lon="5.0537">
        <ele>317.21484375</ele>
        <time>2017-04-30T11:19:44Z</time>
      </trkpt>
      <trkpt lat="45.62387" lon="5.05359">
        <ele>317.01171875</ele>
        <time>2017-04-30T11:19:50Z</time>
      </trkpt>
      <trkpt lat="45.62387" lon="5.05355">
        <ele>316.93359375</ele>
        <time>2017-04-30T11:19:53Z</time>
      </trkpt>
      <trkpt lat="45.62387" lon="5.05353">
        <ele>316.8984375</ele>
        <time>2017-04-30T11:19:54Z</time>
      </trkpt>
      <trkpt lat="45.62387" lon="5.05347">
        <ele>316.80078125</ele>
        <time>2017-04-30T11:19:58Z</time>
      </trkpt>
      <trkpt lat="45.62388" lon="5.05345">
        <ele>316.78515625</ele>
        <time>2017-04-30T11:19:59Z</time>
      </trkpt>
      <trkpt lat="45.62388" lon="5.05344">
        <ele>316.76171875</ele>
        <time>2017-04-30T11:20:00Z</time>
      </trkpt>
      <trkpt lat="45.62386" lon="5.05334">
        <ele>316.56640625</ele>
        <time>2017-04-30T11:20:05Z</time>
      </trkpt>
      <trkpt lat="45.62386" lon="5.05332">
        <ele>316.5546875</ele>
        <time>2017-04-30T11:20:06Z</time>
      </trkpt>
      <trkpt lat="45.62382" lon="5.05315">
        <ele>316.48828125</ele>
        <time>2017-04-30T11:20:15Z</time>
      </trkpt>
      <trkpt lat="45.62373" lon="5.05298">
        <ele>316.6796875</ele>
        <time>2017-04-30T11:20:27Z</time>
      </trkpt>
      <trkpt lat="45.62362" lon="5.05279">
        <ele>317.09375</ele>
        <time>2017-04-30T11:20:42Z</time>
      </trkpt>
      <trkpt lat="45.62357" lon="5.05267">
        <ele>317.3359375</ele>
        <time>2017-04-30T11:20:51Z</time>
      </trkpt>
      <trkpt lat="45.62356" lon="5.05266">
        <ele>317.34765625</ele>
        <time>2017-04-30T11:20:52Z</time>
      </trkpt>
      <trkpt lat="45.62352" lon="5.0525">
        <ele>317.5390625</ele>
        <time>2017-04-30T11:21:03Z</time>
      </trkpt>
      <trkpt lat="45.6235" lon="5.0524">
        <ele>317.43359375</ele>
        <time>2017-04-30T11:21:10Z</time>
      </trkpt>
      <trkpt lat="45.6235" lon="5.05235">
        <ele>317.30078125</ele>
        <time>2017-04-30T11:21:13Z</time>
      </trkpt>
      <trkpt lat="45.62347" lon="5.05212">
        <ele>316.74609375</ele>
        <time>2017-04-30T11:21:26Z</time>
      </trkpt>
      <trkpt lat="45.62344" lon="5.0519">
        <ele>316.29296875</ele>
        <time>2017-04-30T11:21:39Z</time>
      </trkpt>
      <trkpt lat="45.62341" lon="5.05182">
        <ele>316.33203125</ele>
        <time>2017-04-30T11:21:45Z</time>
      </trkpt>
      <trkpt lat="45.62333" lon="5.05167">
        <ele>316.45703125</ele>
        <time>2017-04-30T11:21:56Z</time>
      </trkpt>
      <trkpt lat="45.62324" lon="5.05152">
        <ele>316.78515625</ele>
        <time>2017-04-30T11:22:07Z</time>
      </trkpt>
      <trkpt lat="45.62324" lon="5.0515">
        <ele>316.78125</ele>
        <time>2017-04-30T11:22:08Z</time>
      </trkpt>
      <trkpt lat="45.62316" lon="5.05134">
        <ele>317.09375</ele>
        <time>2017-04-30T11:22:21Z</time>
      </trkpt>
      <trkpt lat="45.62309" lon="5.05119">
        <ele>317.7421875</ele>
        <time>2017-04-30T11:22:32Z</time>
      </trkpt>
      <trkpt lat="45.62307" lon="5.05115">
        <ele>317.92578125</ele>
        <time>2017-04-30T11:22:36Z</time>
      </trkpt>
      <trkpt lat="45.62306" lon="5.0511">
        <ele>318.046875</ele>
        <time>2017-04-30T11:22:39Z</time>
      </trkpt>
      <trkpt lat="45.62305" lon="5.05109">
        <ele>318.09765625</ele>
        <time>2017-04-30T11:22:40Z</time>
      </trkpt>
      <trkpt lat="45.62302" lon="5.05101">
        <ele>318.46484375</ele>
        <time>2017-04-30T11:22:46Z</time>
      </trkpt>
      <trkpt lat="45.62296" lon="5.05091">
        <ele>319.07421875</ele>
        <time>2017-04-30T11:22:56Z</time>
      </trkpt>
      <trkpt lat="45.62291" lon="5.05079">
        <ele>319.6328125</ele>
        <time>2017-04-30T11:23:03Z</time>
      </trkpt>
      <trkpt lat="45.62287" lon="5.05062">
        <ele>320.3515625</ele>
        <time>2017-04-30T11:23:14Z</time>
      </trkpt>
      <trkpt lat="45.62281" lon="5.05047">
        <ele>321.578125</ele>
        <time>2017-04-30T11:23:26Z</time>
      </trkpt>
      <trkpt lat="45.62276" lon="5.0504">
        <ele>322.4453125</ele>
        <time>2017-04-30T11:23:31Z</time>
      </trkpt>
      <trkpt lat="45.62272" lon="5.05032">
        <ele>323.171875</ele>
        <time>2017-04-30T11:23:37Z</time>
      </trkpt>
      <trkpt lat="45.62266" lon="5.05024">
        <ele>324.09375</ele>
        <time>2017-04-30T11:23:45Z</time>
      </trkpt>
      <trkpt lat="45.62264" lon="5.05023">
        <ele>324.1953125</ele>
        <time>2017-04-30T11:23:46Z</time>
      </trkpt>
      <trkpt lat="45.62257" lon="5.05012">
        <ele>324.8984375</ele>
        <time>2017-04-30T11:23:57Z</time>
      </trkpt>
      <trkpt lat="45.62247" lon="5.04993">
        <ele>326.09375</ele>
        <time>2017-04-30T11:24:10Z</time>
      </trkpt>
      <trkpt lat="45.62236" lon="5.04973">
        <ele>327.76171875</ele>
        <time>2017-04-30T11:24:26Z</time>
      </trkpt>
      <trkpt lat="45.62227" lon="5.04962">
        <ele>328.83984375</ele>
        <time>2017-04-30T11:24:38Z</time>
      </trkpt>
      <trkpt lat="45.6222" lon="5.0495">
        <ele>329.63671875</ele>
        <time>2017-04-30T11:24:47Z</time>
      </trkpt>
      <trkpt lat="45.62209" lon="5.04934">
        <ele>329.9921875</ele>
        <time>2017-04-30T11:25:00Z</time>
      </trkpt>
      <trkpt lat="45.62208" lon="5.04933">
        <ele>330.015625</ele>
        <time>2017-04-30T11:25:01Z</time>
      </trkpt>
      <trkpt lat="45.62202" lon="5.04924">
        <ele>329.97265625</ele>
        <time>2017-04-30T11:25:13Z</time>
      </trkpt>
      <trkpt lat="45.62199" lon="5.04918">
        <ele>329.90234375</ele>
        <time>2017-04-30T11:25:18Z</time>
      </trkpt>
      <trkpt lat="45.62193" lon="5.0491">
        <ele>329.65234375</ele>
        <time>2017-04-30T11:25:25Z</time>
      </trkpt>
      <trkpt lat="45.62188" lon="5.04904">
        <ele>329.453125</ele>
        <time>2017-04-30T11:25:38Z</time>
      </trkpt>
      <trkpt lat="45.62187" lon="5.04903">
        <ele>329.390625</ele>
        <time>2017-04-30T11:25:40Z</time>
      </trkpt>
      <trkpt lat="45.62182" lon="5.04896">
        <ele>329.19140625</ele>
        <time>2017-04-30T11:25:46Z</time>
      </trkpt>
      <trkpt lat="45.62171" lon="5.04889">
        <ele>329.296875</ele>
        <time>2017-04-30T11:25:58Z</time>
      </trkpt>
      <trkpt lat="45.62166" lon="5.04887">
        <ele>329.48828125</ele>
        <time>2017-04-30T11:26:02Z</time>
      </trkpt>
      <trkpt lat="45.6216" lon="5.04885">
        <ele>329.69921875</ele>
        <time>2017-04-30T11:26:08Z</time>
      </trkpt>
      <trkpt lat="45.62151" lon="5.04871">
        <ele>329.7421875</ele>
        <time>2017-04-30T11:26:23Z</time>
      </trkpt>
      <trkpt lat="45.6215" lon="5.04866">
        <ele>329.6171875</ele>
        <time>2017-04-30T11:26:26Z</time>
      </trkpt>
      <trkpt lat="45.6215" lon="5.04863">
        <ele>329.51953125</ele>
        <time>2017-04-30T11:26:28Z</time>
      </trkpt>
      <trkpt lat="45.62149" lon="5.04838">
        <ele>329.1796875</ele>
        <time>2017-04-30T11:26:42Z</time>
      </trkpt>
      <trkpt lat="45.6215" lon="5.04815">
        <ele>328.76953125</ele>
        <time>2017-04-30T11:26:56Z</time>
      </trkpt>
      <trkpt lat="45.6215" lon="5.0481">
        <ele>328.6875</ele>
        <time>2017-04-30T11:26:59Z</time>
      </trkpt>
      <trkpt lat="45.6215" lon="5.04808">
        <ele>328.6953125</ele>
        <time>2017-04-30T11:27:00Z</time>
      </trkpt>
      <trkpt lat="45.6215" lon="5.04801">
        <ele>328.703125</ele>
        <time>2017-04-30T11:27:04Z</time>
      </trkpt>
      <trkpt lat="45.6215" lon="5.04798">
        <ele>328.765625</ele>
        <time>2017-04-30T11:27:06Z</time>
      </trkpt>
      <trkpt lat="45.62147" lon="5.04781">
        <ele>329.375</ele>
        <time>2017-04-30T11:27:17Z</time>
      </trkpt>
      <trkpt lat="45.62143" lon="5.04756">
        <ele>330.0703125</ele>
        <time>2017-04-30T11:27:30Z</time>
      </trkpt>
      <trkpt lat="45.62143" lon="5.04754">
        <ele>330.10546875</ele>
        <time>2017-04-30T11:27:31Z</time>
      </trkpt>
      <trkpt lat="45.6214" lon="5.04737">
        <ele>330.05078125</ele>
        <time>2017-04-30T11:27:41Z</time>
      </trkpt>
      <trkpt lat="45.6214" lon="5.04734">
        <ele>329.984375</ele>
        <time>2017-04-30T11:27:43Z</time>
      </trkpt>
      <trkpt lat="45.62138" lon="5.04715">
        <ele>329.57421875</ele>
        <time>2017-04-30T11:27:54Z</time>
      </trkpt>
      <trkpt lat="45.62138" lon="5.04713">
        <ele>329.51953125</ele>
        <time>2017-04-30T11:27:55Z</time>
      </trkpt>
      <trkpt lat="45.62138" lon="5.04711">
        <ele>329.4765625</ele>
        <time>2017-04-30T11:27:56Z</time>
      </trkpt>
      <trkpt lat="45.62138" lon="5.0471">
        <ele>329.44140625</ele>
        <time>2017-04-30T11:27:57Z</time>
      </trkpt>
      <trkpt lat="45.62137" lon="5.04708">
        <ele>329.41015625</ele>
        <time>2017-04-30T11:27:58Z</time>
      </trkpt>
      <trkpt lat="45.62137" lon="5.04706">
        <ele>329.3828125</ele>
        <time>2017-04-30T11:27:59Z</time>
      </trkpt>
      <trkpt lat="45.62136" lon="5.04704">
        <ele>329.35546875</ele>
        <time>2017-04-30T11:28:00Z</time>
      </trkpt>
      <trkpt lat="45.62136" lon="5.04703">
        <ele>329.31640625</ele>
        <time>2017-04-30T11:28:01Z</time>
      </trkpt>
      <trkpt lat="45.62136" lon="5.04698">
        <ele>329.17578125</ele>
        <time>2017-04-30T11:28:04Z</time>
      </trkpt>
      <trkpt lat="45.62136" lon="5.04696">
        <ele>329.125</ele>
        <time>2017-04-30T11:28:05Z</time>
      </trkpt>
      <trkpt lat="45.62136" lon="5.04694">
        <ele>329.08984375</ele>
        <time>2017-04-30T11:28:06Z</time>
      </trkpt>
      <trkpt lat="45.62131" lon="5.04669">
        <ele>328.12890625</ele>
        <time>2017-04-30T11:28:20Z</time>
      </trkpt>
      <trkpt lat="45.62129" lon="5.04656">
        <ele>327.54296875</ele>
        <time>2017-04-30T11:28:28Z</time>
      </trkpt>
      <trkpt lat="45.62125" lon="5.04653">
        <ele>327.4921875</ele>
        <time>2017-04-30T11:28:33Z</time>
      </trkpt>
      <trkpt lat="45.62112" lon="5.04648">
        <ele>327.5234375</ele>
        <time>2017-04-30T11:28:44Z</time>
      </trkpt>
      <trkpt lat="45.62112" lon="5.04647">
        <ele>327.48046875</ele>
        <time>2017-04-30T11:28:45Z</time>
      </trkpt>
      <trkpt lat="45.62107" lon="5.04644">
        <ele>327.3671875</ele>
        <time>2017-04-30T11:28:49Z</time>
      </trkpt>
      <trkpt lat="45.62097" lon="5.04634">
        <ele>326.79296875</ele>
        <time>2017-04-30T11:29:00Z</time>
      </trkpt>
      <trkpt lat="45.62084" lon="5.04625">
        <ele>326.0390625</ele>
        <time>2017-04-30T11:29:12Z</time>
      </trkpt>
      <trkpt lat="45.62079" lon="5.04624">
        <ele>325.9375</ele>
        <time>2017-04-30T11:29:16Z</time>
      </trkpt>
      <trkpt lat="45.62077" lon="5.04625">
        <ele>325.97265625</ele>
        <time>2017-04-30T11:29:17Z</time>
      </trkpt>
      <trkpt lat="45.6207" lon="5.04617">
        <ele>325.33203125</ele>
        <time>2017-04-30T11:29:25Z</time>
      </trkpt>
      <trkpt lat="45.62059" lon="5.04609">
        <ele>324.53515625</ele>
        <time>2017-04-30T11:29:37Z</time>
      </trkpt>
      <trkpt lat="45.62057" lon="5.04608">
        <ele>324.4375</ele>
        <time>2017-04-30T11:29:38Z</time>
      </trkpt>
      <trkpt lat="45.62045" lon="5.04607">
        <ele>325.19921875</ele>
        <time>2017-04-30T11:29:50Z</time>
      </trkpt>
      <trkpt lat="45.62027" lon="5.04599">
        <ele>326.20703125</ele>
        <time>2017-04-30T11:30:02Z</time>
      </trkpt>
      <trkpt lat="45.6202" lon="5.04598">
        <ele>326.7109375</ele>
        <time>2017-04-30T11:30:07Z</time>
      </trkpt>
      <trkpt lat="45.6201" lon="5.04593">
        <ele>327.09765625</ele>
        <time>2017-04-30T11:30:17Z</time>
      </trkpt>
      <trkpt lat="45.62009" lon="5.04592">
        <ele>327.1015625</ele>
        <time>2017-04-30T11:30:18Z</time>
      </trkpt>
      <trkpt lat="45.62" lon="5.04588">
        <ele>327.55078125</ele>
        <time>2017-04-30T11:30:28Z</time>
      </trkpt>
      <trkpt lat="45.61997" lon="5.04589">
        <ele>327.82421875</ele>
        <time>2017-04-30T11:30:30Z</time>
      </trkpt>
      <trkpt lat="45.61981" lon="5.04587">
        <ele>328.52734375</ele>
        <time>2017-04-30T11:30:44Z</time>
      </trkpt>
      <trkpt lat="45.6198" lon="5.04587">
        <ele>328.578125</ele>
        <time>2017-04-30T11:30:46Z</time>
      </trkpt>
      <trkpt lat="45.61967" lon="5.04587">
        <ele>329.21875</ele>
        <time>2017-04-30T11:30:59Z</time>
      </trkpt>
      <trkpt lat="45.61962" lon="5.04589">
        <ele>329.7890625</ele>
        <time>2017-04-30T11:31:03Z</time>
      </trkpt>
      <trkpt lat="45.61952" lon="5.04592">
        <ele>330.6875</ele>
        <time>2017-04-30T11:31:15Z</time>
      </trkpt>
      <trkpt lat="45.6194" lon="5.04589">
        <ele>330.56640625</ele>
        <time>2017-04-30T11:31:28Z</time>
      </trkpt>
      <trkpt lat="45.61933" lon="5.04597">
        <ele>330.73828125</ele>
        <time>2017-04-30T11:31:37Z</time>
      </trkpt>
      <trkpt lat="45.61927" lon="5.04614">
        <ele>332.16796875</ele>
        <time>2017-04-30T11:31:50Z</time>
      </trkpt>
      <trkpt lat="45.61925" lon="5.0463">
        <ele>333.90625</ele>
        <time>2017-04-30T11:32:04Z</time>
      </trkpt>
      <trkpt lat="45.61921" lon="5.04645">
        <ele>335.0078125</ele>
        <time>2017-04-30T11:32:15Z</time>
      </trkpt>
      <trkpt lat="45.61915" lon="5.04662">
        <ele>335.80078125</ele>
        <time>2017-04-30T11:32:27Z</time>
      </trkpt>
      <trkpt lat="45.6191" lon="5.04672">
        <ele>336.2578125</ele>
        <time>2017-04-30T11:32:35Z</time>
      </trkpt>
      <trkpt lat="45.61909" lon="5.04679">
        <ele>336.80859375</ele>
        <time>2017-04-30T11:32:47Z</time>
      </trkpt>
      <trkpt lat="45.61908" lon="5.04681">
        <ele>336.88671875</ele>
        <time>2017-04-30T11:32:56Z</time>
      </trkpt>
      <trkpt lat="45.61906" lon="5.04696">
        <ele>337.8125</ele>
        <time>2017-04-30T11:33:05Z</time>
      </trkpt>
      <trkpt lat="45.61904" lon="5.04702">
        <ele>338.015625</ele>
        <time>2017-04-30T11:33:11Z</time>
      </trkpt>
      <trkpt lat="45.61901" lon="5.04711">
        <ele>338.359375</ele>
        <time>2017-04-30T11:33:21Z</time>
      </trkpt>
      <trkpt lat="45.61898" lon="5.04718">
        <ele>338.5859375</ele>
        <time>2017-04-30T11:33:28Z</time>
      </trkpt>
      <trkpt lat="45.61896" lon="5.04724">
        <ele>338.8203125</ele>
        <time>2017-04-30T11:33:33Z</time>
      </trkpt>
      <trkpt lat="45.61896" lon="5.04725">
        <ele>338.88671875</ele>
        <time>2017-04-30T11:33:34Z</time>
      </trkpt>
      <trkpt lat="45.61894" lon="5.04739">
        <ele>339.54296875</ele>
        <time>2017-04-30T11:33:44Z</time>
      </trkpt>
      <trkpt lat="45.61892" lon="5.04758">
        <ele>340.18359375</ele>
        <time>2017-04-30T11:33:57Z</time>
      </trkpt>
      <trkpt lat="45.6189" lon="5.0478">
        <ele>340.578125</ele>
        <time>2017-04-30T11:34:11Z</time>
      </trkpt>
      <trkpt lat="45.61889" lon="5.04801">
        <ele>340.95703125</ele>
        <time>2017-04-30T11:34:24Z</time>
      </trkpt>
      <trkpt lat="45.61888" lon="5.0482">
        <ele>341.58203125</ele>
        <time>2017-04-30T11:34:35Z</time>
      </trkpt>
      <trkpt lat="45.61887" lon="5.04821">
        <ele>341.64453125</ele>
        <time>2017-04-30T11:34:36Z</time>
      </trkpt>
      <trkpt lat="45.61887" lon="5.04823">
        <ele>341.68359375</ele>
        <time>2017-04-30T11:34:37Z</time>
      </trkpt>
      <trkpt lat="45.61885" lon="5.04834">
        <ele>341.95703125</ele>
        <time>2017-04-30T11:34:44Z</time>
      </trkpt>
      <trkpt lat="45.61885" lon="5.04836">
        <ele>342.015625</ele>
        <time>2017-04-30T11:34:45Z</time>
      </trkpt>
      <trkpt lat="45.61884" lon="5.04857">
        <ele>342.66796875</ele>
        <time>2017-04-30T11:34:58Z</time>
      </trkpt>
      <trkpt lat="45.61884" lon="5.04858">
        <ele>342.71875</ele>
        <time>2017-04-30T11:34:59Z</time>
      </trkpt>
      <trkpt lat="45.61882" lon="5.04875">
        <ele>342.6953125</ele>
        <time>2017-04-30T11:35:09Z</time>
      </trkpt>
      <trkpt lat="45.61878" lon="5.04902">
        <ele>342.58203125</ele>
        <time>2017-04-30T11:35:26Z</time>
      </trkpt>
      <trkpt lat="45.61876" lon="5.04908">
        <ele>342.5703125</ele>
        <time>2017-04-30T11:35:29Z</time>
      </trkpt>
      <trkpt lat="45.61874" lon="5.04916">
        <ele>342.54296875</ele>
        <time>2017-04-30T11:35:34Z</time>
      </trkpt>
      <trkpt lat="45.61874" lon="5.04918">
        <ele>342.546875</ele>
        <time>2017-04-30T11:35:35Z</time>
      </trkpt>
      <trkpt lat="45.61866" lon="5.04936">
        <ele>342.54296875</ele>
        <time>2017-04-30T11:35:47Z</time>
      </trkpt>
      <trkpt lat="45.61862" lon="5.04945">
        <ele>342.578125</ele>
        <time>2017-04-30T11:35:53Z</time>
      </trkpt>
      <trkpt lat="45.61861" lon="5.04946">
        <ele>342.58203125</ele>
        <time>2017-04-30T11:35:54Z</time>
      </trkpt>
      <trkpt lat="45.6186" lon="5.04947">
        <ele>342.6015625</ele>
        <time>2017-04-30T11:35:55Z</time>
      </trkpt>
      <trkpt lat="45.6186" lon="5.04949">
        <ele>342.6171875</ele>
        <time>2017-04-30T11:35:56Z</time>
      </trkpt>
      <trkpt lat="45.61852" lon="5.04964">
        <ele>342.859375</ele>
        <time>2017-04-30T11:36:07Z</time>
      </trkpt>
      <trkpt lat="45.61851" lon="5.04966">
        <ele>342.8984375</ele>
        <time>2017-04-30T11:36:08Z</time>
      </trkpt>
      <trkpt lat="45.6185" lon="5.04968">
        <ele>342.9453125</ele>
        <time>2017-04-30T11:36:10Z</time>
      </trkpt>
      <trkpt lat="45.61849" lon="5.04969">
        <ele>342.97265625</ele>
        <time>2017-04-30T11:36:11Z</time>
      </trkpt>
      <trkpt lat="45.61848" lon="5.0497">
        <ele>343</ele>
        <time>2017-04-30T11:36:12Z</time>
      </trkpt>
      <trkpt lat="45.61847" lon="5.04971">
        <ele>343</ele>
        <time>2017-04-30T11:36:13Z</time>
      </trkpt>
      <trkpt lat="45.61846" lon="5.04973">
        <ele>343</ele>
        <time>2017-04-30T11:36:14Z</time>
      </trkpt>
      <trkpt lat="45.61841" lon="5.04986">
        <ele>343</ele>
        <time>2017-04-30T11:36:23Z</time>
      </trkpt>
      <trkpt lat="45.6184" lon="5.04988">
        <ele>343</ele>
        <time>2017-04-30T11:36:24Z</time>
      </trkpt>
      <trkpt lat="45.61834" lon="5.05005">
        <ele>343</ele>
        <time>2017-04-30T11:36:35Z</time>
      </trkpt>
      <trkpt lat="45.6183" lon="5.05024">
        <ele>342.96484375</ele>
        <time>2017-04-30T11:36:48Z</time>
      </trkpt>
      <trkpt lat="45.61825" lon="5.05051">
        <ele>342.484375</ele>
        <time>2017-04-30T11:37:03Z</time>
      </trkpt>
      <trkpt lat="45.61826" lon="5.05052">
        <ele>342.46484375</ele>
        <time>2017-04-30T11:37:04Z</time>
      </trkpt>
      <trkpt lat="45.61824" lon="5.0506">
        <ele>342.33203125</ele>
        <time>2017-04-30T11:37:10Z</time>
      </trkpt>
      <trkpt lat="45.61822" lon="5.0507">
        <ele>342.17578125</ele>
        <time>2017-04-30T11:37:17Z</time>
      </trkpt>
      <trkpt lat="45.61822" lon="5.05073">
        <ele>342.1171875</ele>
        <time>2017-04-30T11:37:19Z</time>
      </trkpt>
      <trkpt lat="45.61819" lon="5.05096">
        <ele>341.79296875</ele>
        <time>2017-04-30T11:37:32Z</time>
      </trkpt>
      <trkpt lat="45.61815" lon="5.05119">
        <ele>341.515625</ele>
        <time>2017-04-30T11:37:45Z</time>
      </trkpt>
      <trkpt lat="45.61813" lon="5.05138">
        <ele>341.3046875</ele>
        <time>2017-04-30T11:37:57Z</time>
      </trkpt>
      <trkpt lat="45.61812" lon="5.05149">
        <ele>341.1328125</ele>
        <time>2017-04-30T11:38:04Z</time>
      </trkpt>
      <trkpt lat="45.61812" lon="5.05151">
        <ele>341.1015625</ele>
        <time>2017-04-30T11:38:05Z</time>
      </trkpt>
      <trkpt lat="45.6181" lon="5.0517">
        <ele>340.7890625</ele>
        <time>2017-04-30T11:38:17Z</time>
      </trkpt>
      <trkpt lat="45.61808" lon="5.05194">
        <ele>340.44140625</ele>
        <time>2017-04-30T11:38:30Z</time>
      </trkpt>
      <trkpt lat="45.61809" lon="5.05196">
        <ele>340.44140625</ele>
        <time>2017-04-30T11:38:31Z</time>
      </trkpt>
      <trkpt lat="45.61811" lon="5.05203">
        <ele>340.44140625</ele>
        <time>2017-04-30T11:38:36Z</time>
      </trkpt>
      <trkpt lat="45.61812" lon="5.05204">
        <ele>340.41796875</ele>
        <time>2017-04-30T11:38:37Z</time>
      </trkpt>
      <trkpt lat="45.61814" lon="5.05205">
        <ele>340.39453125</ele>
        <time>2017-04-30T11:38:38Z</time>
      </trkpt>
      <trkpt lat="45.61826" lon="5.05213">
        <ele>340.13671875</ele>
        <time>2017-04-30T11:38:50Z</time>
      </trkpt>
      <trkpt lat="45.61829" lon="5.05214">
        <ele>340.07421875</ele>
        <time>2017-04-30T11:38:52Z</time>
      </trkpt>
      <trkpt lat="45.61835" lon="5.05217">
        <ele>339.9296875</ele>
        <time>2017-04-30T11:38:57Z</time>
      </trkpt>
      <trkpt lat="45.61838" lon="5.05218">
        <ele>339.8828125</ele>
        <time>2017-04-30T11:38:59Z</time>
      </trkpt>
      <trkpt lat="45.61839" lon="5.05219">
        <ele>339.8671875</ele>
        <time>2017-04-30T11:39:00Z</time>
      </trkpt>
      <trkpt lat="45.61853" lon="5.05224">
        <ele>339.61328125</ele>
        <time>2017-04-30T11:39:13Z</time>
      </trkpt>
      <trkpt lat="45.61867" lon="5.05229">
        <ele>339.36328125</ele>
        <time>2017-04-30T11:39:24Z</time>
      </trkpt>
      <trkpt lat="45.61879" lon="5.05237">
        <ele>339.14453125</ele>
        <time>2017-04-30T11:39:35Z</time>
      </trkpt>
      <trkpt lat="45.61891" lon="5.0524">
        <ele>338.921875</ele>
        <time>2017-04-30T11:39:44Z</time>
      </trkpt>
      <trkpt lat="45.61903" lon="5.05245">
        <ele>338.6953125</ele>
        <time>2017-04-30T11:39:53Z</time>
      </trkpt>
      <trkpt lat="45.61904" lon="5.05244">
        <ele>338.65234375</ele>
        <time>2017-04-30T11:39:54Z</time>
      </trkpt>
      <trkpt lat="45.61906" lon="5.05244">
        <ele>338.6171875</ele>
        <time>2017-04-30T11:39:55Z</time>
      </trkpt>
      <trkpt lat="45.61907" lon="5.05245">
        <ele>338.59765625</ele>
        <time>2017-04-30T11:39:56Z</time>
      </trkpt>
      <trkpt lat="45.61909" lon="5.05246">
        <ele>338.58203125</ele>
        <time>2017-04-30T11:39:57Z</time>
      </trkpt>
      <trkpt lat="45.61916" lon="5.05248">
        <ele>338.49609375</ele>
        <time>2017-04-30T11:40:03Z</time>
      </trkpt>
      <trkpt lat="45.61917" lon="5.05249">
        <ele>338.51171875</ele>
        <time>2017-04-30T11:40:04Z</time>
      </trkpt>
      <trkpt lat="45.61919" lon="5.05249">
        <ele>338.48828125</ele>
        <time>2017-04-30T11:40:05Z</time>
      </trkpt>
      <trkpt lat="45.61935" lon="5.05251">
        <ele>338.30859375</ele>
        <time>2017-04-30T11:40:18Z</time>
      </trkpt>
      <trkpt lat="45.61938" lon="5.05251">
        <ele>338.265625</ele>
        <time>2017-04-30T11:40:20Z</time>
      </trkpt>
      <trkpt lat="45.61942" lon="5.05252">
        <ele>338.25</ele>
        <time>2017-04-30T11:40:23Z</time>
      </trkpt>
      <trkpt lat="45.61944" lon="5.05252">
        <ele>338.21875</ele>
        <time>2017-04-30T11:40:24Z</time>
      </trkpt>
      <trkpt lat="45.61945" lon="5.05252">
        <ele>338.2109375</ele>
        <time>2017-04-30T11:40:25Z</time>
      </trkpt>
      <trkpt lat="45.6196" lon="5.05254">
        <ele>338.32421875</ele>
        <time>2017-04-30T11:40:36Z</time>
      </trkpt>
      <trkpt lat="45.61961" lon="5.05254">
        <ele>338.32421875</ele>
        <time>2017-04-30T11:40:37Z</time>
      </trkpt>
      <trkpt lat="45.61962" lon="5.05255">
        <ele>338.34375</ele>
        <time>2017-04-30T11:40:38Z</time>
      </trkpt>
      <trkpt lat="45.61976" lon="5.05262">
        <ele>338.59375</ele>
        <time>2017-04-30T11:40:51Z</time>
      </trkpt>
      <trkpt lat="45.61989" lon="5.05266">
        <ele>338.71484375</ele>
        <time>2017-04-30T11:41:02Z</time>
      </trkpt>
      <trkpt lat="45.62004" lon="5.05273">
        <ele>338.72265625</ele>
        <time>2017-04-30T11:41:15Z</time>
      </trkpt>
      <trkpt lat="45.62011" lon="5.05279">
        <ele>338.671875</ele>
        <time>2017-04-30T11:41:21Z</time>
      </trkpt>
      <trkpt lat="45.62026" lon="5.05287">
        <ele>338.63671875</ele>
        <time>2017-04-30T11:41:34Z</time>
      </trkpt>
      <trkpt lat="45.62035" lon="5.05292">
        <ele>338.64453125</ele>
        <time>2017-04-30T11:41:42Z</time>
      </trkpt>
      <trkpt lat="45.62038" lon="5.05294">
        <ele>338.71484375</ele>
        <time>2017-04-30T11:41:45Z</time>
      </trkpt>
      <trkpt lat="45.62045" lon="5.05297">
        <ele>338.76171875</ele>
        <time>2017-04-30T11:41:50Z</time>
      </trkpt>
      <trkpt lat="45.62046" lon="5.05298">
        <ele>338.79296875</ele>
        <time>2017-04-30T11:41:51Z</time>
      </trkpt>
      <trkpt lat="45.62051" lon="5.05302">
        <ele>338.9375</ele>
        <time>2017-04-30T11:41:55Z</time>
      </trkpt>
      <trkpt lat="45.62052" lon="5.05303">
        <ele>339</ele>
        <time>2017-04-30T11:41:56Z</time>
      </trkpt>
      <trkpt lat="45.62058" lon="5.05309">
        <ele>338.6640625</ele>
        <time>2017-04-30T11:42:03Z</time>
      </trkpt>
      <trkpt lat="45.62059" lon="5.0531">
        <ele>338.58984375</ele>
        <time>2017-04-30T11:42:04Z</time>
      </trkpt>
      <trkpt lat="45.62076" lon="5.0532">
        <ele>337.640625</ele>
        <time>2017-04-30T11:42:17Z</time>
      </trkpt>
      <trkpt lat="45.62085" lon="5.05335">
        <ele>337.06640625</ele>
        <time>2017-04-30T11:42:28Z</time>
      </trkpt>
      <trkpt lat="45.62089" lon="5.05343">
        <ele>336.8359375</ele>
        <time>2017-04-30T11:42:34Z</time>
      </trkpt>
      <trkpt lat="45.62089" lon="5.05354">
        <ele>336.76171875</ele>
        <time>2017-04-30T11:42:39Z</time>
      </trkpt>
      <trkpt lat="45.62085" lon="5.05377">
        <ele>336.67578125</ele>
        <time>2017-04-30T11:42:53Z</time>
      </trkpt>
      <trkpt lat="45.62086" lon="5.05396">
        <ele>336.453125</ele>
        <time>2017-04-30T11:43:04Z</time>
      </trkpt>
      <trkpt lat="45.62087" lon="5.05398">
        <ele>336.390625</ele>
        <time>2017-04-30T11:43:05Z</time>
      </trkpt>
      <trkpt lat="45.62089" lon="5.05404">
        <ele>336.203125</ele>
        <time>2017-04-30T11:43:08Z</time>
      </trkpt>
      <trkpt lat="45.62092" lon="5.05413">
        <ele>335.93359375</ele>
        <time>2017-04-30T11:43:13Z</time>
      </trkpt>
      <trkpt lat="45.62093" lon="5.05415">
        <ele>335.86328125</ele>
        <time>2017-04-30T11:43:14Z</time>
      </trkpt>
      <trkpt lat="45.62095" lon="5.05417">
        <ele>335.76171875</ele>
        <time>2017-04-30T11:43:16Z</time>
      </trkpt>
      <trkpt lat="45.62096" lon="5.05418">
        <ele>335.6953125</ele>
        <time>2017-04-30T11:43:17Z</time>
      </trkpt>
      <trkpt lat="45.62101" lon="5.05426">
        <ele>335.421875</ele>
        <time>2017-04-30T11:43:23Z</time>
      </trkpt>
      <trkpt lat="45.62109" lon="5.05438">
        <ele>335</ele>
        <time>2017-04-30T11:43:33Z</time>
      </trkpt>
      <trkpt lat="45.62114" lon="5.05444">
        <ele>334.78125</ele>
        <time>2017-04-30T11:43:38Z</time>
      </trkpt>
      <trkpt lat="45.62117" lon="5.05449">
        <ele>334.6171875</ele>
        <time>2017-04-30T11:43:42Z</time>
      </trkpt>
      <trkpt lat="45.62123" lon="5.05459">
        <ele>334.32421875</ele>
        <time>2017-04-30T11:43:49Z</time>
      </trkpt>
      <trkpt lat="45.62123" lon="5.05461">
        <ele>334.28515625</ele>
        <time>2017-04-30T11:43:50Z</time>
      </trkpt>
      <trkpt lat="45.62124" lon="5.05462">
        <ele>334.23046875</ele>
        <time>2017-04-30T11:43:51Z</time>
      </trkpt>
      <trkpt lat="45.62127" lon="5.05468">
        <ele>334.0234375</ele>
        <time>2017-04-30T11:43:55Z</time>
      </trkpt>
      <trkpt lat="45.62131" lon="5.05471">
        <ele>333.80078125</ele>
        <time>2017-04-30T11:43:58Z</time>
      </trkpt>
      <trkpt lat="45.62139" lon="5.05482">
        <ele>333.05859375</ele>
        <time>2017-04-30T11:44:07Z</time>
      </trkpt>
      <trkpt lat="45.6214" lon="5.05484">
        <ele>332.9609375</ele>
        <time>2017-04-30T11:44:08Z</time>
      </trkpt>
      <trkpt lat="45.62149" lon="5.05501">
        <ele>332.1328125</ele>
        <time>2017-04-30T11:44:18Z</time>
      </trkpt>
      <trkpt lat="45.6215" lon="5.05501">
        <ele>332.07421875</ele>
        <time>2017-04-30T11:44:19Z</time>
      </trkpt>
      <trkpt lat="45.62166" lon="5.05506">
        <ele>331.2734375</ele>
        <time>2017-04-30T11:44:32Z</time>
      </trkpt>
      <trkpt lat="45.62176" lon="5.05505">
        <ele>330.69140625</ele>
        <time>2017-04-30T11:44:43Z</time>
      </trkpt>
      <trkpt lat="45.6218" lon="5.05505">
        <ele>330.4453125</ele>
        <time>2017-04-30T11:44:51Z</time>
      </trkpt>
      <trkpt lat="45.62185" lon="5.05508">
        <ele>330.08984375</ele>
        <time>2017-04-30T11:44:56Z</time>
      </trkpt>
      <trkpt lat="45.62196" lon="5.05514">
        <ele>329.39453125</ele>
        <time>2017-04-30T11:45:06Z</time>
      </trkpt>
      <trkpt lat="45.62198" lon="5.05515">
        <ele>329.265625</ele>
        <time>2017-04-30T11:45:08Z</time>
      </trkpt>
      <trkpt lat="45.62199" lon="5.05517">
        <ele>329.203125</ele>
        <time>2017-04-30T11:45:09Z</time>
      </trkpt>
      <trkpt lat="45.622" lon="5.05521">
        <ele>329.1171875</ele>
        <time>2017-04-30T11:45:11Z</time>
      </trkpt>
      <trkpt lat="45.62201" lon="5.05523">
        <ele>329.0703125</ele>
        <time>2017-04-30T11:45:12Z</time>
      </trkpt>
      <trkpt lat="45.62202" lon="5.05526">
        <ele>328.98046875</ele>
        <time>2017-04-30T11:45:14Z</time>
      </trkpt>
      <trkpt lat="45.62203" lon="5.05528">
        <ele>328.91015625</ele>
        <time>2017-04-30T11:45:15Z</time>
      </trkpt>
      <trkpt lat="45.62211" lon="5.05544">
        <ele>328.1953125</ele>
        <time>2017-04-30T11:45:27Z</time>
      </trkpt>
      <trkpt lat="45.62211" lon="5.05545">
        <ele>328.1328125</ele>
        <time>2017-04-30T11:45:28Z</time>
      </trkpt>
      <trkpt lat="45.62213" lon="5.05551">
        <ele>327.91015625</ele>
        <time>2017-04-30T11:45:32Z</time>
      </trkpt>
      <trkpt lat="45.62214" lon="5.05553">
        <ele>327.8671875</ele>
        <time>2017-04-30T11:45:33Z</time>
      </trkpt>
      <trkpt lat="45.62215" lon="5.05556">
        <ele>327.74609375</ele>
        <time>2017-04-30T11:45:35Z</time>
      </trkpt>
      <trkpt lat="45.62216" lon="5.05558">
        <ele>327.6640625</ele>
        <time>2017-04-30T11:45:36Z</time>
      </trkpt>
      <trkpt lat="45.62217" lon="5.05559">
        <ele>327.58984375</ele>
        <time>2017-04-30T11:45:37Z</time>
      </trkpt>
      <trkpt lat="45.62218" lon="5.05565">
        <ele>327.39453125</ele>
        <time>2017-04-30T11:45:41Z</time>
      </trkpt>
      <trkpt lat="45.62218" lon="5.05572">
        <ele>327.28515625</ele>
        <time>2017-04-30T11:45:45Z</time>
      </trkpt>
      <trkpt lat="45.62223" lon="5.05579">
        <ele>326.921875</ele>
        <time>2017-04-30T11:45:51Z</time>
      </trkpt>
      <trkpt lat="45.62227" lon="5.05585">
        <ele>326.68359375</ele>
        <time>2017-04-30T11:45:56Z</time>
      </trkpt>
      <trkpt lat="45.62239" lon="5.05595">
        <ele>326.07421875</ele>
        <time>2017-04-30T11:46:06Z</time>
      </trkpt>
      <trkpt lat="45.62244" lon="5.05601">
        <ele>325.796875</ele>
        <time>2017-04-30T11:46:11Z</time>
      </trkpt>
      <trkpt lat="45.62245" lon="5.05602">
        <ele>325.75</ele>
        <time>2017-04-30T11:46:12Z</time>
      </trkpt>
      <trkpt lat="45.62252" lon="5.05611">
        <ele>325.3359375</ele>
        <time>2017-04-30T11:46:22Z</time>
      </trkpt>
      <trkpt lat="45.62252" lon="5.05614">
        <ele>325.26171875</ele>
        <time>2017-04-30T11:46:24Z</time>
      </trkpt>
      <trkpt lat="45.62256" lon="5.05625">
        <ele>324.93359375</ele>
        <time>2017-04-30T11:46:29Z</time>
      </trkpt>
      <trkpt lat="45.62261" lon="5.05637">
        <ele>324.55078125</ele>
        <time>2017-04-30T11:46:37Z</time>
      </trkpt>
      <trkpt lat="45.62262" lon="5.05641">
        <ele>324.56640625</ele>
        <time>2017-04-30T11:46:40Z</time>
      </trkpt>
      <trkpt lat="45.62263" lon="5.05643">
        <ele>324.58984375</ele>
        <time>2017-04-30T11:46:41Z</time>
      </trkpt>
      <trkpt lat="45.62264" lon="5.05648">
        <ele>324.625</ele>
        <time>2017-04-30T11:46:44Z</time>
      </trkpt>
      <trkpt lat="45.62265" lon="5.05652">
        <ele>324.65234375</ele>
        <time>2017-04-30T11:46:46Z</time>
      </trkpt>
      <trkpt lat="45.62268" lon="5.05658">
        <ele>324.66796875</ele>
        <time>2017-04-30T11:46:50Z</time>
      </trkpt>
      <trkpt lat="45.62275" lon="5.05677">
        <ele>324.74609375</ele>
        <time>2017-04-30T11:47:02Z</time>
      </trkpt>
      <trkpt lat="45.62277" lon="5.0568">
        <ele>324.73046875</ele>
        <time>2017-04-30T11:47:05Z</time>
      </trkpt>
      <trkpt lat="45.62278" lon="5.05682">
        <ele>324.7578125</ele>
        <time>2017-04-30T11:47:06Z</time>
      </trkpt>
      <trkpt lat="45.62279" lon="5.05686">
        <ele>324.7734375</ele>
        <time>2017-04-30T11:47:09Z</time>
      </trkpt>
      <trkpt lat="45.62283" lon="5.05692">
        <ele>324.75</ele>
        <time>2017-04-30T11:47:15Z</time>
      </trkpt>
      <trkpt lat="45.6229" lon="5.05705">
        <ele>324.90234375</ele>
        <time>2017-04-30T11:47:25Z</time>
      </trkpt>
      <trkpt lat="45.62291" lon="5.05707">
        <ele>324.91796875</ele>
        <time>2017-04-30T11:47:26Z</time>
      </trkpt>
      <trkpt lat="45.62292" lon="5.05708">
        <ele>324.9296875</ele>
        <time>2017-04-30T11:47:27Z</time>
      </trkpt>
      <trkpt lat="45.62294" lon="5.05716">
        <ele>325.07421875</ele>
        <time>2017-04-30T11:47:31Z</time>
      </trkpt>
      <trkpt lat="45.62302" lon="5.05734">
        <ele>325.2109375</ele>
        <time>2017-04-30T11:47:44Z</time>
      </trkpt>
      <trkpt lat="45.62309" lon="5.05749">
        <ele>325.28515625</ele>
        <time>2017-04-30T11:47:55Z</time>
      </trkpt>
      <trkpt lat="45.62316" lon="5.05768">
        <ele>325.4375</ele>
        <time>2017-04-30T11:48:08Z</time>
      </trkpt>
      <trkpt lat="45.62322" lon="5.05781">
        <ele>325.6015625</ele>
        <time>2017-04-30T11:48:17Z</time>
      </trkpt>
      <trkpt lat="45.62323" lon="5.05782">
        <ele>325.60546875</ele>
        <time>2017-04-30T11:48:18Z</time>
      </trkpt>
      <trkpt lat="45.62328" lon="5.0579">
        <ele>325.63671875</ele>
        <time>2017-04-30T11:48:23Z</time>
      </trkpt>
      <trkpt lat="45.62329" lon="5.05791">
        <ele>325.65234375</ele>
        <time>2017-04-30T11:48:24Z</time>
      </trkpt>
      <trkpt lat="45.6233" lon="5.05792">
        <ele>325.64453125</ele>
        <time>2017-04-30T11:48:25Z</time>
      </trkpt>
      <trkpt lat="45.62344" lon="5.05806">
        <ele>325.58203125</ele>
        <time>2017-04-30T11:48:39Z</time>
      </trkpt>
      <trkpt lat="45.62356" lon="5.05814">
        <ele>325.28125</ele>
        <time>2017-04-30T11:48:51Z</time>
      </trkpt>
      <trkpt lat="45.62357" lon="5.05814">
        <ele>325.25</ele>
        <time>2017-04-30T11:48:52Z</time>
      </trkpt>
      <trkpt lat="45.62359" lon="5.05815">
        <ele>325.20703125</ele>
        <time>2017-04-30T11:48:54Z</time>
      </trkpt>
      <trkpt lat="45.62363" lon="5.05816">
        <ele>325.13671875</ele>
        <time>2017-04-30T11:48:57Z</time>
      </trkpt>
      <trkpt lat="45.62377" lon="5.05821">
        <ele>324.8984375</ele>
        <time>2017-04-30T11:49:10Z</time>
      </trkpt>
      <trkpt lat="45.62382" lon="5.05821">
        <ele>324.77734375</ele>
        <time>2017-04-30T11:49:14Z</time>
      </trkpt>
      <trkpt lat="45.62383" lon="5.05821">
        <ele>324.734375</ele>
        <time>2017-04-30T11:49:15Z</time>
      </trkpt>
      <trkpt lat="45.62398" lon="5.0582">
        <ele>324.81640625</ele>
        <time>2017-04-30T11:49:28Z</time>
      </trkpt>
      <trkpt lat="45.62419" lon="5.05818">
        <ele>325.10546875</ele>
        <time>2017-04-30T11:49:44Z</time>
      </trkpt>
      <trkpt lat="45.62439" lon="5.05816">
        <ele>325.39453125</ele>
        <time>2017-04-30T11:49:59Z</time>
      </trkpt>
      <trkpt lat="45.62459" lon="5.05815">
        <ele>325.37109375</ele>
        <time>2017-04-30T11:50:15Z</time>
      </trkpt>
      <trkpt lat="45.62475" lon="5.05815">
        <ele>325.3046875</ele>
        <time>2017-04-30T11:50:28Z</time>
      </trkpt>
      <trkpt lat="45.62489" lon="5.05815">
        <ele>325.25</ele>
        <time>2017-04-30T11:50:40Z</time>
      </trkpt>
      <trkpt lat="45.6249" lon="5.05815">
        <ele>325.2421875</ele>
        <time>2017-04-30T11:50:41Z</time>
      </trkpt>
      <trkpt lat="45.62492" lon="5.05815">
        <ele>325.24609375</ele>
        <time>2017-04-30T11:50:42Z</time>
      </trkpt>
      <trkpt lat="45.62508" lon="5.05816">
        <ele>325.0625</ele>
        <time>2017-04-30T11:50:55Z</time>
      </trkpt>
      <trkpt lat="45.62525" lon="5.05818">
        <ele>324.79296875</ele>
        <time>2017-04-30T11:51:09Z</time>
      </trkpt>
      <trkpt lat="45.62539" lon="5.05818">
        <ele>324.546875</ele>
        <time>2017-04-30T11:51:20Z</time>
      </trkpt>
      <trkpt lat="45.62554" lon="5.05815">
        <ele>324.21875</ele>
        <time>2017-04-30T11:51:34Z</time>
      </trkpt>
      <trkpt lat="45.62565" lon="5.05815">
        <ele>324.1796875</ele>
        <time>2017-04-30T11:51:47Z</time>
      </trkpt>
      <trkpt lat="45.62579" lon="5.05814">
        <ele>324.109375</ele>
        <time>2017-04-30T11:51:59Z</time>
      </trkpt>
      <trkpt lat="45.62594" lon="5.05815">
        <ele>324.05859375</ele>
        <time>2017-04-30T11:52:14Z</time>
      </trkpt>
      <trkpt lat="45.62604" lon="5.05815">
        <ele>324.01953125</ele>
        <time>2017-04-30T11:52:22Z</time>
      </trkpt>
      <trkpt lat="45.62605" lon="5.05815">
        <ele>324.015625</ele>
        <time>2017-04-30T11:52:23Z</time>
      </trkpt>
      <trkpt lat="45.62623" lon="5.05816">
        <ele>324.26171875</ele>
        <time>2017-04-30T11:52:36Z</time>
      </trkpt>
      <trkpt lat="45.62632" lon="5.05816">
        <ele>324.41015625</ele>
        <time>2017-04-30T11:52:42Z</time>
      </trkpt>
      <trkpt lat="45.62649" lon="5.05818">
        <ele>324.71484375</ele>
        <time>2017-04-30T11:52:58Z</time>
      </trkpt>
      <trkpt lat="45.62652" lon="5.05818">
        <ele>324.76953125</ele>
        <time>2017-04-30T11:53:01Z</time>
      </trkpt>
      <trkpt lat="45.62653" lon="5.05818">
        <ele>324.79296875</ele>
        <time>2017-04-30T11:53:02Z</time>
      </trkpt>
      <trkpt lat="45.62671" lon="5.05822">
        <ele>324.625</ele>
        <time>2017-04-30T11:53:16Z</time>
      </trkpt>
      <trkpt lat="45.62685" lon="5.05823">
        <ele>323.734375</ele>
        <time>2017-04-30T11:53:30Z</time>
      </trkpt>
      <trkpt lat="45.62702" lon="5.0583">
        <ele>322.6484375</ele>
        <time>2017-04-30T11:53:47Z</time>
      </trkpt>
      <trkpt lat="45.62708" lon="5.0584">
        <ele>322.1015625</ele>
        <time>2017-04-30T11:53:57Z</time>
      </trkpt>
      <trkpt lat="45.62716" lon="5.05856">
        <ele>321.33203125</ele>
        <time>2017-04-30T11:54:10Z</time>
      </trkpt>
      <trkpt lat="45.6272" lon="5.05872">
        <ele>320.5859375</ele>
        <time>2017-04-30T11:54:22Z</time>
      </trkpt>
      <trkpt lat="45.62723" lon="5.05885">
        <ele>319.5390625</ele>
        <time>2017-04-30T11:54:29Z</time>
      </trkpt>
      <trkpt lat="45.62727" lon="5.059">
        <ele>317.55078125</ele>
        <time>2017-04-30T11:54:38Z</time>
      </trkpt>
      <trkpt lat="45.62728" lon="5.05916">
        <ele>316.8515625</ele>
        <time>2017-04-30T11:54:46Z</time>
      </trkpt>
      <trkpt lat="45.6273" lon="5.05923">
        <ele>315.6484375</ele>
        <time>2017-04-30T11:54:51Z</time>
      </trkpt>
      <trkpt lat="45.62732" lon="5.05933">
        <ele>314.703125</ele>
        <time>2017-04-30T11:54:57Z</time>
      </trkpt>
      <trkpt lat="45.62732" lon="5.05936">
        <ele>314.515625</ele>
        <time>2017-04-30T11:54:59Z</time>
      </trkpt>
      <trkpt lat="45.62734" lon="5.0595">
        <ele>313.18359375</ele>
        <time>2017-04-30T11:55:09Z</time>
      </trkpt>
      <trkpt lat="45.62736" lon="5.05964">
        <ele>311.9375</ele>
        <time>2017-04-30T11:55:20Z</time>
      </trkpt>
      <trkpt lat="45.62742" lon="5.05983">
        <ele>308.9296875</ele>
        <time>2017-04-30T11:55:31Z</time>
      </trkpt>
      <trkpt lat="45.62743" lon="5.05988">
        <ele>308.3125</ele>
        <time>2017-04-30T11:55:34Z</time>
      </trkpt>
      <trkpt lat="45.62745" lon="5.0599">
        <ele>307.68359375</ele>
        <time>2017-04-30T11:55:36Z</time>
      </trkpt>
      <trkpt lat="45.6275" lon="5.06005">
        <ele>305.27734375</ele>
        <time>2017-04-30T11:55:48Z</time>
      </trkpt>
      <trkpt lat="45.62753" lon="5.06028">
        <ele>302.87890625</ele>
        <time>2017-04-30T11:56:02Z</time>
      </trkpt>
      <trkpt lat="45.62759" lon="5.06043">
        <ele>301.2734375</ele>
        <time>2017-04-30T11:56:15Z</time>
      </trkpt>
      <trkpt lat="45.62771" lon="5.06059">
        <ele>298.0703125</ele>
        <time>2017-04-30T11:56:30Z</time>
      </trkpt>
      <trkpt lat="45.62778" lon="5.06057">
        <ele>296.69921875</ele>
        <time>2017-04-30T11:56:35Z</time>
      </trkpt>
      <trkpt lat="45.62788" lon="5.06056">
        <ele>295.19140625</ele>
        <time>2017-04-30T11:56:44Z</time>
      </trkpt>
      <trkpt lat="45.62804" lon="5.0606">
        <ele>292.95703125</ele>
        <time>2017-04-30T11:56:57Z</time>
      </trkpt>
      <trkpt lat="45.62805" lon="5.06059">
        <ele>292.7578125</ele>
        <time>2017-04-30T11:56:58Z</time>
      </trkpt>
      <trkpt lat="45.62806" lon="5.06059">
        <ele>292.58984375</ele>
        <time>2017-04-30T11:56:59Z</time>
      </trkpt>
      <trkpt lat="45.62827" lon="5.06054">
        <ele>289.59765625</ele>
        <time>2017-04-30T11:57:14Z</time>
      </trkpt>
      <trkpt lat="45.6283" lon="5.06054">
        <ele>289.109375</ele>
        <time>2017-04-30T11:57:17Z</time>
      </trkpt>
      <trkpt lat="45.62832" lon="5.06054">
        <ele>288.9296875</ele>
        <time>2017-04-30T11:57:18Z</time>
      </trkpt>
      <trkpt lat="45.62834" lon="5.06053">
        <ele>288.78515625</ele>
        <time>2017-04-30T11:57:19Z</time>
      </trkpt>
      <trkpt lat="45.62835" lon="5.06052">
        <ele>288.640625</ele>
        <time>2017-04-30T11:57:20Z</time>
      </trkpt>
      <trkpt lat="45.62837" lon="5.06052">
        <ele>288.54296875</ele>
        <time>2017-04-30T11:57:21Z</time>
      </trkpt>
      <trkpt lat="45.62838" lon="5.06051">
        <ele>288.4375</ele>
        <time>2017-04-30T11:57:22Z</time>
      </trkpt>
      <trkpt lat="45.62839" lon="5.0605">
        <ele>288.3359375</ele>
        <time>2017-04-30T11:57:23Z</time>
      </trkpt>
      <trkpt lat="45.6284" lon="5.06049">
        <ele>288.265625</ele>
        <time>2017-04-30T11:57:24Z</time>
      </trkpt>
      <trkpt lat="45.62844" lon="5.06045">
        <ele>288.01953125</ele>
        <time>2017-04-30T11:57:27Z</time>
      </trkpt>
      <trkpt lat="45.62844" lon="5.06044">
        <ele>287.9453125</ele>
        <time>2017-04-30T11:57:28Z</time>
      </trkpt>
      <trkpt lat="45.62845" lon="5.06042">
        <ele>287.890625</ele>
        <time>2017-04-30T11:57:29Z</time>
      </trkpt>
      <trkpt lat="45.62847" lon="5.06034">
        <ele>287.79296875</ele>
        <time>2017-04-30T11:57:34Z</time>
      </trkpt>
      <trkpt lat="45.62848" lon="5.06032">
        <ele>287.74609375</ele>
        <time>2017-04-30T11:57:35Z</time>
      </trkpt>
      <trkpt lat="45.62849" lon="5.06031">
        <ele>287.6875</ele>
        <time>2017-04-30T11:57:36Z</time>
      </trkpt>
      <trkpt lat="45.62852" lon="5.06013">
        <ele>287.5078125</ele>
        <time>2017-04-30T11:57:49Z</time>
      </trkpt>
      <trkpt lat="45.62855" lon="5.05994">
        <ele>287.39453125</ele>
        <time>2017-04-30T11:58:01Z</time>
      </trkpt>
      <trkpt lat="45.62857" lon="5.05977">
        <ele>287.19921875</ele>
        <time>2017-04-30T11:58:13Z</time>
      </trkpt>
      <trkpt lat="45.62859" lon="5.05972">
        <ele>287</ele>
        <time>2017-04-30T11:58:28Z</time>
      </trkpt>
      <trkpt lat="45.62858" lon="5.05963">
        <ele>287.046875</ele>
        <time>2017-04-30T11:58:33Z</time>
      </trkpt>
      <trkpt lat="45.62858" lon="5.05962">
        <ele>287.03125</ele>
        <time>2017-04-30T11:58:34Z</time>
      </trkpt>
      <trkpt lat="45.62858" lon="5.05961">
        <ele>287.03515625</ele>
        <time>2017-04-30T11:58:35Z</time>
      </trkpt>
      <trkpt lat="45.62861" lon="5.05942">
        <ele>286.73828125</ele>
        <time>2017-04-30T11:58:47Z</time>
      </trkpt>
      <trkpt lat="45.62863" lon="5.05926">
        <ele>286.5546875</ele>
        <time>2017-04-30T11:58:57Z</time>
      </trkpt>
      <trkpt lat="45.62866" lon="5.05907">
        <ele>286.19921875</ele>
        <time>2017-04-30T11:59:09Z</time>
      </trkpt>
      <trkpt lat="45.62866" lon="5.05901">
        <ele>286.09765625</ele>
        <time>2017-04-30T11:59:13Z</time>
      </trkpt>
      <trkpt lat="45.62867" lon="5.05878">
        <ele>285.6484375</ele>
        <time>2017-04-30T11:59:26Z</time>
      </trkpt>
      <trkpt lat="45.62871" lon="5.05855">
        <ele>284.97265625</ele>
        <time>2017-04-30T11:59:40Z</time>
      </trkpt>
      <trkpt lat="45.62873" lon="5.05834">
        <ele>284.4296875</ele>
        <time>2017-04-30T11:59:53Z</time>
      </trkpt>
      <trkpt lat="45.62875" lon="5.05816">
        <ele>283.8359375</ele>
        <time>2017-04-30T12:00:04Z</time>
      </trkpt>
      <trkpt lat="45.62875" lon="5.05814">
        <ele>283.7890625</ele>
        <time>2017-04-30T12:00:05Z</time>
      </trkpt>
      <trkpt lat="45.62877" lon="5.05795">
        <ele>283.23828125</ele>
        <time>2017-04-30T12:00:17Z</time>
      </trkpt>
      <trkpt lat="45.62879" lon="5.05786">
        <ele>282.7890625</ele>
        <time>2017-04-30T12:00:23Z</time>
      </trkpt>
      <trkpt lat="45.62879" lon="5.05785">
        <ele>282.7421875</ele>
        <time>2017-04-30T12:00:24Z</time>
      </trkpt>
      <trkpt lat="45.62879" lon="5.05783">
        <ele>282.75</ele>
        <time>2017-04-30T12:00:25Z</time>
      </trkpt>
      <trkpt lat="45.62879" lon="5.05778">
        <ele>282.6640625</ele>
        <time>2017-04-30T12:00:28Z</time>
      </trkpt>
      <trkpt lat="45.62879" lon="5.05768">
        <ele>282.46875</ele>
        <time>2017-04-30T12:00:34Z</time>
      </trkpt>
      <trkpt lat="45.6288" lon="5.05762">
        <ele>282.16015625</ele>
        <time>2017-04-30T12:00:37Z</time>
      </trkpt>
      <trkpt lat="45.62883" lon="5.05758">
        <ele>281.7578125</ele>
        <time>2017-04-30T12:00:40Z</time>
      </trkpt>
      <trkpt lat="45.62884" lon="5.05757">
        <ele>281.6015625</ele>
        <time>2017-04-30T12:00:41Z</time>
      </trkpt>
      <trkpt lat="45.62896" lon="5.05748">
        <ele>280.64453125</ele>
        <time>2017-04-30T12:00:53Z</time>
      </trkpt>
      <trkpt lat="45.62897" lon="5.05747">
        <ele>280.60546875</ele>
        <time>2017-04-30T12:00:54Z</time>
      </trkpt>
      <trkpt lat="45.62899" lon="5.05747">
        <ele>280.56640625</ele>
        <time>2017-04-30T12:00:55Z</time>
      </trkpt>
      <trkpt lat="45.629" lon="5.05747">
        <ele>280.52734375</ele>
        <time>2017-04-30T12:00:56Z</time>
      </trkpt>
      <trkpt lat="45.62911" lon="5.0574">
        <ele>280.1328125</ele>
        <time>2017-04-30T12:01:07Z</time>
      </trkpt>
      <trkpt lat="45.62912" lon="5.05738">
        <ele>280.0859375</ele>
        <time>2017-04-30T12:01:22Z</time>
      </trkpt>
      <trkpt lat="45.62912" lon="5.05739">
        <ele>280.0703125</ele>
        <time>2017-04-30T12:01:50Z</time>
      </trkpt>
      <trkpt lat="45.62916" lon="5.05729">
        <ele>279.94921875</ele>
        <time>2017-04-30T12:02:06Z</time>
      </trkpt>
      <trkpt lat="45.62917" lon="5.05718">
        <ele>279.91796875</ele>
        <time>2017-04-30T12:02:18Z</time>
      </trkpt>
      <trkpt lat="45.62919" lon="5.05708">
        <ele>279.8203125</ele>
        <time>2017-04-30T12:02:29Z</time>
      </trkpt>
      <trkpt lat="45.6292" lon="5.05705">
        <ele>279.80859375</ele>
        <time>2017-04-30T12:02:30Z</time>
      </trkpt>
      <trkpt lat="45.62922" lon="5.05694">
        <ele>279.73828125</ele>
        <time>2017-04-30T12:02:40Z</time>
      </trkpt>
      <trkpt lat="45.62923" lon="5.05677">
        <ele>279.49609375</ele>
        <time>2017-04-30T12:02:51Z</time>
      </trkpt>
      <trkpt lat="45.62923" lon="5.05676">
        <ele>279.4765625</ele>
        <time>2017-04-30T12:02:52Z</time>
      </trkpt>
      <trkpt lat="45.62923" lon="5.05674">
        <ele>279.453125</ele>
        <time>2017-04-30T12:02:53Z</time>
      </trkpt>
      <trkpt lat="45.62925" lon="5.05656">
        <ele>279.14453125</ele>
        <time>2017-04-30T12:03:05Z</time>
      </trkpt>
      <trkpt lat="45.62925" lon="5.05654">
        <ele>279.11328125</ele>
        <time>2017-04-30T12:03:06Z</time>
      </trkpt>
      <trkpt lat="45.62926" lon="5.05652">
        <ele>279.07421875</ele>
        <time>2017-04-30T12:03:07Z</time>
      </trkpt>
      <trkpt lat="45.62927" lon="5.05647">
        <ele>278.953125</ele>
        <time>2017-04-30T12:03:10Z</time>
      </trkpt>
      <trkpt lat="45.62927" lon="5.05645">
        <ele>278.91796875</ele>
        <time>2017-04-30T12:03:11Z</time>
      </trkpt>
      <trkpt lat="45.62929" lon="5.05639">
        <ele>278.73828125</ele>
        <time>2017-04-30T12:03:15Z</time>
      </trkpt>
      <trkpt lat="45.62929" lon="5.05637">
        <ele>278.7109375</ele>
        <time>2017-04-30T12:03:16Z</time>
      </trkpt>
      <trkpt lat="45.62929" lon="5.05635">
        <ele>278.70703125</ele>
        <time>2017-04-30T12:03:17Z</time>
      </trkpt>
      <trkpt lat="45.62929" lon="5.05633">
        <ele>278.69140625</ele>
        <time>2017-04-30T12:03:18Z</time>
      </trkpt>
      <trkpt lat="45.62929" lon="5.05631">
        <ele>278.6796875</ele>
        <time>2017-04-30T12:03:19Z</time>
      </trkpt>
      <trkpt lat="45.62928" lon="5.05612">
        <ele>278.73828125</ele>
        <time>2017-04-30T12:03:31Z</time>
      </trkpt>
      <trkpt lat="45.62928" lon="5.05609">
        <ele>278.734375</ele>
        <time>2017-04-30T12:03:33Z</time>
      </trkpt>
      <trkpt lat="45.62935" lon="5.05605">
        <ele>278.3671875</ele>
        <time>2017-04-30T12:03:45Z</time>
      </trkpt>
      <trkpt lat="45.62935" lon="5.056">
        <ele>278.359375</ele>
        <time>2017-04-30T12:04:01Z</time>
      </trkpt>
      <trkpt lat="45.62936" lon="5.05591">
        <ele>278.33203125</ele>
        <time>2017-04-30T12:04:10Z</time>
      </trkpt>
      <trkpt lat="45.62936" lon="5.05585">
        <ele>278.3359375</ele>
        <time>2017-04-30T12:04:14Z</time>
      </trkpt>
      <trkpt lat="45.62937" lon="5.05569">
        <ele>278.296875</ele>
        <time>2017-04-30T12:04:28Z</time>
      </trkpt>
      <trkpt lat="45.62939" lon="5.05544">
        <ele>278.1796875</ele>
        <time>2017-04-30T12:04:44Z</time>
      </trkpt>
      <trkpt lat="45.62943" lon="5.05523">
        <ele>277.94140625</ele>
        <time>2017-04-30T12:04:57Z</time>
      </trkpt>
      <trkpt lat="45.62943" lon="5.0552">
        <ele>277.87109375</ele>
        <time>2017-04-30T12:04:59Z</time>
      </trkpt>
      <trkpt lat="45.62943" lon="5.05518">
        <ele>277.83203125</ele>
        <time>2017-04-30T12:05:00Z</time>
      </trkpt>
      <trkpt lat="45.62944" lon="5.05517">
        <ele>277.7890625</ele>
        <time>2017-04-30T12:05:01Z</time>
      </trkpt>
      <trkpt lat="45.62944" lon="5.05515">
        <ele>277.75390625</ele>
        <time>2017-04-30T12:05:02Z</time>
      </trkpt>
      <trkpt lat="45.62944" lon="5.05514">
        <ele>277.71875</ele>
        <time>2017-04-30T12:05:03Z</time>
      </trkpt>
      <trkpt lat="45.62945" lon="5.05512">
        <ele>277.6796875</ele>
        <time>2017-04-30T12:05:04Z</time>
      </trkpt>
      <trkpt lat="45.62947" lon="5.05491">
        <ele>277.2578125</ele>
        <time>2017-04-30T12:05:17Z</time>
      </trkpt>
      <trkpt lat="45.62948" lon="5.05478">
        <ele>277.01953125</ele>
        <time>2017-04-30T12:05:29Z</time>
      </trkpt>
      <trkpt lat="45.6295" lon="5.05462">
        <ele>276.73046875</ele>
        <time>2017-04-30T12:05:43Z</time>
      </trkpt>
      <trkpt lat="45.62951" lon="5.05457">
        <ele>276.61328125</ele>
        <time>2017-04-30T12:05:48Z</time>
      </trkpt>
      <trkpt lat="45.62956" lon="5.05445">
        <ele>276.30078125</ele>
        <time>2017-04-30T12:06:00Z</time>
      </trkpt>
      <trkpt lat="45.62965" lon="5.05447">
        <ele>276.17578125</ele>
        <time>2017-04-30T12:06:12Z</time>
      </trkpt>
      <trkpt lat="45.62976" lon="5.0545">
        <ele>276.0390625</ele>
        <time>2017-04-30T12:06:28Z</time>
      </trkpt>
      <trkpt lat="45.6298" lon="5.0545">
        <ele>275.9609375</ele>
        <time>2017-04-30T12:06:46Z</time>
      </trkpt>
      <trkpt lat="45.62996" lon="5.05456">
        <ele>275.78125</ele>
        <time>2017-04-30T12:07:02Z</time>
      </trkpt>
      <trkpt lat="45.63008" lon="5.05461">
        <ele>275.64453125</ele>
        <time>2017-04-30T12:07:15Z</time>
      </trkpt>
      <trkpt lat="45.63016" lon="5.05464">
        <ele>275.5625</ele>
        <time>2017-04-30T12:07:24Z</time>
      </trkpt>
      <trkpt lat="45.6302" lon="5.05466">
        <ele>275.53125</ele>
        <time>2017-04-30T12:07:29Z</time>
      </trkpt>
      <trkpt lat="45.63035" lon="5.05472">
        <ele>275.34765625</ele>
        <time>2017-04-30T12:07:43Z</time>
      </trkpt>
      <trkpt lat="45.63049" lon="5.05475">
        <ele>275.1640625</ele>
        <time>2017-04-30T12:07:55Z</time>
      </trkpt>
      <trkpt lat="45.63061" lon="5.05481">
        <ele>275.16796875</ele>
        <time>2017-04-30T12:08:07Z</time>
      </trkpt>
      <trkpt lat="45.63077" lon="5.05485">
        <ele>275.15625</ele>
        <time>2017-04-30T12:08:22Z</time>
      </trkpt>
      <trkpt lat="45.63087" lon="5.05488">
        <ele>275.12890625</ele>
        <time>2017-04-30T12:08:31Z</time>
      </trkpt>
      <trkpt lat="45.63098" lon="5.05495">
        <ele>275.0859375</ele>
        <time>2017-04-30T12:08:43Z</time>
      </trkpt>
      <trkpt lat="45.63104" lon="5.05493">
        <ele>275.03515625</ele>
        <time>2017-04-30T12:08:55Z</time>
      </trkpt>
      <trkpt lat="45.63103" lon="5.05492">
        <ele>275.0390625</ele>
        <time>2017-04-30T12:08:59Z</time>
      </trkpt>
      <trkpt lat="45.6311" lon="5.0548">
        <ele>274.97265625</ele>
        <time>2017-04-30T12:09:13Z</time>
      </trkpt>
      <trkpt lat="45.63113" lon="5.05473">
        <ele>274.91796875</ele>
        <time>2017-04-30T12:09:18Z</time>
      </trkpt>
      <trkpt lat="45.63122" lon="5.05462">
        <ele>274.62109375</ele>
        <time>2017-04-30T12:09:30Z</time>
      </trkpt>
      <trkpt lat="45.63132" lon="5.05456">
        <ele>274.3359375</ele>
        <time>2017-04-30T12:09:41Z</time>
      </trkpt>
      <trkpt lat="45.63137" lon="5.05454">
        <ele>274.21875</ele>
        <time>2017-04-30T12:09:46Z</time>
      </trkpt>
      <trkpt lat="45.63153" lon="5.05445">
        <ele>273.74609375</ele>
        <time>2017-04-30T12:10:01Z</time>
      </trkpt>
      <trkpt lat="45.6316" lon="5.05447">
        <ele>273.6640625</ele>
        <time>2017-04-30T12:10:11Z</time>
      </trkpt>
      <trkpt lat="45.63159" lon="5.05449">
        <ele>273.7109375</ele>
        <time>2017-04-30T12:10:13Z</time>
      </trkpt>
      <trkpt lat="45.63158" lon="5.05451">
        <ele>273.77734375</ele>
        <time>2017-04-30T12:10:15Z</time>
      </trkpt>
      <trkpt lat="45.63157" lon="5.05454">
        <ele>273.84765625</ele>
        <time>2017-04-30T12:10:17Z</time>
      </trkpt>
      <trkpt lat="45.63145" lon="5.05469">
        <ele>274.32421875</ele>
        <time>2017-04-30T12:10:32Z</time>
      </trkpt>
      <trkpt lat="45.63135" lon="5.05487">
        <ele>274.67578125</ele>
        <time>2017-04-30T12:10:48Z</time>
      </trkpt>
      <trkpt lat="45.63133" lon="5.0549">
        <ele>274.71875</ele>
        <time>2017-04-30T12:10:51Z</time>
      </trkpt>
      <trkpt lat="45.63129" lon="5.05499">
        <ele>274.82421875</ele>
        <time>2017-04-30T12:10:57Z</time>
      </trkpt>
      <trkpt lat="45.6312" lon="5.05517">
        <ele>274.97265625</ele>
        <time>2017-04-30T12:11:11Z</time>
      </trkpt>
      <trkpt lat="45.63119" lon="5.05521">
        <ele>274.98828125</ele>
        <time>2017-04-30T12:11:17Z</time>
      </trkpt>
      <trkpt lat="45.63115" lon="5.05529">
        <ele>275</ele>
        <time>2017-04-30T12:11:29Z</time>
      </trkpt>
      <trkpt lat="45.63117" lon="5.05539">
        <ele>275</ele>
        <time>2017-04-30T12:11:42Z</time>
      </trkpt>
      <trkpt lat="45.63121" lon="5.05558">
        <ele>275</ele>
        <time>2017-04-30T12:11:57Z</time>
      </trkpt>
      <trkpt lat="45.63122" lon="5.05579">
        <ele>275</ele>
        <time>2017-04-30T12:12:14Z</time>
      </trkpt>
      <trkpt lat="45.63127" lon="5.05589">
        <ele>275</ele>
        <time>2017-04-30T12:12:28Z</time>
      </trkpt>
      <trkpt lat="45.63139" lon="5.05604">
        <ele>275</ele>
        <time>2017-04-30T12:12:44Z</time>
      </trkpt>
    </trkseg>
  </trk>
</gpx>